GFSSE_500_spd_000.txt.gz
Wind_Speed
1 2 5 8 11 11 10 9 9 8 6 5 3 3 4 5 8 10 11 10 11 11 9 10 10 11 10 10 8 11 11 10 10 11 12 11 11 13 14 14 13 12 12
5 5 5 7 9 12 12 11 9 8 10 9 8 8 8 6 8 10 12 11 10 13 12 10 12 12 11 10 10 10 11 10 10 10 10 10 11 11 11 13 14 11 11
8 7 8 8 7 8 11 13 12 12 11 13 16 13 10 8 7 10 11 12 12 13 13 13 13 12 12 11 10 9 11 10 9 9 10 10 10 10 10 11 12 14 12
6 8 9 9 9 10 10 12 13 11 11 8 8 12 12 11 9 10 10 10 13 15 13 14 14 14 12 11 10 9 8 9 8 7 8 8 8 8 8 10 11 12 14
7 6 9 11 10 11 10 12 13 13 13 12 10 11 13 13 11 10 10 10 13 16 14 14 15 16 14 12 10 9 9 7 7 7 5 5 5 6 7 8 10 11 11
7 6 7 9 9 9 9 10 11 12 12 13 13 14 16 16 13 11 10 11 13 16 13 15 16 18 15 14 11 10 9 7 6 4 4 3 1 5 5 6 10 12 13
7 7 7 7 7 8 8 9 11 13 13 14 14 13 17 17 17 13 11 10 12 15 15 14 15 17 16 14 12 11 10 7 5 5 4 3 0 3 4 4 8 11 13
7 10 11 9 8 9 8 8 10 12 14 14 12 12 15 19 20 17 12 10 11 15 15 15 14 14 15 14 13 11 13 10 7 7 6 4 2 2 1 1 4 8 10
6 9 13 15 15 14 13 11 12 13 13 13 12 12 12 13 16 16 12 10 12 12 15 15 16 14 14 14 14 13 12 11 11 7 6 6 4 2 4 2 1 3 6
8 7 12 16 18 17 17 14 15 12 13 14 15 14 16 17 18 17 11 12 14 13 14 16 15 15 14 14 14 13 13 11 14 9 9 7 6 4 4 4 3 2 3
12 10 10 14 17 17 16 18 15 12 10 12 12 17 20 17 18 17 18 15 12 15 16 17 17 17 16 14 14 13 12 11 15 10 7 5 7 6 5 6 6 5 5
12 11 12 11 13 16 17 17 14 13 14 11 13 11 19 19 18 24 27 25 17 16 18 19 19 18 17 16 15 14 13 12 13 13 9 9 8 7 6 5 6 7 9
13 13 9 12 12 13 16 17 14 11 12 13 13 14 10 19 17 17 27 34 26 20 21 21 22 20 17 16 16 15 14 14 15 12 11 10 10 8 8 8 8 8 10
14 14 12 11 12 15 15 16 12 11 11 14 15 16 15 15 16 10 23 25 32 25 25 24 24 24 21 18 16 16 15 17 15 15 10 11 12 12 11 12 12 12 13
18 16 13 11 12 16 15 10 11 11 11 15 18 19 20 19 17 15 19 22 38 29 29 28 28 25 22 20 18 15 17 17 13 13 12 18 14 15 15 15 15 16 17
17 16 14 14 13 14 13 13 12 11 13 24 12 20 22 21 21 17 20 16 33 34 34 31 29 27 23 21 20 18 16 16 15 14 17 18 18 18 16 15 15 13 13
18 17 15 12 9 10 14 15 11 11 12 16 15 20 20 19 19 19 18 18 24 35 34 36 32 31 25 24 21 16 15 16 15 14 14 13 16 18 17 16 18 18 12
16 17 16 14 13 13 12 12 12 12 14 16 18 19 22 21 19 18 19 18 18 29 33 36 32 33 27 26 23 19 17 15 16 14 11 14 14 14 15 16 19 21 16
16 17 17 15 13 14 17 18 20 19 19 20 21 25 25 26 24 21 20 22 21 24 35 37 34 36 33 30 25 22 20 19 19 16 15 15 15 15 15 16 17 20 15
14 15 16 16 16 17 18 21 21 22 24 25 25 24 27 27 28 25 23 24 22 21 35 39 37 35 36 34 25 24 22 20 19 18 15 17 17 17 17 16 20 21 16
12 14 16 15 17 19 22 24 24 25 29 28 26 28 27 30 30 29 25 25 24 21 25 35 39 38 33 27 27 26 24 21 20 19 17 18 19 20 19 16 25 24 11
13 16 18 16 18 22 24 26 27 32 34 24 23 24 28 29 31 32 30 27 25 24 27 33 32 40 41 35 31 26 24 21 20 19 19 20 21 21 19 16 19 17 16
18 18 17 15 16 23 27 31 34 38 35 19 22 21 24 27 27 27 30 31 28 27 28 30 31 34 40 38 35 29 26 24 20 21 21 21 22 23 25 21 17 16 17
26 34 14 14 17 23 31 37 38 42 26 20 19 20 21 26 28 27 27 33 32 28 28 29 30 35 34 33 36 32 30 25 21 19 22 21 21 25 26 21 17 15 16
32 24 17 14 20 26 27 35 36 34 22 16 14 14 16 21 23 24 23 29 31 29 29 29 30 37 35 28 35 28 25 23 21 22 24 23 23 24 24 19 18 17 16
15 12 12 17 21 25 28 31 33 29 16 11 10 9 12 16 19 20 21 24 29 29 29 30 29 38 35 32 30 23 22 25 22 21 21 23 24 24 22 18 20 19 19

GFSSE_500_spd_003.txt.gz
Wind_Speed
3 2 1 6 8 9 8 8 9 10 9 7 5 4 3 4 6 9 10 10 10 12 11 11 12 12 10 11 10 9 10 9 10 12 12 14 15 16 18 17 16 15 15
3 3 3 5 7 9 9 8 8 9 9 8 8 5 6 6 5 9 11 10 11 12 13 12 12 11 10 10 10 10 10 9 10 10 12 11 13 12 14 16 17 15 14
7 5 6 6 9 10 11 11 12 11 12 13 13 11 10 9 7 7 11 12 10 12 14 14 13 12 11 10 11 10 10 9 10 11 10 11 11 11 12 13 15 15 14
7 6 8 9 11 11 11 12 13 14 15 13 12 16 16 12 9 7 9 11 11 11 14 15 16 14 12 11 11 9 9 9 7 9 8 10 10 10 10 11 12 12 14
6 7 8 10 12 12 12 12 13 13 14 13 10 9 11 13 11 9 9 10 12 12 13 15 17 17 14 14 12 10 8 8 6 6 5 6 7 9 9 10 12 13 15
7 5 8 9 11 13 12 13 12 13 13 12 12 11 11 14 13 11 10 9 11 13 13 15 17 18 16 14 14 13 10 8 6 4 3 3 4 6 8 9 11 13 15
5 6 7 7 8 10 10 9 10 12 13 12 12 12 13 17 16 13 9 9 10 13 12 13 16 18 17 15 13 12 12 9 7 6 5 2 2 2 4 6 8 10 12
9 10 10 10 9 9 9 8 10 10 10 12 12 12 9 18 19 15 12 11 11 13 15 13 14 17 17 16 13 12 11 8 7 6 4 3 2 2 1 4 5 7 8
8 11 12 13 15 16 16 14 12 12 11 13 13 13 10 15 20 22 16 13 12 13 16 14 14 14 17 17 14 12 11 9 9 7 6 5 4 3 3 2 3 3 3
10 9 13 14 16 18 19 18 16 13 12 15 14 14 12 12 15 19 21 17 14 15 17 16 14 13 13 15 15 13 12 10 10 7 8 8 8 5 4 5 4 3 2
7 11 9 12 16 16 18 18 17 16 15 13 14 13 16 15 13 17 20 18 15 15 16 17 15 15 13 13 14 14 13 12 10 12 10 9 9 8 6 5 6 6 5
11 8 11 11 10 11 14 17 17 17 17 17 15 15 12 17 20 17 16 25 18 16 18 18 19 18 17 14 13 14 13 11 13 16 13 11 10 9 7 6 6 8 8
14 13 11 9 9 9 10 11 14 15 17 14 16 14 13 11 22 19 17 27 29 23 19 19 20 21 22 17 16 15 14 15 16 14 13 13 12 10 10 8 8 7 9
15 16 14 11 9 7 9 10 11 8 13 15 14 14 13 18 22 18 15 20 32 34 23 23 22 22 19 18 17 16 17 17 16 16 15 14 14 14 13 11 11 11 12
15 14 14 12 9 5 6 8 8 12 12 15 14 15 17 18 19 16 15 16 21 28 32 29 27 25 23 20 19 17 18 18 21 17 15 15 15 15 15 13 13 14 14
14 18 16 14 9 4 3 7 9 9 11 13 13 18 18 20 20 19 18 20 26 23 39 35 28 28 23 23 21 20 19 20 19 15 17 15 18 16 15 15 15 15 13
17 18 18 15 9 7 6 5 3 4 9 12 11 11 15 19 19 19 18 17 20 24 31 34 33 33 30 24 22 20 24 17 20 19 17 17 19 18 18 17 17 17 15
15 17 19 17 15 14 10 8 9 8 9 9 13 15 18 20 19 18 17 18 19 21 26 37 38 34 31 29 26 23 25 16 18 18 17 16 14 16 16 17 18 18 18
14 16 17 19 17 17 17 15 16 16 14 14 19 21 23 25 24 22 20 20 21 19 16 30 38 38 33 32 29 23 22 21 19 18 16 18 14 15 18 14 13 14 14
14 13 18 19 16 17 18 18 18 18 20 20 24 25 25 27 27 26 24 22 22 20 18 21 37 39 37 32 31 27 26 25 24 20 18 20 19 18 19 17 11 14 19
20 20 22 26 21 15 18 21 24 26 25 31 30 26 26 27 30 28 27 25 22 21 20 19 32 37 38 33 33 32 27 28 26 24 23 20 18 19 19 17 17 16 25
11 15 20 27 25 22 22 25 26 28 33 30 21 19 20 25 32 30 28 26 24 24 22 20 27 34 37 38 33 35 30 29 27 25 20 18 19 18 21 19 20 18 16
15 19 26 28 22 22 25 23 26 28 34 27 22 20 19 17 22 30 30 29 27 24 22 20 20 30 34 36 34 33 31 28 24 23 18 19 18 19 21 22 24 23 19
19 24 25 24 20 18 24 26 27 30 33 23 21 17 18 17 19 23 27 27 29 28 24 21 22 27 30 33 38 38 33 24 22 21 21 21 19 19 21 22 23 18 18
19 27 11 16 18 22 25 28 30 35 31 20 15 15 15 14 14 19 23 22 23 27 28 25 23 23 24 29 30 38 38 34 32 26 22 19 18 20 21 22 21 19 17
21 23 18 17 21 25 24 26 28 39 25 17 16 15 13 10 10 16 19 22 24 27 30 27 24 23 28 29 29 29 34 37 31 28 20 21 19 19 22 24 21 18 16

GFSSE_500_spd_006.txt.gz
Wind_Speed
3 3 5 7 9 9 5 5 6 8 8 7 6 5 4 3 4 7 8 9 8 9 11 11 10 9 9 8 11 10 9 8 9 11 13 15 16 17 18 17 17 15 15
4 3 1 6 9 8 7 5 6 7 7 6 4 4 3 3 3 6 9 9 9 9 11 11 12 11 9 9 9 10 10 9 8 10 11 12 12 13 16 17 17 15 14
4 5 4 5 8 9 9 10 10 9 9 9 9 8 8 9 5 7 7 11 9 10 12 12 12 13 11 9 10 10 10 9 8 10 10 11 11 12 12 14 16 15 15
6 6 5 6 8 9 11 11 12 12 12 12 11 12 15 16 12 10 6 10 10 10 11 13 14 14 12 12 11 10 10 9 8 7 9 9 10 10 12 13 14 15 15
4 5 7 6 8 9 10 10 10 12 12 12 12 12 11 13 13 12 9 9 11 11 12 12 15 15 13 13 12 11 10 8 7 4 5 8 9 9 10 13 14 16 16
4 4 5 7 9 9 10 10 11 12 14 16 16 14 12 14 16 13 12 11 12 13 14 14 15 16 14 14 12 12 10 8 6 5 2 4 7 7 8 10 11 12 15
9 6 5 6 7 7 9 10 11 12 13 14 14 14 13 16 18 16 12 11 11 14 13 13 16 17 16 14 13 12 10 8 6 4 3 2 3 4 5 6 7 9 12
10 9 8 9 9 9 9 9 9 9 8 12 15 15 14 16 20 19 15 13 11 15 14 13 14 17 17 16 14 11 10 9 7 6 5 4 3 2 3 4 3 6 7
9 8 10 11 11 11 12 14 13 12 11 10 11 13 13 13 19 20 18 15 14 13 16 13 14 15 17 17 15 13 12 11 8 8 8 7 6 3 3 4 3 2 2
8 8 8 10 14 14 15 15 14 15 14 12 12 9 13 12 15 22 22 16 14 13 16 15 13 14 16 18 16 14 13 13 11 10 10 10 9 6 4 5 5 5 2
6 7 7 10 12 14 16 16 16 15 15 15 15 13 12 14 15 15 23 22 17 15 15 16 16 15 16 17 16 16 15 14 13 14 14 12 9 8 7 5 6 6 5
9 8 9 9 7 9 12 15 15 14 15 15 16 17 14 16 19 19 21 24 20 16 15 17 18 18 15 15 16 17 15 15 16 15 19 15 10 8 10 7 5 6 6
11 12 11 9 6 9 11 11 12 12 15 13 15 16 17 19 21 25 21 23 25 22 18 18 19 21 18 17 16 17 16 16 16 16 19 15 11 8 10 10 7 6 7
14 14 14 12 10 9 8 11 10 9 6 12 15 14 17 15 13 26 27 22 22 28 27 22 19 22 20 20 20 18 16 17 17 19 21 16 14 14 13 11 10 11 10
9 13 15 15 12 10 8 9 9 9 12 14 15 15 17 19 19 25 23 21 19 21 31 28 24 21 20 23 21 18 19 19 19 20 21 15 16 14 13 14 14 14 13
12 11 13 13 11 8 5 6 8 11 13 14 14 16 17 21 22 23 22 21 20 25 28 31 30 26 25 28 21 22 20 18 19 23 20 19 16 15 15 16 15 16 15
13 12 11 11 8 7 5 3 2 5 9 13 16 16 17 20 25 25 25 24 24 27 28 29 37 32 28 27 23 24 21 21 22 23 23 17 17 18 19 17 16 18 17
12 11 12 15 14 10 9 8 6 7 9 12 13 16 20 23 24 24 25 25 26 26 30 33 28 39 33 29 25 27 25 23 26 23 15 13 15 17 19 17 17 19 19
9 9 10 13 16 14 10 10 12 11 11 12 15 18 21 25 27 27 26 26 25 25 25 27 27 37 36 32 33 31 27 26 24 22 14 15 16 16 17 15 16 14 15
7 6 8 11 14 12 8 9 12 16 17 16 19 26 32 31 30 30 31 30 28 25 24 23 22 34 36 34 35 32 30 30 23 14 14 16 16 18 17 18 18 16 14
13 6 10 14 16 17 16 15 21 16 19 22 22 20 27 31 29 27 29 32 31 27 25 23 20 28 35 35 35 33 30 26 24 20 20 21 19 21 21 18 17 17 17
10 6 5 11 12 13 16 17 17 17 21 27 21 18 16 18 20 27 27 30 33 30 25 22 23 20 32 37 39 36 31 31 27 25 25 25 25 25 22 20 20 19 18
16 27 2 13 8 12 17 22 21 22 31 25 16 15 14 16 21 23 27 31 30 30 25 24 23 21 27 36 42 37 34 31 31 29 27 25 25 24 22 20 19 20 21
19 15 12 16 15 17 22 19 20 23 28 15 16 15 13 12 17 19 21 30 31 28 28 25 22 19 23 36 38 38 35 30 33 32 29 25 24 25 23 20 19 20 19
19 16 17 18 19 21 19 19 19 25 22 13 14 15 15 11 11 14 20 25 28 28 29 25 21 19 21 30 34 34 37 34 31 31 26 26 25 25 24 21 19 19 19
9 8 12 15 17 20 19 18 20 25 21 15 14 14 15 10 5 6 11 18 22 25 28 28 26 21 22 25 29 31 32 38 37 33 29 29 25 26 22 21 19 22 21

GFSSE_500_spd_009.txt.gz
Wind_Speed
3 2 3 5 5 4 4 1 1 4 2 2 2 1 1 1 2 3 5 6 7 8 8 10 10 8 6 4 7 7 8 7 7 10 13 15 16 18 18 17 16 15 14
3 3 5 3 5 5 4 4 3 2 3 2 1 1 2 1 3 3 6 6 8 8 9 10 10 9 8 8 6 7 6 7 7 6 10 11 12 13 15 17 17 17 16
3 3 4 3 4 5 5 4 5 5 5 5 5 6 6 5 3 5 6 7 8 9 10 10 11 11 8 9 8 8 6 7 7 6 7 9 10 10 14 16 19 17 18
4 3 3 3 5 5 5 7 8 9 10 9 10 10 9 11 14 7 6 7 9 9 11 11 12 12 10 9 9 8 7 7 6 6 7 7 8 10 12 14 18 17 16
3 1 2 4 6 6 5 7 7 10 13 12 11 11 11 12 13 9 9 6 9 9 11 12 12 12 12 11 10 9 8 6 5 3 6 6 6 8 10 11 14 16 17
8 2 1 3 4 4 6 8 9 10 12 13 12 13 13 13 13 12 10 11 13 11 11 12 13 13 13 13 12 10 9 7 6 3 3 3 5 7 7 8 11 13 15
6 5 4 2 3 5 8 9 9 9 11 13 14 15 15 14 14 13 12 12 12 14 12 12 13 14 14 13 12 12 10 8 7 4 2 1 2 4 3 5 7 9 13
7 6 5 3 4 7 9 8 7 8 8 8 12 13 14 14 15 15 15 13 12 13 18 13 12 16 16 15 14 12 11 9 7 6 5 3 2 1 1 1 2 4 8
6 3 4 5 8 11 11 12 11 11 9 7 7 10 12 13 15 18 17 16 14 13 15 13 13 15 17 17 15 14 13 12 9 8 7 7 5 2 1 3 2 2 3
6 5 6 8 9 12 13 13 14 12 13 11 10 7 9 12 15 17 20 19 17 14 14 15 13 14 17 19 18 16 15 14 13 11 11 10 8 6 3 2 5 4 4
8 6 5 7 9 11 12 14 15 14 15 14 13 10 9 11 13 17 22 23 19 15 14 16 17 13 14 17 18 18 17 15 15 13 12 11 10 9 6 3 5 6 5
8 7 6 7 8 11 12 13 15 17 17 16 14 14 12 13 15 19 20 24 23 19 16 15 18 17 17 16 18 19 18 16 15 14 14 15 12 11 8 7 5 5 5
6 7 7 6 7 10 12 13 14 16 16 17 18 19 16 17 17 21 22 23 23 21 19 16 18 20 19 16 17 18 17 18 18 17 18 18 15 13 11 11 7 6 6
4 6 8 8 5 6 8 10 12 12 14 13 16 16 17 19 17 20 27 28 26 26 20 23 19 21 22 20 19 17 16 16 17 17 16 15 13 12 11 9 9 9 10
8 8 11 13 9 6 5 7 9 11 13 13 14 17 16 17 18 20 23 31 27 24 25 28 27 23 22 22 21 19 18 17 18 18 17 15 18 15 14 13 12 12 12
11 10 11 11 8 6 5 3 6 9 13 14 15 15 18 18 20 20 18 26 28 25 25 22 32 29 24 23 22 21 20 18 19 18 18 18 17 15 18 14 12 13 13
10 10 9 9 8 6 3 2 3 5 7 11 15 17 19 19 20 24 22 26 30 27 25 24 27 32 31 27 25 24 26 17 19 18 16 17 23 18 18 17 14 14 15
6 5 6 5 5 5 4 1 1 4 7 11 14 17 19 20 21 22 25 28 31 30 30 27 28 29 32 34 28 24 24 22 20 20 17 20 25 14 14 16 16 15 15
7 4 6 6 6 3 4 6 6 8 10 12 14 16 20 22 23 25 27 30 31 31 30 29 29 31 28 33 34 28 26 26 23 21 18 23 16 16 15 14 15 14 15
14 10 9 9 10 7 6 9 13 17 14 16 17 21 25 29 32 33 33 32 32 31 30 29 30 28 34 37 39 29 28 27 24 23 19 17 18 18 18 17 13 16 16
28 19 13 9 11 7 6 8 11 16 18 20 23 27 27 26 27 28 31 34 35 35 33 31 29 24 25 30 35 35 33 31 29 25 24 18 17 16 19 18 16 17 15
20 16 21 10 12 4 3 7 11 13 14 21 23 22 20 23 22 18 20 28 33 35 35 31 28 26 22 25 33 33 33 32 31 27 23 18 19 19 20 19 19 20 20
17 17 26 12 3 1 6 8 11 13 19 23 13 11 12 14 19 19 20 22 29 33 33 31 28 25 24 22 35 34 35 35 32 28 25 23 22 21 22 21 22 23 22
16 14 17 4 3 6 8 8 11 14 22 18 10 9 10 13 14 19 22 24 26 31 31 31 28 26 23 22 26 35 37 36 32 29 28 29 29 25 24 23 24 24 23
16 11 12 9 8 10 11 12 11 14 22 16 11 12 12 11 14 15 19 21 23 30 29 28 27 25 24 23 26 30 32 37 35 31 28 33 29 27 24 23 27 25 24
16 15 15 13 12 8 7 7 10 16 22 21 12 13 12 10 10 12 12 16 18 25 29 26 28 26 23 20 21 26 28 30 33 35 30 28 30 30 27 24 28 24 25

GFSSE_500_spd_012.txt.gz
Wind_Speed
2 4 2 6 7 6 5 2 3 6 6 4 7 3 4 1 2 1 0 2 3 4 5 6 6 5 6 7 10 8 8 11 11 13 14 16 18 17 16 15 16 14 14
2 3 1 3 6 5 3 3 2 3 4 4 5 5 3 4 2 1 2 2 3 4 5 7 6 5 6 7 8 9 7 7 10 11 10 12 13 14 15 15 17 17 17
6 2 2 3 5 6 7 7 5 4 4 4 2 2 2 2 1 2 2 4 4 4 6 7 8 7 6 7 7 8 7 7 9 9 9 10 12 11 14 17 18 19 18
6 3 2 3 4 6 8 7 7 7 8 8 7 6 4 6 8 12 6 2 4 5 6 7 9 9 8 7 7 8 8 8 8 9 8 8 11 10 12 15 17 18 19
3 3 3 3 3 6 6 5 6 7 8 10 10 9 8 6 6 7 4 4 3 5 6 7 10 10 10 8 8 8 8 7 7 6 7 7 7 9 10 11 15 18 19
4 3 2 3 4 6 7 6 7 7 6 7 8 9 11 11 8 6 5 6 9 4 6 7 10 11 11 10 10 10 9 7 5 3 3 5 6 6 8 9 12 15 16
5 3 1 2 4 5 7 6 7 6 6 7 8 8 9 9 12 9 6 7 8 12 7 6 11 14 13 13 12 10 9 7 5 3 2 2 3 3 5 6 7 10 12
8 5 4 5 5 6 6 5 6 5 4 5 8 9 8 8 11 11 8 8 8 9 12 11 10 14 15 15 14 12 10 8 6 4 4 3 1 1 2 2 2 5 8
6 4 5 6 7 9 9 9 8 7 5 4 6 8 9 10 11 12 12 11 10 10 10 13 18 9 16 16 15 14 12 9 8 7 5 5 4 1 1 2 2 2 5
8 5 7 9 9 11 12 12 11 10 8 8 8 8 8 9 10 12 13 14 14 12 10 12 11 11 15 18 17 16 13 13 11 9 6 7 6 6 4 3 4 4 4
10 7 6 8 10 10 11 13 12 12 12 13 11 9 9 9 11 12 13 16 17 15 13 12 13 13 14 18 18 17 16 15 13 11 9 8 7 8 8 5 4 5 5
12 10 10 10 10 10 11 13 13 13 14 15 13 12 12 11 12 13 14 16 18 19 16 13 12 16 17 13 18 18 18 17 13 14 11 11 10 10 11 7 5 4 5
12 11 10 8 10 10 12 12 12 12 14 16 15 15 16 16 15 15 17 18 19 21 19 16 16 16 17 16 16 17 19 18 15 15 13 14 13 17 11 7 9 6 5
10 8 10 8 8 8 9 10 12 12 13 14 14 12 15 18 15 17 20 23 23 24 22 20 19 18 17 19 18 18 19 17 16 15 15 14 12 14 15 10 10 6 8
14 10 8 7 5 4 4 5 9 12 12 15 16 13 21 19 16 17 20 22 29 28 26 25 22 24 21 20 21 19 17 18 18 15 14 14 12 11 14 13 8 8 10
22 15 9 6 4 5 6 5 5 9 11 12 14 15 17 17 19 18 22 23 24 32 28 25 26 26 30 23 22 23 21 20 19 17 16 15 13 13 10 12 11 10 10
29 20 12 9 7 5 4 4 5 6 8 11 13 14 16 16 18 20 20 23 25 26 29 27 25 24 29 29 23 24 24 21 22 19 15 14 13 14 16 16 15 13 11
36 23 13 9 5 7 5 4 4 4 6 10 14 17 18 19 19 21 22 22 26 26 29 30 28 25 24 32 28 24 24 26 22 18 16 16 14 15 16 17 13 12 13
38 30 21 15 14 11 9 6 6 9 11 14 17 20 22 22 22 23 24 25 26 29 31 33 30 28 26 28 32 28 27 27 22 17 18 17 13 14 15 16 13 12 12
31 31 22 22 20 13 9 8 10 11 12 13 16 20 23 26 27 26 29 30 29 29 30 32 33 30 26 30 27 26 29 30 26 21 20 17 19 20 19 18 14 11 14
36 31 28 25 24 10 12 7 10 13 15 16 17 24 27 29 29 29 27 28 30 34 32 33 32 30 26 25 27 30 32 35 29 25 22 18 20 16 18 19 15 16 15
23 19 23 22 17 13 3 8 10 13 16 18 24 27 21 19 19 21 23 24 24 28 33 34 33 30 26 25 24 27 31 35 33 28 24 21 23 24 19 18 17 16 16
13 17 6 30 17 7 4 10 12 14 16 19 24 20 19 18 19 19 21 23 20 22 29 32 34 32 28 26 27 23 26 30 32 28 24 23 21 20 19 23 23 21 17
18 12 15 8 5 3 7 13 12 13 14 21 20 15 17 19 18 19 19 21 23 27 27 31 32 32 28 27 26 22 29 29 29 29 26 26 25 24 25 24 23 23 22
13 14 12 6 9 5 10 11 13 11 16 20 19 16 16 17 18 15 17 19 23 27 29 32 29 32 29 27 25 22 22 31 32 31 30 29 27 29 31 28 27 24 22
12 11 11 12 8 6 7 5 7 11 15 17 17 8 8 9 11 10 12 13 18 23 26 29 28 30 28 27 26 22 23 23 29 32 34 33 30 28 33 32 30 23 24

GFSSE_500_spd_015.txt.gz
Wind_Speed
2 3 4 6 6 6 7 6 7 9 6 2 7 7 7 5 5 3 3 4 2 4 5 4 5 4 5 8 7 9 12 12 13 15 14 15 16 16 15 16 15 15 15
2 5 4 6 8 8 8 7 6 5 7 7 7 7 5 4 4 4 4 3 3 3 5 6 5 6 5 7 7 6 11 10 10 11 11 12 15 16 15 17 17 17 16
2 4 5 7 8 11 9 9 8 8 8 8 8 5 2 2 2 4 1 4 4 4 6 6 6 6 7 7 7 7 9 10 9 10 11 11 12 14 15 16 18 19 17
4 0 2 4 6 8 7 8 9 8 7 6 4 3 2 3 5 7 8 3 4 4 5 7 8 8 8 8 8 7 9 11 10 9 9 11 10 12 13 16 18 18 19
6 3 2 4 5 6 6 8 7 8 9 9 8 5 4 3 4 5 3 7 5 3 3 7 8 9 8 8 9 8 9 10 9 9 9 9 9 10 12 12 15 17 17
5 1 1 3 5 7 8 7 7 7 6 7 8 8 7 5 4 4 3 2 4 5 4 5 8 10 10 9 9 9 9 8 7 7 8 8 7 7 8 10 11 12 14
7 2 2 3 4 8 7 6 6 4 5 3 4 6 6 7 5 4 4 5 3 3 5 4 6 9 11 10 10 9 9 7 7 6 5 6 5 4 4 5 6 8 10
7 4 4 5 5 6 6 5 5 4 3 2 3 3 5 7 7 6 6 8 6 4 5 9 6 6 10 11 12 12 10 9 6 5 4 4 3 1 2 1 1 4 6
7 4 5 6 7 8 9 9 6 6 5 4 5 2 3 6 7 8 7 8 7 5 6 7 8 13 10 10 13 13 12 10 8 6 4 3 2 1 3 2 3 1 4
9 6 5 7 8 10 11 13 11 9 8 9 8 5 3 4 7 8 9 9 10 9 7 7 8 7 13 12 13 14 13 13 10 8 5 4 4 5 5 5 4 4 3
9 8 7 7 10 11 11 12 13 13 12 6 13 8 7 7 8 10 10 10 12 12 11 10 10 12 12 11 16 15 15 14 12 11 8 8 6 7 8 8 5 3 2
9 8 7 8 9 9 10 11 13 13 13 14 14 11 11 11 9 11 12 12 13 15 14 13 12 13 12 14 21 18 18 18 15 14 12 10 8 10 10 12 6 3 2
12 15 11 8 14 10 9 10 9 10 13 14 15 15 15 14 13 13 15 15 14 16 17 16 13 12 15 20 15 18 19 19 18 15 14 12 10 12 15 13 6 6 3
14 11 12 13 13 12 9 8 9 9 10 13 17 17 18 15 7 12 18 18 19 18 18 19 17 14 14 14 14 15 21 19 20 16 15 14 13 10 10 16 11 13 6
18 12 9 11 14 10 7 6 6 8 10 11 15 17 17 23 11 16 18 22 21 23 22 22 19 18 16 15 16 21 17 21 17 15 15 13 13 13 9 12 11 4 5
17 10 5 7 10 12 8 8 5 7 8 9 11 15 16 12 11 20 21 21 23 24 26 26 25 23 19 20 18 20 19 14 16 17 16 16 15 14 13 11 10 6 6
24 13 6 8 9 10 11 9 9 7 7 7 8 10 12 13 17 21 24 24 24 24 24 27 28 25 25 20 23 21 22 21 20 16 17 17 15 14 15 14 12 9 10
28 10 12 10 13 10 11 12 11 8 8 8 11 12 14 15 16 20 22 23 25 24 25 24 29 30 26 23 19 26 24 23 21 20 22 19 16 14 14 16 14 15 13
32 22 12 16 16 14 17 12 14 14 13 15 17 18 18 19 21 22 24 25 26 24 26 27 27 29 27 25 22 25 30 24 22 21 23 25 15 16 14 18 16 16 14
33 29 30 25 22 19 15 14 15 17 15 16 18 18 19 21 24 25 27 30 30 29 28 29 30 30 30 28 26 25 28 27 27 23 22 22 17 16 15 13 15 15 13
39 31 28 26 27 22 15 13 11 16 17 17 21 22 24 27 28 26 25 30 35 35 34 31 31 30 30 30 28 27 27 28 32 30 25 25 21 18 17 19 20 17 18
18 24 27 15 25 21 13 9 11 15 17 18 21 26 28 24 24 24 22 22 25 25 26 32 31 31 30 27 27 28 26 28 28 28 29 30 24 21 18 19 19 19 18
20 22 28 2 8 13 15 8 11 15 17 19 25 29 24 20 22 22 21 23 22 23 23 25 29 29 30 28 26 26 24 22 27 29 34 31 29 24 21 28 20 20 21
16 17 16 15 4 5 8 9 12 15 16 18 24 27 24 21 23 24 22 23 24 23 22 22 21 25 28 28 27 26 25 22 23 27 32 30 29 25 21 22 17 19 21
17 14 11 6 3 9 8 10 10 10 15 18 21 21 18 20 24 21 21 22 21 21 24 27 23 22 25 28 29 27 26 22 25 26 27 30 29 26 24 25 27 25 24
12 13 12 12 7 7 8 6 5 9 13 19 19 18 17 20 19 14 17 19 18 19 23 24 24 24 26 26 28 26 24 24 21 28 28 30 30 29 28 26 29 32 32

GFSSE_500_spd_021.txt.gz
Wind_Speed
3 5 6 7 7 7 6 6 5 4 6 5 6 7 4 4 6 8 10 10 8 8 8 7 8 9 11 10 10 10 12 13 15 15 16 16 18 17 16 15 14 13 12
4 4 5 7 8 6 5 4 3 5 7 6 7 7 5 3 4 8 9 9 9 8 9 9 8 7 11 11 10 9 9 9 11 12 15 15 17 18 17 16 16 14 13
4 5 6 6 5 5 4 4 3 4 5 5 5 5 5 4 9 9 8 9 8 8 9 8 8 7 7 12 9 9 8 8 9 10 11 14 15 16 16 16 16 15 14
4 5 6 5 5 5 6 5 4 4 5 5 5 5 5 5 8 7 5 6 9 9 11 10 9 7 8 10 8 8 9 8 8 9 9 11 13 15 14 13 14 14 13
3 4 6 5 4 5 6 7 7 8 9 9 9 9 8 7 6 4 5 12 8 10 11 11 11 10 9 10 11 8 9 8 8 8 9 9 10 11 12 11 12 12 11
6 4 4 4 4 5 6 8 9 10 12 13 13 13 14 12 10 7 6 7 16 12 10 12 13 12 11 11 12 12 10 9 7 7 7 8 8 8 9 9 9 9 9
3 3 3 4 4 4 5 7 8 10 10 11 10 11 12 13 13 10 7 9 14 11 10 11 14 14 14 13 13 13 12 9 8 7 7 6 5 5 5 5 5 6 7
4 1 4 4 5 4 6 6 8 10 10 11 10 9 10 11 11 10 10 10 12 19 14 11 11 14 16 15 16 16 15 13 10 8 7 6 5 4 3 3 1 2 3
2 2 2 4 4 4 6 6 8 9 9 10 10 9 9 10 10 11 12 12 12 12 15 15 12 14 16 16 16 16 16 16 13 10 9 7 7 5 5 5 5 4 1
3 1 3 3 4 6 6 6 7 9 9 11 11 11 10 9 10 11 11 12 13 13 13 17 12 19 16 18 18 21 17 16 16 15 11 11 8 7 7 6 5 8 5
3 1 1 5 7 8 7 7 9 11 10 12 13 14 13 11 10 12 12 13 15 16 14 13 14 14 20 18 19 18 21 18 16 13 6 11 10 9 9 10 9 9 9
0 2 3 5 5 8 8 8 10 10 10 10 13 15 13 14 13 13 13 13 15 15 17 16 16 15 14 23 23 20 19 21 19 17 16 15 12 11 11 11 14 13 12
11 9 6 6 5 9 7 10 11 13 12 9 13 13 16 15 15 16 16 16 15 14 16 16 18 17 13 19 20 22 20 17 21 20 20 18 16 14 13 14 17 17 15
9 10 10 9 8 10 8 7 10 12 11 13 10 13 15 16 15 19 20 19 17 17 19 20 18 20 16 16 14 11 18 23 24 22 21 21 18 15 16 14 14 13 18
15 9 11 10 10 10 9 7 8 6 15 11 8 10 10 10 11 17 22 25 15 20 17 16 10 21 18 17 16 13 16 18 23 25 24 24 20 17 16 15 11 12 14
18 17 18 9 10 9 11 10 7 3 3 9 7 6 6 6 8 15 19 26 21 19 23 16 15 20 21 19 19 21 21 15 22 26 27 28 22 19 16 15 14 13 7
23 24 12 5 8 9 9 11 10 9 8 7 5 5 7 8 11 11 14 12 18 21 22 20 4 20 18 21 22 21 21 19 17 15 24 23 22 18 17 15 17 15 8
24 19 22 6 7 9 10 11 9 10 9 9 12 12 15 16 14 13 15 16 19 18 19 22 18 18 24 24 25 25 23 23 20 19 18 16 18 17 17 16 16 14 13
22 22 18 18 12 13 18 14 14 10 10 12 13 14 14 16 18 19 18 20 22 23 22 21 22 21 21 22 22 26 25 22 21 22 21 20 20 19 20 19 18 17 14
25 21 21 26 21 19 17 16 14 12 11 12 10 14 14 15 17 20 23 25 27 27 27 28 26 24 21 21 23 27 25 26 22 23 27 24 25 20 16 19 25 21 18
24 20 23 27 25 14 17 16 12 10 9 12 12 16 16 18 22 23 23 20 21 22 23 22 25 24 24 24 24 26 28 27 24 21 27 26 32 24 21 18 25 19 16
21 19 21 25 27 12 19 16 12 10 9 12 14 15 18 21 23 23 19 19 19 19 21 22 21 21 24 29 28 28 29 30 28 25 24 29 29 27 22 20 21 19 18
22 17 19 23 21 13 20 14 6 5 8 11 12 17 21 21 21 19 18 17 18 18 19 22 22 23 22 27 31 30 29 29 30 27 26 26 30 30 26 26 22 23 21
21 17 18 20 18 11 5 10 4 7 9 10 14 20 22 19 20 17 15 16 15 14 18 21 21 22 22 21 23 30 29 28 28 27 27 26 30 30 29 30 26 26 25
20 16 15 17 15 9 6 3 4 6 8 13 17 22 24 19 19 17 15 16 15 16 16 18 20 20 21 19 20 25 27 28 27 25 25 24 24 27 31 32 31 28 25
18 15 12 15 14 9 5 7 9 9 10 14 19 22 21 17 17 16 16 17 17 17 16 16 15 17 18 24 21 22 25 27 26 25 26 25 23 23 24 18 23 29 18

GFSSE_500_spd_024.txt.gz
Wind_Speed
7 6 5 5 5 4 5 6 7 5 5 6 6 8 7 6 6 7 6 6 7 7 7 6 8 8 9 12 12 12 13 13 16 17 17 17 17 18 16 15 14 14 13
6 5 4 4 6 5 5 5 4 4 7 7 8 9 7 6 8 8 8 8 10 8 8 6 7 8 9 10 11 10 11 10 13 15 16 15 17 18 17 16 17 14 14
5 5 5 5 6 6 4 2 2 4 5 5 5 5 4 3 2 12 7 9 13 10 9 8 7 6 11 10 10 9 8 9 9 12 14 14 15 17 17 15 16 15 14
7 6 6 6 6 5 5 3 3 4 4 4 3 3 2 2 3 6 8 10 11 11 9 10 8 8 6 12 9 9 7 8 8 10 11 11 12 15 16 14 13 13 13
6 6 5 5 6 5 5 3 4 6 7 7 7 7 7 7 5 6 9 10 6 7 9 9 10 9 9 7 8 8 9 7 7 8 7 9 10 12 14 13 12 11 11
5 5 5 5 4 5 5 6 6 6 7 9 10 11 12 12 11 10 7 7 9 12 10 12 13 11 9 8 8 6 8 7 7 6 6 5 6 8 10 10 10 9 10
4 3 3 5 5 4 6 6 6 7 7 8 8 9 9 11 13 13 12 9 8 12 10 12 14 13 12 11 11 12 10 9 8 6 6 5 4 4 5 6 6 7 7
3 3 3 4 5 4 5 6 7 7 9 8 9 8 8 9 9 10 10 9 9 11 11 13 14 15 14 12 13 14 13 11 9 8 8 8 5 3 2 1 1 2 3
5 3 4 3 5 6 7 8 8 8 8 9 9 8 8 10 9 8 10 10 11 13 19 8 12 13 14 15 15 15 15 14 12 12 12 10 8 6 5 3 4 3 2
2 3 4 4 5 6 8 9 10 10 9 11 10 8 9 9 8 7 8 10 11 11 14 15 20 14 14 16 18 19 18 17 16 14 14 12 10 9 6 4 5 4 5
8 8 5 6 7 7 9 11 11 9 11 12 11 11 9 10 9 7 7 9 11 13 14 13 19 18 20 19 21 20 20 19 20 18 17 14 12 10 8 7 7 8 8
7 7 9 8 8 8 9 12 13 11 10 11 12 11 10 10 10 10 11 12 11 13 16 16 16 19 19 20 23 25 19 22 23 19 15 12 13 12 8 8 9 9 12
15 12 10 10 11 9 12 12 13 16 14 15 11 10 5 11 14 12 14 15 14 14 16 19 20 22 19 17 20 26 20 18 26 21 19 14 16 15 10 9 11 12 13
15 15 13 11 13 12 10 12 11 13 16 13 13 10 9 10 14 15 15 18 17 17 17 19 21 23 20 18 15 19 25 20 21 24 21 21 19 17 14 12 11 10 13
15 19 15 11 13 15 11 18 5 16 13 7 5 7 5 9 6 9 11 16 21 19 17 21 26 25 21 19 16 12 22 20 24 24 23 23 22 19 18 15 12 13 14
20 17 20 13 11 13 10 9 11 7 8 2 1 3 1 3 5 8 13 12 20 21 17 18 26 23 17 18 14 14 19 13 17 29 27 27 25 24 22 17 15 16 14
23 19 18 17 12 13 12 9 11 6 0 0 3 2 3 5 8 11 14 12 8 14 21 22 22 27 28 10 13 15 20 22 16 22 22 27 30 25 27 21 17 16 14
23 21 19 16 16 16 13 13 10 7 6 5 3 5 5 5 7 8 13 13 12 17 16 14 16 23 12 13 14 16 22 22 22 20 19 18 23 23 21 19 17 15 14
26 25 21 20 22 15 15 17 13 10 5 8 9 9 9 9 11 14 15 19 15 15 21 19 19 21 14 16 15 22 17 24 22 22 21 18 16 19 21 20 18 17 16
23 26 25 27 27 23 20 14 17 9 4 9 6 8 4 10 11 13 15 16 21 19 16 19 20 23 24 18 17 21 23 24 20 18 18 19 22 19 22 18 18 19 18
24 25 25 26 29 30 15 13 14 8 1 7 9 11 2 13 13 14 14 13 14 18 18 15 18 24 13 16 18 25 21 21 21 21 19 22 25 27 25 24 20 19 22
27 27 27 26 25 32 12 14 8 6 1 5 8 9 9 13 14 14 13 11 10 13 16 19 18 18 20 16 21 26 22 21 24 23 23 24 22 27 31 33 24 19 19
26 24 26 24 22 25 5 7 9 6 1 6 7 12 17 16 14 14 13 10 10 9 12 16 19 18 19 21 20 22 26 25 24 25 28 26 24 24 29 28 26 27 22
25 23 22 20 18 17 11 6 4 2 3 3 7 12 17 19 15 13 14 13 12 11 11 13 16 18 18 20 19 21 24 28 25 24 27 26 23 24 26 26 28 27 26
24 22 17 15 15 12 8 8 7 8 2 5 9 13 16 16 15 14 13 15 17 17 15 14 15 17 18 18 18 15 18 22 25 25 24 24 22 22 23 24 20 18 28
23 24 18 14 12 11 8 7 6 4 4 6 10 13 15 13 13 12 12 15 18 19 16 12 11 14 15 15 15 16 14 19 20 24 24 21 22 21 19 20 23 30 29

GFSSE_500_spd_027.txt.gz
Wind_Speed
6 5 4 1 3 5 5 6 7 7 4 3 4 5 4 4 4 5 7 7 7 6 6 4 5 8 7 10 11 11 12 14 14 17 18 18 17 18 19 17 16 14 14
6 5 4 2 4 6 6 6 5 3 3 4 5 7 9 8 8 7 7 7 9 7 7 5 5 6 7 7 8 8 10 12 13 15 16 18 17 18 20 17 16 14 14
7 8 7 6 5 5 4 4 3 2 2 4 4 6 6 3 3 8 5 5 10 4 7 6 5 6 7 7 6 5 7 9 10 13 14 15 15 15 19 17 16 15 13
8 7 6 5 5 5 3 3 3 3 2 3 3 3 3 1 0 1 4 6 5 9 9 8 7 4 8 7 7 6 6 7 8 9 11 13 13 12 15 16 15 14 13
6 6 4 4 4 4 4 4 3 4 5 6 5 5 4 3 2 3 4 5 4 7 8 6 10 5 6 9 6 6 5 6 5 8 9 9 9 9 12 13 13 12 12
6 5 5 3 3 3 5 5 5 5 6 6 7 8 9 9 7 6 6 4 5 9 11 11 12 11 9 10 7 4 7 7 6 1 4 5 5 4 7 9 10 10 10
4 4 4 3 3 3 4 5 5 5 6 6 5 6 8 8 9 11 11 10 9 9 15 11 11 10 12 12 15 10 8 9 9 7 5 4 3 2 2 4 6 7 8
5 5 4 3 3 3 5 4 5 7 6 6 6 7 6 6 5 7 8 9 9 9 12 10 14 14 12 13 15 15 14 12 9 8 8 6 6 5 2 2 2 4 5
6 6 5 4 4 6 5 4 6 9 9 7 7 8 8 7 5 6 7 9 10 9 11 7 14 13 16 17 16 16 16 16 12 8 8 7 8 6 4 4 3 2 3
9 8 8 6 6 8 8 6 6 8 11 10 9 9 9 7 5 5 7 9 10 10 13 18 15 14 15 17 18 18 18 17 15 13 10 10 10 7 5 6 5 3 2
16 14 10 7 8 9 10 9 7 9 9 12 12 12 11 11 8 6 5 8 10 12 13 13 14 17 17 16 18 20 19 19 18 16 15 14 12 11 7 9 8 6 4
15 14 14 12 10 9 11 11 11 12 9 9 11 13 13 12 8 8 8 9 9 10 11 14 15 15 19 18 20 22 22 21 20 20 20 18 16 13 9 9 10 8 7
17 16 14 14 14 10 13 13 12 13 10 13 12 9 13 12 13 9 8 10 12 11 11 11 14 16 18 20 23 23 26 24 23 22 22 14 10 14 12 11 12 11 12
18 18 18 15 16 15 14 16 16 17 9 7 10 12 14 13 9 5 9 7 13 15 15 13 12 14 17 21 20 25 24 25 24 21 25 20 15 18 14 15 13 14 15
20 18 23 21 16 16 14 13 18 11 4 10 9 7 9 6 7 3 2 5 11 16 16 16 15 16 17 21 24 23 25 25 27 22 21 23 19 18 18 17 16 15 18
21 22 22 20 17 15 12 12 12 8 3 4 6 4 6 4 3 3 3 8 8 9 14 17 13 14 21 15 29 27 24 21 22 24 25 25 24 22 19 20 17 18 18
23 23 22 21 19 19 13 12 10 7 7 4 4 5 5 2 5 4 5 5 8 5 8 13 20 20 24 23 23 23 25 22 18 13 16 27 27 26 23 17 19 21 16
25 21 23 21 24 24 19 21 16 11 6 5 3 4 4 5 5 6 8 9 9 9 9 10 16 14 15 11 19 25 23 21 21 16 15 20 23 24 24 25 24 19 18
25 23 22 23 21 24 26 29 17 12 5 5 6 7 7 6 7 10 11 12 12 12 15 15 16 16 17 14 13 16 18 17 23 20 19 21 20 19 17 20 21 18 18
23 24 23 26 25 24 27 26 9 11 8 4 2 3 7 7 8 10 15 15 13 15 15 14 15 16 15 15 22 20 18 19 18 21 23 23 22 17 16 18 18 18 17
22 24 26 27 26 26 32 16 10 16 11 7 1 2 6 6 10 13 13 13 12 15 13 15 14 14 18 20 16 24 17 18 18 22 24 20 20 17 20 20 20 20 18
24 26 26 24 24 21 27 7 6 11 10 4 2 2 6 7 5 6 10 11 10 10 13 15 14 16 17 22 16 11 15 18 18 21 23 21 20 20 17 24 24 24 24
23 25 25 22 22 18 22 4 9 8 6 3 0 3 9 11 7 4 5 5 7 8 12 13 14 17 17 16 16 18 16 19 19 22 24 22 21 23 20 19 24 28 31
26 25 27 23 19 15 14 8 6 5 5 3 5 7 10 9 5 4 4 3 5 8 10 13 14 16 17 19 17 18 20 21 20 22 21 25 25 26 23 21 22 26 29
23 25 24 19 16 13 12 10 9 6 3 4 5 7 11 10 7 8 6 6 7 10 11 11 11 12 15 17 19 19 17 17 18 24 22 21 22 22 23 23 23 23 27
23 22 22 17 11 7 6 5 5 5 5 7 9 9 8 8 7 7 5 7 11 10 9 10 10 10 12 15 14 17 16 12 14 16 22 21 20 18 20 20 21 22 24

GFSSE_500_spd_030.txt.gz
Wind_Speed
8 7 5 3 1 2 2 3 5 4 3 2 2 2 1 1 1 3 5 5 5 5 3 5 5 4 8 8 8 9 13 13 13 12 15 17 17 15 16 16 15 13 13
9 8 6 5 1 1 4 4 4 3 3 3 3 4 4 3 3 5 6 4 4 4 4 3 6 4 4 7 6 7 9 11 12 13 15 17 18 15 15 17 15 13 12
9 7 4 3 1 1 3 2 2 2 3 3 3 4 3 2 1 4 6 6 5 4 4 3 4 5 5 5 6 5 5 8 10 11 13 15 17 15 14 15 15 14 12
8 6 5 3 2 0 2 2 1 1 2 1 1 1 2 2 2 3 4 2 4 9 5 8 5 4 5 7 6 6 4 5 8 8 9 12 14 13 12 13 13 13 13
6 5 5 4 3 2 1 2 3 4 4 3 3 3 3 2 1 1 0 3 4 7 7 10 10 7 7 8 6 6 5 5 6 6 6 8 9 10 10 11 12 11 11
6 6 5 4 4 1 2 3 5 5 5 5 6 8 8 7 6 6 4 3 5 6 10 11 10 12 9 9 11 7 8 6 7 4 4 3 5 6 7 8 9 10 9
6 5 4 4 2 1 2 4 5 5 4 4 5 6 7 8 9 10 11 9 9 10 10 12 10 16 16 14 10 10 8 8 8 8 7 4 1 2 3 4 6 8 8
8 7 6 4 4 4 3 3 5 4 5 6 7 6 4 5 6 8 9 11 10 11 11 11 13 11 12 13 15 15 12 11 9 9 6 6 3 2 2 3 4 5 6
13 9 6 6 7 7 6 5 6 7 5 7 7 6 5 5 7 9 10 10 9 9 11 11 12 15 15 14 13 16 13 12 11 11 8 9 5 5 4 3 2 3 4
14 12 9 7 7 6 8 8 9 8 7 8 9 8 8 8 8 8 10 10 11 11 12 13 9 15 13 15 15 16 17 15 14 11 10 11 7 7 6 5 3 4 4
16 14 11 11 11 9 8 9 8 7 10 9 11 10 11 11 10 9 10 9 10 11 11 12 15 17 14 14 16 17 17 16 17 16 16 14 10 9 8 8 5 5 6
21 19 18 15 13 11 10 9 10 10 11 12 12 12 12 12 13 12 14 11 10 11 11 13 14 16 16 18 17 17 18 18 20 19 19 17 15 13 10 9 7 7 8
23 21 21 19 15 12 9 9 9 11 14 16 15 12 12 12 15 17 16 15 13 12 11 11 15 17 18 16 18 19 16 18 21 22 22 22 19 20 15 12 9 8 9
20 22 21 19 19 16 8 9 8 10 14 22 10 12 13 10 9 8 13 14 11 12 12 12 13 16 18 19 19 20 21 19 18 27 24 26 24 16 14 14 12 10 11
19 18 20 18 18 19 17 11 12 10 5 9 12 8 10 8 9 7 5 6 7 14 14 14 15 15 17 17 18 20 22 22 17 23 28 24 25 22 20 16 14 15 14
24 17 17 16 17 16 19 14 14 13 6 2 7 7 7 6 7 5 3 6 9 8 13 15 17 16 14 16 18 16 25 22 20 23 28 27 24 25 22 19 19 17 15
25 22 17 16 18 17 18 18 18 14 9 8 8 9 9 9 8 5 4 7 9 9 8 13 17 22 21 19 20 26 26 28 26 22 23 29 27 26 24 23 21 20 16
23 22 23 19 20 14 18 17 18 12 15 12 9 10 8 6 7 8 7 9 10 10 13 13 14 18 19 19 20 14 21 23 25 22 19 21 26 28 27 27 25 23 23
24 25 23 24 22 22 22 23 14 9 16 11 10 10 8 11 10 10 13 13 12 12 14 18 17 17 18 18 19 16 20 28 23 20 25 20 20 21 23 22 23 23 22
23 23 22 18 23 25 21 22 5 5 14 9 8 6 4 8 10 12 13 14 12 12 16 15 16 19 20 21 20 18 15 17 19 21 28 24 24 20 21 19 18 21 21
23 23 22 21 23 24 21 20 9 11 13 10 8 5 2 3 9 13 11 12 12 12 12 16 15 18 20 21 20 20 22 26 22 23 22 22 23 22 22 21 21 22 21
22 22 20 22 23 21 22 16 4 12 18 9 5 2 5 8 10 10 10 10 10 12 12 12 16 17 19 21 21 23 18 22 23 21 20 21 24 21 22 21 23 24 24
22 23 22 21 21 20 20 9 13 16 12 6 6 5 7 10 10 8 10 10 11 10 10 13 13 16 20 20 19 18 17 13 20 21 21 20 20 22 24 22 20 23 28
21 22 22 20 17 14 15 15 10 6 7 2 3 6 8 11 10 9 10 10 8 11 12 13 15 17 19 19 18 18 18 17 19 20 22 21 20 25 25 22 23 23 24
23 22 22 19 13 10 7 6 6 3 5 4 5 7 9 8 8 6 6 6 8 10 11 10 10 12 16 17 17 19 19 20 19 20 24 21 20 23 25 25 24 25 24
22 22 22 20 13 12 9 6 4 4 4 5 7 7 8 7 6 5 7 6 7 8 7 8 7 7 11 13 15 16 19 21 20 18 19 22 20 19 20 22 23 23 21

GFSSE_500_spd_033.txt.gz
Wind_Speed
8 7 5 1 1 3 3 2 1 2 3 2 4 5 4 2 2 4 5 3 3 3 4 5 3 7 9 11 13 12 12 14 13 15 14 15 17 15 13 13 15 13 12
5 5 3 2 1 1 1 1 2 1 1 2 3 3 1 2 3 4 5 4 3 3 3 4 5 5 8 8 10 11 11 13 14 15 15 14 16 15 14 13 16 14 13
5 5 4 3 3 3 2 3 3 3 1 1 1 1 1 0 1 3 6 4 3 4 4 2 3 3 6 6 6 9 10 9 11 13 14 14 15 14 13 14 16 14 12
5 5 5 4 4 4 1 2 1 3 3 3 2 2 2 1 2 3 3 3 5 8 3 7 7 4 3 5 4 5 8 6 7 10 12 12 13 14 14 13 13 15 12
2 4 5 6 5 3 1 1 1 1 2 2 3 3 3 3 2 2 2 4 4 7 7 7 9 7 6 6 5 3 6 7 5 6 7 8 10 11 12 12 12 12 13
6 5 6 5 3 2 0 1 1 2 3 4 6 6 6 6 6 5 4 3 4 6 8 9 10 7 7 9 7 5 5 6 4 4 5 4 6 8 9 10 11 11 10
9 8 6 4 4 4 4 3 3 4 3 3 3 4 5 7 9 11 10 8 7 8 8 9 11 11 12 8 11 6 6 6 7 4 3 3 4 4 5 6 7 8 9
11 10 7 5 4 5 6 6 5 6 5 4 3 4 5 6 6 7 9 10 11 11 12 11 11 10 14 15 11 9 6 7 7 6 4 3 1 2 3 5 5 6 6
14 13 11 7 4 3 3 4 6 7 8 8 5 6 6 6 6 6 8 9 10 10 10 12 10 11 10 6 10 11 9 10 7 6 5 5 5 3 1 5 5 6 6
21 17 14 10 7 5 5 6 6 7 8 9 10 8 8 8 7 7 7 9 11 11 11 12 9 12 11 11 11 10 12 10 12 10 9 8 7 7 4 5 5 4 5
23 20 18 13 10 8 7 8 7 7 7 8 9 12 12 11 10 10 9 8 11 12 12 14 15 11 13 10 12 11 14 14 13 15 14 12 9 11 8 7 6 6 5
22 21 20 16 13 11 9 9 9 8 8 6 9 12 14 15 13 13 13 12 11 13 12 13 16 14 17 15 14 15 17 17 16 16 17 16 15 14 12 11 8 7 6
20 18 18 17 16 14 12 9 8 9 9 10 10 13 12 14 16 14 14 15 14 14 13 12 15 17 17 17 16 20 18 19 20 19 18 19 19 18 17 15 13 10 8
24 18 18 17 16 13 14 9 9 13 15 9 12 14 14 15 14 14 14 18 18 16 15 15 15 16 17 18 18 18 19 21 21 22 22 19 22 21 17 20 17 13 11
23 21 18 17 15 14 12 11 9 13 12 11 7 14 13 11 11 9 6 9 14 13 15 17 18 17 17 16 17 18 20 21 23 24 21 21 23 23 22 19 16 15 14
25 21 21 20 21 18 14 10 10 10 13 8 7 10 9 9 8 7 8 9 11 11 12 18 21 21 19 18 19 17 18 20 24 23 22 21 23 23 23 22 21 18 18
27 25 21 23 18 21 16 10 11 7 12 10 8 12 10 10 11 9 10 10 12 11 10 14 18 21 21 19 18 19 20 24 21 22 22 19 25 24 24 23 24 22 21
25 28 25 21 10 14 20 17 15 6 6 17 12 12 13 13 10 9 11 10 13 13 12 15 15 17 18 22 24 23 23 25 24 28 23 20 21 29 27 26 27 26 24
25 27 24 19 20 24 21 17 17 5 11 18 13 13 15 15 12 15 12 12 15 14 16 17 20 19 21 20 22 20 19 20 14 17 19 22 19 21 26 28 28 29 28
26 24 22 20 19 21 22 20 17 7 13 14 13 13 11 12 13 14 13 13 15 16 18 19 22 22 24 23 21 20 19 18 18 23 21 24 23 24 21 22 22 24 23
25 22 20 21 21 20 19 22 10 9 11 13 10 7 5 7 8 10 14 12 14 16 18 18 18 20 22 21 20 21 19 19 20 19 25 24 26 26 25 24 22 21 21
22 21 20 20 21 23 21 25 3 13 13 12 12 11 7 6 9 11 10 11 12 15 14 15 16 18 22 22 20 20 19 19 17 22 24 26 25 27 26 24 24 22 23
20 20 20 18 19 20 24 22 2 16 21 14 7 7 8 8 10 9 9 10 12 14 12 14 16 19 19 19 20 20 19 18 22 22 25 24 23 24 27 26 25 23 21
24 22 19 18 18 16 16 19 19 8 10 3 2 7 9 10 11 9 7 9 11 14 15 16 18 19 22 19 17 20 20 19 17 15 24 22 22 22 24 26 25 22 22
21 22 21 19 16 16 12 10 10 8 6 7 9 11 11 11 11 8 8 8 10 12 14 14 15 14 15 16 17 17 18 19 19 21 15 20 21 22 23 25 23 23 24
20 20 20 21 15 16 13 10 7 5 4 6 9 12 11 11 7 7 7 8 9 13 10 11 13 14 12 12 12 14 15 18 21 20 18 22 22 24 19 20 23 23 24

GFSSE_500_spd_036.txt.gz
Wind_Speed
6 4 3 3 3 4 3 2 4 6 7 7 8 7 6 5 2 0 1 1 2 6 7 7 9 11 14 15 14 15 14 15 16 18 18 16 17 17 15 13 14 15 14
6 5 2 2 2 3 2 2 3 4 5 5 5 4 4 3 1 1 1 2 2 2 5 5 7 8 11 12 12 14 16 15 16 17 18 17 18 17 15 13 13 14 14
7 7 4 3 3 3 4 4 5 3 2 2 3 3 4 3 3 2 4 4 3 4 7 7 7 6 9 9 10 12 14 14 15 16 16 16 17 16 14 14 13 14 14
7 5 3 3 5 6 5 4 5 4 4 4 4 4 5 5 5 5 4 3 4 4 4 5 9 11 8 6 9 8 10 12 12 13 14 14 14 15 13 13 14 13 14
7 4 3 3 4 5 5 5 5 5 5 5 5 4 4 4 4 4 4 4 4 5 4 5 6 11 10 8 7 7 7 8 9 9 10 10 11 13 14 14 14 13 12
8 6 5 6 5 5 4 3 3 3 3 3 5 7 6 5 5 5 4 3 3 4 3 6 5 3 10 10 9 9 6 6 6 5 6 7 7 10 12 12 12 10 10
9 6 5 3 3 5 6 4 2 2 0 1 3 3 4 5 6 8 8 7 4 3 4 5 6 6 6 7 12 11 9 7 5 3 2 2 4 6 8 9 9 9 8
11 9 6 4 1 3 2 2 1 1 2 3 3 3 2 3 3 5 6 10 11 8 7 6 8 8 7 8 10 13 11 10 8 5 4 2 1 2 5 6 6 6 6
15 12 9 6 5 2 1 1 3 2 1 3 5 5 4 4 4 5 5 6 7 9 7 7 8 8 7 6 12 11 11 8 7 6 6 4 2 1 1 2 4 4 5
19 16 15 10 7 7 6 4 5 5 5 4 6 7 6 6 6 6 6 5 7 8 8 7 7 10 9 8 5 7 9 8 8 6 6 5 4 4 3 3 2 4 4
20 17 18 16 11 8 8 7 6 6 7 7 9 8 7 7 8 8 8 7 6 9 10 9 11 11 11 10 10 10 13 11 11 10 10 9 8 7 5 5 6 6 5
24 19 17 16 14 12 9 6 5 6 8 9 9 10 9 9 9 9 10 10 9 9 11 11 10 12 12 13 10 12 15 14 13 14 13 12 12 12 10 8 8 7 6
27 23 19 15 15 11 11 6 4 6 6 8 11 12 10 7 10 11 13 13 12 10 12 13 13 13 15 16 17 15 16 15 16 16 17 16 15 15 14 15 13 10 8
26 22 20 17 13 12 9 6 4 6 10 10 12 10 12 11 10 13 14 17 17 15 14 14 14 13 14 16 16 17 18 21 20 19 19 20 20 18 17 18 19 16 12
25 25 20 18 15 11 9 6 3 4 8 8 8 9 15 13 12 10 10 10 13 16 16 18 16 16 15 15 16 18 18 19 22 23 22 21 23 24 21 19 18 16 14
25 26 24 19 15 14 12 6 7 4 5 6 3 5 6 12 10 7 10 9 9 13 13 15 18 18 18 18 17 18 18 20 22 24 24 26 24 26 25 23 21 18 16
25 26 27 27 28 8 12 11 10 8 2 4 8 7 9 8 8 10 10 8 9 11 14 15 13 18 19 20 19 16 17 20 22 22 22 27 27 22 26 24 21 21 19
24 26 27 27 21 26 22 23 11 6 7 3 8 8 11 10 10 11 13 11 11 13 13 14 14 15 14 16 20 23 21 21 24 27 30 27 22 22 23 26 23 21 22
23 25 25 18 24 24 24 23 13 10 10 9 13 13 12 12 12 15 13 14 14 16 16 17 17 18 18 20 20 18 20 21 22 22 21 24 23 21 20 25 26 24 24
26 27 25 22 23 22 23 25 20 6 11 9 16 11 12 12 16 14 16 14 15 16 19 17 18 21 23 24 22 21 20 21 20 16 19 19 21 19 19 20 22 24 24
28 27 26 24 21 20 19 23 16 7 4 13 13 11 11 8 7 9 12 16 17 16 15 17 17 17 21 22 20 22 21 21 21 19 17 22 22 21 20 24 22 22 20
27 25 25 22 24 20 19 27 7 9 7 11 11 10 8 6 7 11 13 12 12 11 13 13 15 17 18 19 20 22 20 21 20 20 18 22 23 23 20 24 24 24 21
24 23 21 24 21 19 16 21 19 6 12 7 8 7 6 6 9 12 11 10 11 12 13 13 15 16 17 19 19 18 20 19 20 21 20 22 25 23 24 24 23 23 22
11 13 19 20 21 18 14 14 17 12 12 11 4 1 4 7 9 10 8 9 11 11 11 15 17 17 18 18 20 20 18 19 19 19 16 20 21 22 21 21 20 24 22
6 5 15 18 21 18 13 11 10 9 11 7 6 6 7 7 8 7 6 6 7 9 12 16 17 18 19 18 17 15 15 16 17 16 17 16 19 20 22 20 22 24 22
5 9 14 18 23 18 13 8 8 6 4 3 5 7 7 7 6 6 7 7 6 9 13 14 15 15 15 15 12 11 11 12 13 15 18 14 13 17 18 20 22 24 24

GFSSE_500_spd_039.txt.gz
Wind_Speed
6 5 2 2 3 3 3 2 3 6 7 8 9 8 6 4 4 3 5 5 8 20 15 15 15 15 17 18 17 18 17 17 17 18 16 15 16 16 15 15 14 14 14
6 7 4 1 3 4 3 4 5 7 7 5 5 5 5 3 4 3 4 4 6 6 12 10 13 14 15 17 17 19 19 18 17 18 18 17 17 16 14 14 14 13 13
5 7 4 1 3 4 4 6 7 7 6 5 4 4 3 2 1 2 1 2 2 2 8 11 13 13 13 14 16 16 18 18 18 17 17 17 17 16 14 11 14 13 14
8 6 5 1 2 3 5 6 7 7 7 8 6 6 5 4 3 4 3 3 3 2 8 11 11 13 13 13 14 15 15 16 16 17 17 16 16 15 14 12 12 15 14
11 7 4 2 1 2 3 4 5 6 6 7 7 6 6 5 4 4 3 2 2 3 7 3 10 11 12 12 13 13 13 13 12 12 14 13 14 15 14 12 11 12 13
10 6 3 2 3 3 3 4 3 2 3 5 6 7 6 5 5 3 3 1 2 1 2 3 2 10 11 10 11 12 11 12 10 8 9 9 9 12 12 12 11 10 10
12 6 3 2 1 1 2 4 4 3 2 2 3 5 6 8 9 9 7 5 2 1 0 1 2 6 4 11 11 10 10 9 8 7 6 4 5 6 8 10 10 9 8
13 9 5 2 1 3 2 2 3 2 2 3 2 4 5 5 6 7 9 9 8 6 4 2 3 3 5 2 12 11 9 8 7 6 6 4 2 3 5 6 7 7 6
15 12 7 3 1 2 3 3 1 2 2 3 3 3 4 4 4 3 4 6 7 8 8 7 7 3 5 2 6 11 9 9 8 7 6 6 4 1 1 3 4 5 5
15 12 11 5 1 1 2 3 4 4 4 4 4 5 5 5 4 3 3 4 6 6 7 8 9 7 6 7 6 14 15 12 10 8 5 4 4 3 2 1 0 2 2
20 13 11 8 6 1 2 4 5 6 5 6 6 7 5 6 5 5 5 5 5 6 7 8 9 8 6 10 7 7 11 12 11 10 10 9 7 5 4 4 3 2 4
19 17 12 10 8 6 4 4 7 6 6 5 8 8 7 6 7 6 7 8 8 6 6 7 9 11 11 10 8 9 11 12 11 11 12 12 12 11 10 8 6 6 5
20 18 16 13 12 9 6 3 7 9 8 5 7 9 8 6 5 7 11 9 10 8 8 8 9 12 13 12 14 12 11 13 13 14 15 15 16 15 14 12 11 11 9
20 20 20 19 15 12 10 7 6 10 11 8 1 7 8 9 6 8 10 11 11 13 11 11 10 11 14 15 15 16 15 14 17 18 17 17 18 19 18 17 15 14 14
21 21 21 23 20 19 15 15 14 16 5 7 3 6 5 14 12 10 11 10 11 12 13 14 13 13 13 14 15 17 19 19 18 20 21 21 19 19 20 21 21 17 18
25 25 24 25 18 25 11 16 13 14 2 9 5 1 6 8 11 10 8 7 8 7 7 8 11 15 16 17 16 16 17 18 20 20 22 23 22 22 22 23 24 21 19
29 28 29 12 16 22 22 21 14 3 10 11 4 8 7 8 7 7 7 5 7 7 8 11 11 11 16 19 19 20 19 20 20 20 21 20 20 26 24 23 25 24 22
34 27 26 21 22 19 19 20 17 6 8 9 8 10 9 8 7 6 8 8 10 10 11 14 12 13 13 16 19 21 21 20 21 21 23 25 26 30 29 25 23 24 23
32 27 19 17 19 22 20 18 22 4 9 12 13 13 10 8 9 9 10 11 12 13 16 16 15 15 17 17 18 17 19 20 24 22 26 26 26 20 23 23 20 23 24
27 28 22 17 19 22 18 20 23 3 11 13 7 13 9 10 9 11 13 16 16 16 17 17 16 16 16 16 17 18 19 20 19 23 23 21 21 18 21 21 19 19 23
21 14 20 21 23 24 18 22 13 7 10 11 16 14 9 8 5 8 9 12 14 17 15 13 14 15 16 18 18 17 15 17 20 22 22 22 18 20 19 18 16 16 18
15 10 6 13 19 23 16 20 11 2 5 13 18 15 13 8 5 7 10 11 10 10 11 12 13 13 14 14 16 17 18 19 20 20 20 21 19 16 19 20 18 20 22
52 18 4 11 16 19 14 18 22 1 7 10 14 13 10 7 5 7 10 10 9 9 10 13 14 15 15 17 17 16 17 18 20 19 20 19 22 16 19 21 21 21 22
24 2 7 12 14 17 12 10 14 20 7 6 8 7 3 3 5 7 9 8 9 10 10 11 13 15 15 15 15 16 18 19 18 19 19 18 17 17 20 20 22 21 22
9 10 13 13 16 13 10 4 4 6 12 7 3 2 2 3 5 6 7 8 9 8 9 11 13 14 16 16 14 14 14 15 16 16 16 14 16 12 18 20 21 18 19
22 18 18 16 12 13 10 4 2 4 2 3 4 2 1 3 4 3 5 5 5 6 7 8 10 14 13 13 10 10 11 11 13 14 14 14 14 16 19 17 20 21 20

GFSSE_500_spd_042.txt.gz
Wind_Speed
5 3 2 1 2 2 3 3 4 7 7 7 6 7 7 5 5 6 6 19 21 18 18 17 17 18 17 18 18 17 17 17 17 16 15 15 15 14 13 14 14 13 13
4 3 2 1 2 4 4 4 5 6 8 9 7 6 6 5 4 7 6 8 11 16 18 17 17 17 18 18 18 18 18 18 18 17 16 15 15 15 13 14 13 12 13
3 3 3 2 2 2 3 5 6 6 6 6 6 6 4 4 3 2 4 3 6 11 16 15 16 16 18 17 18 17 17 19 18 17 16 15 13 15 13 12 12 13 12
6 4 3 2 1 3 4 6 6 6 5 6 6 6 5 5 4 3 1 1 5 7 9 14 15 15 16 17 17 18 17 17 18 17 16 15 13 13 14 12 12 12 13
6 4 4 3 1 3 4 5 6 6 5 5 5 6 6 5 4 4 2 1 3 6 6 20 15 15 14 16 15 16 16 15 16 15 14 14 14 12 13 13 11 11 11
5 3 2 3 2 3 4 5 6 6 5 6 6 5 5 5 5 4 4 1 0 1 3 15 17 12 14 14 13 14 13 12 13 13 10 10 11 11 10 11 11 9 8
6 3 2 1 2 3 4 6 7 7 6 7 7 8 8 7 6 5 4 3 1 1 2 3 4 13 14 14 13 12 12 11 10 9 8 6 7 7 7 7 8 8 8
9 7 3 1 3 4 5 6 7 7 8 8 7 6 6 6 6 7 8 9 6 4 2 2 2 5 13 12 13 13 12 10 9 7 7 6 5 4 5 6 5 6 6
11 10 6 3 4 6 6 6 6 8 8 9 8 8 6 6 5 5 6 8 8 9 8 6 4 2 5 7 16 14 12 11 10 7 6 5 4 3 3 4 4 4 4
14 11 9 7 6 6 7 9 9 9 8 8 8 8 8 9 8 7 6 6 6 6 7 7 7 6 5 7 11 16 13 11 10 8 8 7 6 4 3 3 2 1 2
18 16 13 12 10 8 9 11 12 11 10 9 7 8 8 9 8 7 6 6 5 6 6 7 8 8 8 7 10 11 17 12 11 11 10 9 8 6 4 5 4 2 1
20 19 17 16 15 12 9 10 13 12 12 10 8 7 7 8 9 7 8 8 7 6 7 7 8 10 10 8 9 10 12 12 11 12 12 12 11 10 9 8 7 6 5
21 19 18 18 16 11 12 11 11 14 14 11 10 9 6 6 8 10 9 11 9 9 7 8 9 9 11 11 10 10 10 12 15 15 15 14 13 13 12 12 11 10 10
23 22 17 18 16 15 12 11 12 13 15 18 12 10 7 6 8 10 8 5 4 7 11 10 10 9 10 12 12 13 14 14 15 16 16 15 16 15 15 16 15 15 14
24 23 22 24 9 15 9 8 11 16 19 21 9 9 6 4 10 11 7 7 9 5 10 11 12 12 12 12 13 15 17 17 17 17 18 18 17 17 16 17 19 17 19
23 24 26 24 12 12 12 14 13 12 12 15 4 6 5 6 8 10 7 5 6 4 6 7 11 13 14 14 14 15 16 16 17 18 20 20 20 20 21 21 20 20 22
34 37 29 16 10 16 16 15 14 8 5 13 5 10 9 8 6 7 6 6 4 4 7 8 10 11 13 16 17 17 19 19 19 18 18 19 19 19 19 21 25 23 24
33 37 28 22 16 15 18 17 17 18 9 8 8 5 9 11 9 8 9 8 6 7 8 8 10 14 11 12 15 17 20 21 22 20 19 18 19 21 24 25 27 26 24
39 31 33 20 13 14 14 16 19 14 9 13 14 14 11 10 9 8 8 6 8 7 10 11 12 12 12 14 15 16 17 19 21 24 26 24 22 23 26 30 27 27 22
37 41 26 9 10 11 13 16 19 3 10 3 11 12 14 12 8 6 8 10 10 11 12 12 12 12 12 14 15 16 17 18 20 22 20 21 21 21 22 24 22 23 22
36 47 24 12 7 9 7 12 10 7 12 12 13 13 14 12 8 6 7 7 8 10 11 12 9 10 11 12 14 14 14 16 18 18 20 20 20 20 17 17 20 21 22
51 48 41 6 12 14 7 10 1 7 9 15 15 15 12 9 8 6 5 7 8 9 9 8 9 10 11 12 15 15 15 15 16 18 19 19 20 21 20 19 19 20 21
39 33 12 16 15 18 10 10 3 10 5 15 16 19 16 12 8 6 6 8 7 8 7 7 8 9 11 13 16 17 17 16 15 15 17 19 18 19 19 21 22 22 21
22 22 23 19 18 15 9 7 7 4 6 12 19 13 14 7 8 7 7 9 6 6 5 7 8 11 12 13 15 16 17 18 18 17 17 20 20 18 18 16 20 21 22
17 20 21 23 22 15 9 4 6 7 9 8 8 6 4 5 6 6 6 6 6 7 7 8 9 10 10 12 12 13 14 14 14 15 16 17 18 16 16 16 17 21 19
17 18 19 22 24 20 10 3 2 2 1 5 4 1 2 3 5 4 5 6 5 5 6 7 7 9 11 10 10 10 10 10 11 12 14 17 17 17 17 19 18 18 18

GFSSE_500_spd_045.txt.gz
Wind_Speed
1 0 1 1 1 2 3 3 4 6 6 6 7 7 5 2 0 2 24 21 19 16 15 14 13 15 14 14 14 13 15 15 14 14 13 12 13 12 13 12 12 12 12
2 1 0 1 2 4 4 3 4 6 6 6 6 6 6 6 4 3 21 16 17 15 17 16 14 16 16 16 16 15 14 15 14 13 14 13 13 13 12 12 12 10 11
1 1 0 1 2 4 3 3 4 6 6 6 5 5 4 3 6 5 1 8 18 15 15 14 15 16 16 16 17 17 15 15 14 13 13 12 12 12 12 12 12 10 10
2 1 1 1 2 3 4 4 4 6 5 6 6 5 5 4 3 4 3 1 3 16 14 14 14 15 16 16 16 16 15 15 15 12 11 11 12 11 11 11 11 11 9
2 1 0 1 2 3 3 4 4 5 5 5 5 5 4 4 4 3 2 3 4 4 18 14 13 14 14 16 16 17 14 14 14 12 11 10 10 11 11 11 11 11 9
7 4 3 3 2 3 3 4 4 5 5 5 5 5 5 5 3 2 3 4 5 4 14 17 13 13 14 14 15 15 14 13 11 11 10 9 9 9 9 9 9 9 9
9 6 5 4 4 3 4 5 6 7 7 7 7 7 7 6 5 3 2 3 5 6 6 19 15 14 14 14 14 14 13 13 10 9 8 7 7 6 7 6 6 8 8
11 10 7 6 6 5 6 6 7 8 8 8 7 8 8 6 5 5 5 4 3 3 4 3 11 19 17 15 14 13 12 11 9 7 6 5 3 4 4 4 4 4 5
17 14 11 9 7 8 9 9 8 9 9 9 9 8 7 6 6 5 5 6 7 6 5 5 1 7 17 15 15 15 14 12 11 8 5 3 2 0 0 2 3 3 3
19 17 14 12 10 8 10 11 11 11 10 10 10 10 9 8 7 7 6 6 6 7 7 7 7 7 8 9 16 16 15 13 12 9 6 5 4 3 3 2 1 0 1
19 17 15 12 10 9 8 9 12 14 12 11 11 10 11 9 9 9 8 7 6 7 7 7 7 8 9 9 14 18 15 13 11 11 7 8 7 8 5 4 3 4 2
19 19 17 17 20 14 9 8 9 13 14 14 13 12 12 10 12 9 11 10 9 7 5 6 6 7 9 8 13 14 19 17 13 11 13 12 11 10 8 7 7 7 6
26 28 25 25 24 15 15 12 10 9 14 16 15 15 13 8 17 12 14 12 9 8 7 9 7 9 10 10 7 13 13 16 16 16 16 16 14 13 11 10 11 11 10
28 28 29 29 29 17 15 13 10 11 13 16 18 18 18 15 15 15 7 4 12 11 13 6 5 10 9 11 11 13 12 13 13 16 16 16 16 15 14 13 14 14 14
28 29 29 28 26 16 14 5 8 4 11 19 18 21 21 13 11 10 10 6 7 9 10 10 10 12 10 10 12 13 14 15 15 16 16 17 18 18 16 15 15 17 18
29 32 30 31 26 19 15 14 2 6 8 11 16 15 15 10 6 5 7 7 5 5 10 11 12 12 13 12 12 13 14 15 16 18 19 20 19 21 21 20 21 20 20
35 34 23 40 23 13 13 14 13 10 5 10 9 11 15 12 7 9 8 6 6 6 8 8 7 8 10 13 15 16 16 16 16 16 17 18 18 19 21 20 21 22 23
40 35 22 35 19 12 18 14 13 16 7 10 14 13 11 9 9 8 8 7 9 12 8 7 7 8 11 12 10 13 17 17 18 18 18 17 17 19 20 22 23 24 24
37 22 31 25 5 8 15 16 10 8 7 11 13 13 12 11 12 9 7 8 6 6 8 8 10 10 10 11 11 14 15 16 17 20 21 22 22 23 22 24 26 29 31
39 50 27 12 5 7 15 14 13 9 16 16 20 14 13 11 9 8 8 9 7 8 11 11 11 11 10 10 12 14 16 19 20 21 22 21 21 22 23 21 24 27 27
36 37 41 23 9 10 13 15 18 11 5 11 17 13 13 13 10 7 6 5 6 7 10 11 11 10 9 10 11 12 14 17 19 22 22 22 23 22 21 20 21 21 20
31 35 30 27 20 15 13 14 15 8 7 14 10 8 9 16 9 7 6 5 6 8 9 8 7 8 10 11 12 14 15 15 16 19 21 22 20 20 19 18 24 25 21
29 31 23 23 24 20 15 13 13 10 8 11 14 13 18 10 10 7 6 6 6 7 7 6 7 8 10 12 13 14 15 15 16 17 19 19 19 20 16 18 17 37 16
29 31 18 17 19 17 15 11 11 7 4 12 19 16 21 16 10 8 6 7 5 4 4 5 6 8 11 12 13 15 16 16 15 17 18 18 18 20 19 17 22 21 25
31 32 19 15 18 20 14 8 9 9 8 6 21 14 20 15 9 8 8 6 5 4 5 4 6 8 10 12 14 14 14 13 13 16 17 18 18 19 19 17 19 23 22
28 30 16 14 17 20 15 13 10 7 8 10 5 11 4 6 9 8 7 4 3 2 2 4 7 9 11 11 11 11 9 9 10 11 13 17 16 17 17 17 18 21 20

GFSSE_500_spd_048.txt.gz
Wind_Speed
6 4 1 1 0 1 2 3 5 6 5 5 6 4 2 2 2 9 5 21 17 10 9 9 10 10 10 11 12 13 12 13 13 13 12 13 12 13 12 12 12 12 13
6 5 3 2 1 1 3 3 5 6 6 5 5 4 2 4 8 9 17 18 19 11 11 10 11 12 12 13 14 12 12 13 14 14 13 13 12 13 12 12 11 11 11
8 5 4 4 4 4 3 3 3 5 5 6 4 2 2 4 5 7 2 14 13 11 12 12 12 12 13 14 15 13 13 12 13 13 13 13 12 12 13 12 11 9 10
9 7 6 5 5 5 4 4 3 4 6 6 5 3 2 3 3 2 5 17 9 11 11 12 12 13 14 15 15 14 13 12 12 12 12 13 12 11 11 12 11 10 9
11 9 8 7 6 6 4 3 4 4 5 5 4 3 2 3 4 4 7 9 7 12 11 12 12 13 14 15 15 15 13 12 12 13 11 11 13 12 11 12 11 11 11
13 11 9 8 7 6 5 4 4 3 4 5 4 3 4 3 3 4 4 6 9 7 18 13 13 12 13 14 14 13 13 13 11 12 11 11 11 10 9 9 9 10 10
16 15 12 10 7 6 5 5 5 6 6 6 6 5 5 5 5 4 5 6 8 6 25 18 14 14 13 14 14 13 12 11 9 10 9 10 9 8 7 7 7 8 9
19 16 14 12 9 8 8 7 7 7 7 7 5 5 5 6 6 6 5 5 6 9 19 21 16 16 14 13 12 13 12 10 7 6 6 7 7 6 6 5 5 5 5
18 16 14 13 12 11 10 9 9 9 8 8 6 6 5 5 6 6 6 7 6 4 8 12 18 19 17 14 13 13 13 11 9 8 5 4 3 4 3 4 3 4 3
20 19 18 16 17 15 12 10 10 11 10 9 9 8 9 11 9 8 7 7 6 8 8 7 8 14 17 15 15 14 14 12 10 8 6 5 3 1 1 0 1 3 3
25 22 19 18 17 20 14 12 11 11 12 12 10 12 13 10 11 9 6 7 7 7 7 8 9 12 11 16 18 18 17 14 12 11 9 7 5 4 3 3 4 3 4
23 24 25 24 23 23 15 11 12 13 12 14 12 13 14 14 15 14 9 8 6 6 7 8 10 11 13 11 10 17 20 18 15 14 13 11 9 9 8 7 7 7 6
22 23 23 24 24 21 14 18 8 12 13 15 15 15 13 18 24 10 6 9 8 7 9 10 8 6 10 11 9 15 17 20 17 15 14 14 14 13 13 13 12 11 9
28 27 23 15 23 19 16 9 9 14 12 18 13 12 12 13 19 5 8 11 14 12 12 10 8 7 7 9 11 11 15 16 19 16 17 16 16 16 17 16 15 14 14
34 32 31 21 22 15 14 13 14 12 8 11 10 10 14 17 16 15 10 4 6 16 17 14 5 6 10 8 10 11 14 15 16 15 16 18 18 18 20 20 19 17 17
29 22 23 12 18 9 9 10 10 9 9 13 11 12 18 21 15 16 9 10 12 18 16 14 10 16 8 6 10 11 13 16 17 17 17 18 18 18 20 22 21 21 20
33 7 22 18 21 17 3 5 5 11 10 12 10 11 21 18 14 12 9 11 11 15 15 11 9 8 7 10 14 14 14 14 14 15 14 16 18 18 20 21 23 23 23
28 31 25 15 21 5 3 7 8 7 11 16 13 13 18 18 13 10 11 7 6 13 7 7 7 6 6 9 10 11 14 15 16 16 17 17 17 17 17 19 20 22 24
24 35 35 18 6 6 7 10 11 12 10 11 17 14 16 15 11 8 7 6 7 5 2 8 6 7 9 11 13 14 14 14 16 17 18 20 19 19 21 22 22 24 26
43 41 31 22 14 14 12 10 11 14 12 12 15 14 14 13 11 9 8 7 5 5 6 6 8 9 11 11 13 13 14 16 19 18 20 21 20 20 20 22 22 20 26
41 39 32 23 21 18 18 17 17 16 8 8 22 19 15 14 13 11 10 9 6 6 7 8 9 11 12 11 12 11 12 14 17 19 21 21 21 22 24 23 24 24 26
37 37 37 25 24 21 16 15 19 18 8 12 9 18 14 17 14 11 8 8 4 6 7 7 7 8 9 11 11 12 12 13 15 17 18 18 20 20 23 24 21 24 22
33 33 31 23 24 25 21 18 16 17 12 12 14 15 13 11 14 13 10 7 4 6 5 6 7 8 9 10 11 14 14 14 14 16 17 18 19 18 21 20 18 20 23
32 34 28 20 17 21 24 20 14 14 14 10 10 15 15 15 18 13 9 6 5 6 5 5 6 6 8 11 13 13 14 14 15 16 19 12 19 17 21 18 18 15 22
31 30 26 24 19 23 23 20 19 15 15 10 11 21 19 26 19 12 9 6 5 6 6 6 5 6 8 9 11 12 12 13 13 13 16 19 19 21 18 18 16 16 17
29 31 25 23 16 17 21 21 19 15 12 10 8 10 25 18 12 8 8 7 6 6 6 5 4 7 7 8 9 9 9 9 10 9 12 14 13 24 17 14 14 16 17

GFSSE_500_spd_051.txt.gz
Wind_Speed
11 6 4 3 2 1 2 3 4 3 3 3 5 6 5 5 5 7 9 15 12 9 8 8 10 10 8 10 12 12 12 12 11 13 12 13 14 14 15 15 15 14 13
13 9 6 5 3 3 4 3 3 3 3 2 3 4 3 6 7 3 4 20 15 10 9 9 9 11 11 12 13 12 13 13 13 14 12 12 13 14 15 14 13 14 12
12 10 9 6 6 5 4 3 3 2 3 2 2 2 2 3 6 10 4 11 16 10 8 9 11 11 12 13 14 13 13 13 14 14 12 12 12 14 15 14 13 12 10
13 11 9 7 7 6 4 4 3 3 2 2 3 3 1 2 4 8 11 12 14 8 6 9 11 11 12 13 14 14 13 13 14 15 13 11 11 12 15 15 14 11 10
17 13 9 7 7 7 7 5 4 3 2 2 1 3 1 2 3 7 11 8 10 9 8 9 11 12 13 13 13 14 14 12 14 14 14 13 12 11 13 13 13 12 12
20 16 12 9 7 7 7 6 4 3 2 2 2 2 2 3 4 6 8 7 9 14 12 12 13 13 14 13 12 12 13 12 12 13 13 12 11 11 11 10 10 10 11
19 17 16 13 8 5 5 5 5 4 4 2 2 3 3 3 4 6 9 10 9 12 19 14 14 14 15 14 13 13 12 11 10 10 12 10 10 10 9 9 9 9 9
20 19 16 15 12 9 5 5 5 4 4 4 3 4 6 8 7 7 8 9 6 11 21 17 16 15 15 15 14 14 13 10 8 8 8 6 9 10 7 7 7 6 7
22 19 16 13 12 12 9 6 6 5 5 5 5 5 5 6 8 8 9 10 8 8 22 19 16 15 15 15 14 13 12 10 8 7 6 4 5 6 5 4 5 5 5
20 18 17 15 14 13 9 7 6 6 7 7 7 7 7 6 5 6 7 11 12 13 16 17 19 18 16 14 15 14 13 11 9 7 6 5 3 3 2 1 1 2 3
19 17 17 16 16 12 8 8 8 7 7 8 7 9 7 7 9 9 8 8 11 13 13 11 15 20 20 17 16 15 14 14 13 11 9 7 7 5 4 3 2 2 2
20 18 21 15 12 12 6 10 12 12 7 6 7 7 10 11 12 12 12 10 10 11 12 14 14 16 18 19 21 20 19 18 16 13 11 10 9 8 7 6 6 5 4
28 18 15 14 11 9 5 6 10 8 11 5 10 7 11 10 13 11 18 14 12 12 12 11 13 14 17 15 14 16 20 22 19 16 14 15 15 13 11 11 11 12 10
25 17 9 8 11 10 3 7 16 5 7 11 13 9 13 12 17 15 19 14 12 13 11 11 12 12 13 17 14 13 14 17 20 17 15 18 17 16 16 16 15 16 15
39 19 10 2 8 6 5 2 5 5 4 12 11 16 13 13 15 9 10 7 9 16 14 11 12 13 11 9 13 13 11 16 15 18 20 19 19 19 19 19 18 18 18
25 33 40 19 10 8 13 6 6 6 3 9 11 14 20 14 15 17 13 11 13 17 16 17 15 12 11 10 10 11 13 14 15 16 17 18 18 19 20 21 22 22 21
38 37 37 23 9 11 6 2 6 7 5 7 10 13 16 17 17 10 9 8 9 11 13 14 13 13 13 14 13 13 13 14 16 16 19 21 21 21 21 22 22 24 23
38 35 29 32 20 11 6 6 7 4 6 10 14 7 8 11 10 7 5 4 8 10 7 12 13 15 12 11 12 12 15 17 16 16 18 20 20 20 21 21 21 18 20
38 35 33 28 21 17 13 11 9 8 7 5 12 12 9 13 10 7 7 7 9 9 9 15 12 10 9 9 11 12 12 13 15 17 20 20 22 23 22 21 21 21 21
36 34 34 22 21 16 13 12 10 10 4 6 10 13 11 12 12 10 10 12 12 9 9 11 12 11 11 12 11 10 11 14 17 19 20 20 20 20 20 22 22 25 27
34 32 29 21 20 20 16 13 11 12 7 5 10 11 10 13 13 12 11 15 11 11 12 9 10 12 13 10 11 9 12 13 15 17 19 20 20 19 19 20 21 24 23
33 31 29 24 22 22 22 16 14 11 6 2 1 15 13 13 13 13 13 13 12 10 8 10 10 11 9 11 10 11 12 15 16 16 18 20 18 19 21 17 19 19 18
30 32 28 24 19 20 20 19 18 14 15 4 2 7 14 14 16 19 15 11 8 9 9 10 9 9 9 8 9 11 13 15 16 18 18 19 18 21 19 19 9 11 16
28 32 31 24 18 18 18 17 16 14 14 13 5 4 13 14 16 18 14 12 11 10 10 9 8 7 8 8 8 10 12 15 16 17 17 18 24 22 22 15 7 10 17
26 26 29 29 22 21 23 19 17 15 9 12 8 10 14 17 17 18 16 14 12 9 9 8 8 8 8 7 8 9 9 10 12 13 13 14 17 21 16 12 11 11 14
27 27 26 28 26 24 19 17 16 13 11 9 8 8 13 19 18 24 20 15 11 9 8 8 8 7 7 6 5 5 5 7 9 9 11 13 13 16 10 11 10 14 15

GFSSE_500_spd_054.txt.gz
Wind_Speed
6 6 5 4 4 4 3 2 2 3 3 5 5 5 3 2 5 4 7 9 8 8 6 7 8 8 8 9 9 11 11 11 10 12 13 11 12 14 16 15 16 15 15
7 8 6 5 5 4 3 3 2 2 1 4 3 2 0 1 1 4 9 13 12 8 7 8 10 10 10 11 11 11 11 11 11 11 14 11 11 14 15 15 15 15 14
8 8 7 7 6 4 4 5 5 3 0 2 1 0 1 2 3 5 5 13 12 11 8 9 10 11 12 12 13 12 12 12 11 12 12 12 12 12 15 15 13 13 11
14 11 8 7 6 6 5 6 5 3 1 2 2 2 1 1 3 4 9 8 12 9 8 10 11 11 12 13 12 13 13 13 11 12 12 11 11 11 13 14 13 12 10
17 14 10 6 5 6 6 5 4 3 2 0 1 1 3 3 2 7 11 14 12 11 7 10 11 13 13 13 12 13 12 12 11 12 12 12 11 10 11 12 13 12 11
20 17 12 8 4 5 5 5 4 4 2 0 1 2 3 3 3 6 11 9 11 12 11 11 12 13 14 14 13 13 12 12 12 11 12 11 10 9 9 9 9 10 10
21 18 14 11 8 5 1 3 4 4 3 1 1 4 4 3 4 6 8 7 10 15 14 14 14 15 15 14 14 13 12 12 12 12 11 11 9 10 9 9 9 9 9
19 18 16 10 7 4 2 0 2 3 5 2 2 3 5 6 6 5 6 7 9 12 17 16 17 16 15 14 14 13 11 10 11 10 9 10 6 7 8 7 6 6 8
15 14 11 10 7 6 3 1 2 4 4 4 4 3 2 3 6 7 7 7 5 5 23 17 16 17 17 15 14 13 11 10 8 7 6 8 5 4 6 5 4 5 6
17 15 14 13 10 6 4 2 2 4 6 6 5 4 4 6 7 9 9 11 7 1 19 18 16 16 17 16 15 14 12 10 8 8 8 6 5 3 3 3 1 2 3
22 19 19 16 14 9 4 3 2 3 3 6 7 8 9 9 8 7 7 9 11 10 14 16 18 18 18 17 16 16 14 13 12 10 9 8 7 6 4 3 3 2 1
32 18 20 18 13 8 3 4 3 1 3 4 8 11 12 10 9 11 10 10 10 14 15 15 17 21 22 20 18 17 18 17 17 15 12 12 11 10 8 6 6 5 5
30 30 21 20 19 7 8 4 2 4 5 5 5 12 12 10 12 13 13 12 12 13 13 15 14 15 18 21 20 21 20 19 19 18 17 16 15 14 12 11 9 10 8
40 41 17 25 27 9 4 4 6 4 7 8 6 11 10 11 12 14 12 15 15 14 14 13 16 17 18 19 16 15 16 19 23 23 22 18 20 18 17 13 13 14 14
39 36 35 26 17 14 8 10 6 4 5 8 7 15 15 13 13 14 19 22 17 15 15 16 16 17 17 17 17 16 16 14 16 20 23 25 16 17 20 17 16 17 17
33 38 35 34 19 20 8 1 2 4 8 10 9 9 14 12 11 12 11 12 13 17 17 15 17 18 17 15 13 14 15 13 13 16 19 20 21 21 20 18 19 19 20
30 31 27 31 28 18 13 4 6 7 11 10 12 12 13 14 13 12 12 12 14 16 15 16 19 16 16 17 13 13 15 16 15 19 20 21 21 21 22 21 21 22 22
34 33 22 23 24 16 10 5 4 7 14 10 13 12 11 15 17 13 10 12 13 14 13 15 19 20 19 16 14 16 16 17 17 21 21 22 23 24 22 21 21 21 21
33 33 25 21 22 20 15 10 9 11 13 12 12 11 9 14 17 15 13 12 12 16 17 11 18 17 15 14 13 14 16 18 21 21 22 23 24 25 25 23 22 22 22
32 33 27 18 20 21 16 14 8 10 12 12 13 14 10 15 17 15 15 15 15 16 13 8 18 15 16 15 14 15 16 20 21 20 19 20 21 22 24 23 24 25 24
27 31 30 23 14 15 16 15 11 7 3 8 9 13 15 16 17 15 13 14 15 15 13 11 13 15 16 16 16 15 16 18 17 17 18 19 20 21 22 22 23 23 22
25 26 29 27 23 19 19 20 18 12 6 3 8 13 14 15 17 14 15 14 15 15 12 10 11 17 16 16 14 14 15 16 17 17 18 18 19 18 18 18 20 21 21
24 25 25 26 26 23 19 19 16 14 8 1 3 5 13 14 15 13 13 13 12 14 11 10 16 16 15 14 14 13 13 16 18 18 18 18 20 19 20 19 22 21 19
24 24 26 26 28 25 20 15 14 11 11 7 6 10 13 15 13 17 20 16 11 9 11 16 16 16 13 13 13 13 13 15 16 19 19 18 19 18 18 20 25 25 18
25 26 27 29 32 28 22 16 13 11 12 10 9 9 14 17 14 17 20 20 14 14 13 14 15 14 13 13 11 11 12 14 14 15 16 17 15 13 15 19 16 7 13
23 27 27 29 31 29 24 14 10 15 10 14 11 6 9 12 14 16 20 19 17 15 13 14 15 14 13 11 11 9 8 8 8 11 14 13 12 11 16 9 16 14 12

GFSSE_500_spd_057.txt.gz
Wind_Speed
6 2 2 3 3 1 1 2 1 3 4 6 5 5 3 2 4 5 9 7 6 5 5 5 6 7 7 10 11 9 10 11 12 12 12 11 11 12 16 14 16 16 14
6 2 3 3 2 2 0 1 3 4 4 3 3 3 4 6 7 4 8 11 9 8 7 7 7 7 9 12 12 10 10 10 12 13 11 12 10 11 13 14 15 16 14
7 3 3 2 3 3 3 3 3 4 4 2 2 1 2 3 4 3 6 7 9 9 8 8 9 9 11 13 12 11 11 11 12 12 11 14 11 10 10 12 14 14 13
9 5 3 3 3 5 5 5 4 4 4 2 1 0 2 3 4 4 4 11 9 9 7 9 10 11 13 14 13 11 11 12 12 12 13 13 13 11 10 11 13 12 12
12 10 6 3 2 5 7 6 5 5 5 4 3 2 1 0 3 5 6 11 10 9 8 10 11 13 14 14 13 11 11 12 11 10 12 12 12 10 10 10 12 13 12
13 11 9 5 1 2 3 4 5 5 5 4 4 4 4 3 3 4 7 9 8 7 7 9 10 13 14 14 14 12 11 10 12 11 11 12 10 9 9 9 10 11 11
13 10 10 7 1 2 4 4 5 5 5 4 3 3 3 4 4 4 4 7 7 8 7 10 11 12 13 13 12 11 12 11 11 11 10 11 9 8 9 9 9 9 10
20 12 7 6 4 3 7 7 7 6 6 4 3 3 3 4 4 5 5 5 4 6 10 10 11 11 12 12 12 11 11 10 10 9 9 9 10 6 6 7 8 7 7
28 20 9 5 7 8 8 9 9 8 7 7 5 3 4 6 7 7 7 6 7 7 13 13 12 12 12 12 11 11 10 9 8 8 6 5 7 6 5 6 7 6 6
23 23 13 10 11 12 10 12 11 11 10 9 7 6 7 7 8 8 8 8 6 3 12 17 14 13 13 12 11 11 9 8 7 6 5 3 2 2 2 2 4 4 3
41 31 18 15 12 11 14 12 13 10 10 9 9 9 9 9 8 6 6 7 8 5 13 19 17 16 15 14 14 13 12 10 9 7 5 6 5 4 3 3 1 0 1
32 39 34 17 14 11 10 13 15 15 12 12 13 13 11 11 11 9 9 8 10 11 9 18 17 17 17 17 17 17 16 16 14 13 11 11 10 8 8 7 5 4 3
35 32 36 20 19 12 13 17 15 14 15 13 12 14 13 12 13 12 10 10 10 11 12 13 16 16 20 20 21 19 18 18 18 17 16 15 14 12 11 12 11 9 8
36 33 31 26 13 21 21 18 5 6 9 11 11 12 14 14 14 13 12 12 12 12 13 14 15 16 17 19 23 20 20 21 22 21 21 20 18 18 16 18 16 13 13
36 31 31 31 25 20 27 20 6 1 9 13 10 6 13 13 13 14 13 11 14 12 14 14 16 16 17 16 18 18 17 17 19 21 22 22 22 18 17 20 16 16 17
37 32 30 32 21 15 9 5 7 7 6 6 7 6 7 13 14 17 14 16 20 19 17 17 18 18 18 18 17 19 19 19 16 16 18 18 22 22 22 19 18 19 20
36 32 25 27 25 24 19 15 8 1 9 12 13 13 11 13 16 17 13 14 13 13 16 17 17 20 18 19 16 17 15 17 18 16 17 17 19 21 21 20 20 21 21
32 32 25 21 20 13 10 11 10 6 10 14 13 15 12 14 19 19 17 16 15 15 16 16 19 22 18 16 17 17 15 18 17 18 19 20 21 22 22 22 21 20 21
28 31 28 21 18 18 12 12 11 9 8 12 18 15 12 13 22 21 17 14 15 15 14 15 16 18 16 19 21 19 21 21 19 19 20 23 23 23 23 22 22 22 23
28 28 29 25 18 16 15 12 12 12 6 12 17 13 14 16 16 16 15 15 14 14 14 15 13 17 17 18 18 19 19 19 20 20 20 22 21 22 22 22 22 23 24
25 27 28 27 24 20 18 17 13 10 9 7 13 13 16 13 16 16 15 16 14 14 15 16 14 24 18 19 21 19 19 21 19 19 21 21 21 20 21 22 23 23 24
26 27 28 27 29 22 18 17 14 11 12 7 7 15 18 15 18 18 17 17 16 17 18 17 14 15 16 18 20 20 21 18 19 18 19 20 20 20 21 21 19 21 21
28 29 27 26 28 25 21 14 14 9 9 11 6 15 18 17 18 18 19 19 17 17 19 19 17 17 17 19 19 19 19 18 17 19 20 21 20 20 20 20 20 21 22
25 28 30 26 27 25 23 15 10 12 9 7 9 10 20 21 19 21 20 18 16 17 18 16 17 17 17 16 15 16 17 18 18 19 19 20 19 19 20 20 18 21 25
23 27 29 29 25 24 25 15 10 7 12 12 8 9 16 21 22 22 22 22 19 17 16 16 17 17 14 14 15 16 17 18 16 15 17 18 17 16 17 17 18 17 12
23 26 28 31 29 30 24 13 14 14 13 17 10 12 12 20 23 22 19 20 22 22 20 16 15 15 13 14 14 15 15 13 11 10 13 16 16 15 14 16 17 12 15

GFSSE_500_spd_060.txt.gz
Wind_Speed
6 4 2 4 3 1 1 1 3 6 7 8 8 7 8 8 6 4 6 3 2 2 4 3 5 7 9 11 12 11 11 12 12 14 13 13 14 13 13 13 16 16 16
7 5 4 5 2 2 2 2 4 6 7 8 8 7 8 8 9 3 6 5 3 2 4 5 7 8 11 13 12 12 11 12 13 12 12 13 13 11 12 12 14 14 14
8 5 6 5 4 3 1 3 4 4 6 7 7 7 7 6 8 7 5 5 6 5 4 5 8 9 11 13 13 12 11 12 13 14 13 14 13 10 9 9 11 12 13
16 8 5 6 4 3 2 3 4 5 5 5 5 6 7 7 8 8 8 11 9 8 7 8 9 10 11 12 12 11 10 11 12 12 13 12 12 11 10 9 9 11 11
14 10 7 5 5 2 3 4 4 4 5 6 5 5 6 7 8 10 8 12 9 10 8 8 8 10 11 12 11 10 9 10 11 11 13 12 12 10 11 11 11 11 10
14 11 9 6 5 5 4 4 3 4 4 5 5 5 6 6 8 9 12 9 8 8 9 9 9 10 12 12 10 10 9 9 10 11 11 12 11 9 9 10 11 11 12
6 8 11 8 5 6 6 4 5 5 5 4 4 5 6 6 7 7 10 7 6 2 7 10 10 11 12 13 12 10 10 9 9 10 9 11 12 11 10 9 9 9 10
14 9 7 11 8 7 6 8 8 7 7 7 7 7 7 8 7 6 6 5 6 4 5 8 11 11 12 11 11 10 10 9 8 8 7 7 9 10 8 7 7 7 7
30 7 6 11 10 9 10 11 11 11 10 9 8 7 8 10 10 9 7 6 6 5 6 9 11 13 13 12 11 9 8 8 8 7 7 6 5 7 7 5 4 5 5
24 23 10 11 12 10 8 10 13 14 13 11 9 9 9 8 8 9 9 8 7 5 8 13 11 12 13 12 11 10 8 7 5 5 5 5 4 4 4 2 1 2 2
25 26 21 5 15 13 9 7 12 15 15 14 12 12 11 8 7 7 8 9 9 6 7 18 15 13 14 14 14 14 12 10 7 5 4 3 3 3 3 2 2 2 1
29 26 23 19 7 12 11 9 11 16 15 17 17 16 12 10 9 8 8 7 9 8 5 16 16 14 13 15 14 14 13 12 10 8 8 7 7 7 7 5 4 5 5
33 25 24 19 8 14 11 12 14 18 17 16 16 15 14 12 11 10 9 8 9 10 11 12 16 14 14 15 15 16 15 15 14 12 12 12 12 12 11 11 11 10 9
36 26 27 24 12 17 21 14 17 18 16 12 10 12 14 13 12 11 11 12 11 11 11 13 14 16 15 15 18 18 17 17 17 17 17 16 17 16 16 15 14 15 12
39 34 31 32 20 13 20 19 10 11 15 14 12 10 10 12 13 12 12 13 13 13 11 12 13 14 15 15 15 16 18 19 20 19 20 20 21 20 20 11 17 17 14
36 38 31 31 29 18 17 18 15 7 9 10 12 6 6 8 11 13 12 14 13 16 14 14 15 15 16 16 14 15 17 18 17 16 17 18 18 19 19 20 19 16 16
35 36 34 26 24 23 17 16 9 5 8 8 7 8 6 7 15 13 16 19 19 21 20 17 16 16 14 12 12 12 12 15 18 19 18 17 15 16 16 17 17 19 18
32 32 32 29 23 18 12 10 9 5 3 12 10 11 12 11 14 19 18 17 16 15 15 17 18 18 17 15 14 14 14 14 16 17 18 19 17 17 17 19 20 21 20
27 29 31 30 27 20 16 15 11 5 4 8 13 14 12 15 17 20 18 17 19 18 18 17 18 19 19 20 19 16 15 17 19 19 22 21 20 18 18 19 19 21 22
27 26 27 28 29 23 17 13 12 6 3 8 12 15 14 16 14 17 20 19 19 19 17 17 15 12 17 19 19 18 18 19 16 17 19 19 18 18 18 20 19 21 22
27 28 28 25 27 24 20 10 10 8 5 3 8 14 14 14 18 15 18 21 19 16 14 14 17 14 13 14 14 16 15 16 17 18 19 18 19 17 17 20 20 22 23
26 27 28 28 25 24 25 19 10 8 6 5 4 11 15 17 16 18 18 19 14 15 15 16 16 12 14 19 18 19 18 19 20 21 17 18 18 18 19 20 21 21 22
24 25 27 27 26 25 27 20 12 7 5 5 2 8 20 19 21 19 19 16 15 15 16 17 18 17 16 18 17 16 17 18 17 18 18 18 19 19 20 21 21 20 21
25 27 26 26 25 25 27 19 11 7 4 2 4 4 10 19 18 20 20 20 21 17 18 19 20 20 19 11 13 15 16 14 14 18 19 19 20 20 20 20 18 20 20
19 25 27 24 26 25 25 21 13 10 10 10 9 5 5 14 21 18 23 23 22 22 22 20 22 19 15 16 17 16 13 12 13 16 18 17 19 19 19 19 17 17 20
16 22 26 25 24 24 25 23 21 20 15 13 7 7 4 8 17 23 25 23 26 26 21 18 16 16 17 16 16 14 11 12 13 12 13 14 17 18 16 13 14 19 18

GFSSE_500_spd_063.txt.gz
Wind_Speed
9 6 5 6 7 2 2 4 6 8 9 8 10 11 10 9 9 11 10 9 10 9 8 8 7 8 11 12 11 11 11 13 13 13 13 15 15 13 13 14 15 16 16
12 7 3 6 7 5 0 4 7 9 10 9 9 10 10 9 10 12 12 10 8 8 9 9 8 10 12 11 11 11 12 13 12 12 13 14 14 12 12 11 13 13 13
12 9 7 7 8 6 2 4 7 8 10 10 9 9 9 10 12 12 11 9 8 8 9 11 11 12 12 11 11 11 12 12 11 12 12 13 13 11 10 9 10 11 11
11 10 7 5 7 6 3 3 6 8 9 9 9 8 9 11 13 14 13 11 11 9 11 12 13 13 13 13 12 12 13 11 11 13 12 11 10 11 10 8 8 9 10
7 8 8 5 3 5 3 2 5 7 9 9 9 9 8 8 12 12 17 15 13 12 12 13 14 14 14 14 12 11 11 11 12 12 12 12 11 11 11 10 9 8 8
8 2 3 7 4 1 3 4 5 7 9 9 9 8 9 10 11 10 15 19 13 13 13 13 14 14 15 14 12 12 10 10 10 11 11 11 11 11 10 10 10 9 9
6 5 2 2 4 4 2 5 5 7 8 10 10 10 10 11 12 12 9 12 10 12 12 13 13 14 12 13 12 12 11 10 10 9 8 9 10 11 10 10 9 9 8
23 7 10 6 5 4 1 3 6 6 8 8 8 11 12 13 12 13 12 9 9 12 12 12 13 14 12 12 12 13 11 11 10 9 8 8 8 9 8 8 7 7 7
23 17 12 12 10 9 8 4 5 8 9 9 9 10 11 13 12 12 11 11 10 9 10 12 14 15 14 13 12 13 11 11 10 9 8 7 7 7 7 6 6 4 5
24 26 13 10 11 11 8 8 8 8 10 8 9 10 12 12 11 11 10 10 10 9 8 12 13 14 14 14 14 14 13 12 10 8 6 5 4 4 5 5 4 2 2
27 26 25 10 12 15 12 9 10 11 11 12 11 11 10 11 11 11 9 9 9 7 9 15 14 15 15 14 14 14 13 11 10 8 6 5 4 2 1 1 1 1 1
33 30 28 26 11 16 15 11 12 14 13 13 14 12 11 11 11 11 11 10 10 8 7 18 17 14 13 13 14 14 13 11 10 9 8 7 6 5 5 5 5 5 5
34 30 32 33 9 11 14 13 12 15 15 15 15 12 12 12 12 12 11 10 10 10 9 16 15 13 13 12 13 13 13 12 12 11 10 10 10 9 9 10 10 11 8
33 32 31 35 17 11 14 12 10 13 15 16 16 14 13 12 12 12 12 11 10 11 11 12 17 16 15 12 15 16 16 15 14 14 14 14 14 13 14 14 16 17 15
32 33 29 32 31 4 14 12 11 13 16 14 14 14 15 14 11 11 11 11 11 11 11 13 15 16 17 17 17 18 18 18 17 17 18 19 18 19 19 18 14 19 19
33 33 33 30 32 13 10 12 16 7 14 14 13 15 14 14 11 14 12 12 10 11 13 12 13 15 15 16 15 15 15 16 16 15 14 13 15 16 16 17 19 21 16
31 31 31 32 25 22 9 10 8 17 8 13 13 11 7 11 10 13 13 12 11 13 14 14 13 14 14 13 13 14 14 14 15 15 15 15 13 12 13 14 16 16 15
30 30 28 28 27 22 15 12 9 1 5 13 13 13 10 11 7 12 13 14 14 16 18 20 18 17 15 15 15 15 14 14 13 11 12 13 13 13 14 15 16 16 17
26 27 27 25 23 22 20 12 4 7 7 9 15 18 16 15 10 11 15 15 14 14 13 13 13 15 18 17 17 14 13 14 14 13 13 15 15 16 16 17 19 18 19
21 23 25 26 22 21 20 14 8 4 7 9 10 13 16 12 19 17 15 15 17 16 17 17 17 19 18 18 18 19 18 17 16 15 14 15 15 16 17 18 17 19 20
16 18 21 24 24 23 22 18 11 9 6 8 9 12 13 13 16 16 16 13 19 19 17 18 20 16 12 13 17 17 17 16 14 13 12 16 14 15 16 18 18 18 18
17 17 19 21 22 24 25 18 10 7 6 6 7 8 15 14 18 18 19 16 19 19 18 16 16 19 16 15 16 17 16 15 14 14 15 16 16 17 18 20 19 18 19
17 16 18 20 23 22 23 23 15 7 6 6 4 10 15 14 23 16 19 18 19 19 17 17 17 18 18 17 24 17 17 15 15 16 16 16 17 18 20 22 20 19 20
19 17 17 20 22 21 21 20 20 9 9 8 8 7 10 13 16 18 19 20 20 21 18 17 17 18 18 19 19 17 15 14 15 15 15 16 17 18 20 21 21 21 21
23 16 17 21 19 20 19 20 16 16 10 11 11 11 8 10 11 17 18 17 24 21 19 17 20 19 20 17 14 11 13 14 12 13 14 14 15 19 21 20 19 17 19
20 13 17 20 18 20 20 22 18 16 11 10 8 6 6 8 11 18 21 26 26 26 24 24 21 21 21 15 16 18 17 12 12 12 10 10 12 15 18 18 15 14 15

GFSSE_500_spd_069.txt.gz
Wind_Speed
4 3 3 4 4 3 6 7 8 9 10 11 10 11 18 17 16 16 15 13 14 14 13 12 12 12 13 12 11 12 11 12 12 12 12 13 12 12 13 14 13 11 12
2 3 2 4 2 3 5 6 8 9 10 11 10 10 12 19 13 15 15 13 13 13 12 12 14 13 13 12 12 13 12 12 12 12 12 12 13 11 11 11 12 10 10
4 2 3 3 3 2 5 7 7 9 9 9 10 10 9 18 16 15 15 13 12 12 12 12 14 12 13 12 12 13 12 12 11 12 11 12 13 11 10 9 10 10 10
5 2 3 3 2 2 4 6 7 7 8 9 9 8 8 15 17 16 15 14 12 12 12 12 13 14 14 12 13 13 12 11 12 11 9 11 11 11 10 9 8 8 8
1 2 2 4 5 3 4 5 8 7 7 9 9 9 10 13 15 16 15 14 13 13 12 13 14 14 15 13 14 13 12 12 12 10 9 10 11 10 9 9 8 6 6
5 2 3 2 6 6 6 5 7 9 9 9 9 9 9 10 13 16 15 14 14 15 14 14 15 14 14 14 14 13 13 13 12 11 10 9 11 11 10 9 8 7 5
20 1 4 4 4 8 8 7 7 9 11 10 10 10 10 8 13 13 15 16 15 15 15 16 15 14 13 12 13 13 12 12 13 11 9 8 8 9 9 9 9 9 7
23 18 6 7 7 7 9 10 9 9 9 10 10 9 11 12 11 14 15 14 15 16 16 17 17 16 14 13 12 12 12 13 12 11 9 8 8 8 8 8 7 7 7
22 20 15 6 11 10 9 9 10 10 10 9 10 11 12 12 12 15 16 16 16 16 16 17 17 17 15 14 12 11 11 12 12 10 9 8 6 5 6 6 6 6 5
27 24 18 2 13 13 10 9 11 11 12 11 11 11 11 11 12 13 15 14 17 17 17 17 18 17 15 14 12 11 11 10 10 9 8 7 7 5 4 4 4 2 2
31 27 25 7 9 17 11 10 12 12 12 11 12 11 10 11 11 12 14 16 17 16 17 18 18 17 17 15 14 13 12 11 9 9 8 7 6 6 5 4 3 3 3
33 33 30 9 6 8 9 13 13 14 14 13 11 12 13 14 13 13 13 12 15 16 17 18 18 18 17 15 14 14 13 11 10 9 8 7 7 6 6 6 6 6 6
39 35 31 29 4 0 9 15 13 15 15 13 12 12 14 14 15 14 13 14 15 14 13 17 17 17 17 16 15 15 14 13 11 12 9 9 8 10 10 11 11 12 13
37 37 34 29 25 7 8 10 13 13 16 16 15 14 13 12 13 13 13 14 16 16 13 17 20 20 20 18 18 16 16 15 15 14 13 13 13 13 14 15 16 16 20
32 34 33 29 23 19 2 6 11 11 14 16 16 16 16 16 15 15 14 13 13 15 14 15 22 21 20 19 19 18 17 17 17 17 17 17 17 16 18 19 19 21 21
28 30 31 27 25 19 15 6 5 8 9 13 14 17 17 18 18 18 17 15 14 14 15 16 20 20 20 20 20 19 20 20 20 20 20 20 19 18 16 16 17 17 17
28 25 28 27 24 22 14 16 8 12 11 13 14 16 18 20 18 19 17 17 16 16 15 15 16 18 20 21 22 21 20 21 22 20 22 22 20 18 17 15 15 16 15
24 23 24 25 24 24 21 10 13 9 16 16 13 15 17 19 18 21 20 19 17 17 15 14 16 16 16 16 19 19 20 20 18 18 17 19 21 20 18 17 15 16 17
20 20 20 24 23 24 22 17 8 6 5 13 17 15 18 14 22 19 20 19 20 18 16 17 16 18 17 17 18 19 20 20 17 17 17 18 17 16 16 14 17 18 18
15 16 18 22 22 22 21 19 12 10 8 7 9 14 17 19 19 21 18 19 21 19 18 17 19 19 21 21 20 20 20 20 18 19 17 18 17 17 17 20 12 21 20
16 18 19 20 21 20 19 18 17 11 9 10 11 11 16 19 23 26 23 19 18 19 19 18 17 17 17 17 16 19 20 21 21 21 22 20 19 16 15 13 15 22 20
16 19 20 18 20 18 19 18 19 16 10 11 12 10 13 17 18 22 23 25 23 21 19 19 18 18 18 17 20 18 18 22 23 23 20 18 17 17 17 17 17 20 21
18 20 20 14 19 18 19 18 18 16 14 12 12 11 9 16 19 20 22 22 22 21 19 18 19 18 17 17 18 18 18 20 21 23 22 20 18 18 19 19 20 21 23
22 22 19 12 15 17 17 19 19 20 15 13 15 12 10 10 15 19 18 20 20 23 20 19 18 18 18 19 19 23 23 24 23 28 24 20 19 19 19 20 21 22 24
25 21 11 10 13 16 16 19 19 20 17 13 11 14 16 11 12 15 21 23 22 20 21 22 21 19 19 20 21 21 29 27 24 29 24 14 16 17 18 19 20 23 25
22 9 7 10 11 14 17 19 19 19 17 14 10 9 13 13 10 12 18 19 25 28 23 23 22 21 20 21 21 21 23 16 12 14 16 15 18 14 15 16 18 21 21

GFSSE_500_spd_072.txt.gz
Wind_Speed
2 3 3 5 6 6 6 6 7 9 10 12 12 15 14 15 14 15 14 12 11 11 10 11 11 11 13 12 12 12 13 13 12 14 14 15 15 13 13 12 13 12 12
5 3 3 4 5 5 7 7 7 7 7 8 9 12 16 16 16 14 13 12 12 12 11 10 10 12 13 13 12 12 13 13 12 12 13 14 14 13 12 11 11 9 9
5 4 3 4 5 6 7 7 8 7 7 8 7 9 16 18 15 15 14 13 12 11 11 11 11 12 11 12 13 13 13 12 12 12 11 12 13 12 11 10 11 10 8
3 4 4 4 4 6 7 6 7 8 8 7 8 6 8 18 14 14 14 14 13 12 11 11 12 11 11 11 12 13 13 12 12 11 10 10 11 12 10 10 9 9 8
7 2 3 5 3 6 7 7 7 7 8 8 7 6 8 17 18 15 13 13 13 12 11 11 12 12 11 10 11 12 13 11 11 9 9 9 11 11 11 10 9 8 8
4 2 1 4 5 3 7 7 7 8 8 7 6 5 7 13 18 16 14 13 12 11 10 11 12 11 11 10 11 11 13 12 11 9 10 9 9 10 9 9 9 7 7
14 13 4 6 6 5 5 7 8 8 9 9 8 6 5 6 18 17 15 13 13 12 11 12 12 12 11 11 11 10 11 11 10 10 10 8 9 9 9 8 9 8 7
26 19 8 12 9 6 7 7 7 8 9 9 7 7 6 3 9 12 15 15 13 12 13 13 13 12 12 11 10 11 10 10 11 8 8 8 7 8 7 7 7 7 6
29 23 18 10 15 11 8 9 8 8 8 8 8 8 7 6 7 10 14 15 14 14 14 15 14 13 12 11 11 11 11 10 9 9 9 10 8 6 5 5 5 5 4
39 31 11 7 13 14 11 10 10 10 9 9 10 9 8 8 8 10 12 14 15 15 15 15 15 15 13 12 10 12 11 10 10 9 4 7 7 6 5 4 2 2 2
38 38 31 38 14 17 13 10 9 9 10 9 8 10 9 10 10 10 13 13 15 15 15 16 17 16 14 13 12 11 12 11 8 7 8 6 6 4 3 1 1 2 2
39 37 35 37 4 12 14 11 7 9 10 9 8 7 9 11 12 12 11 11 15 16 16 18 18 18 17 15 14 13 12 11 10 9 7 5 3 3 2 3 5 6 6
38 38 37 32 33 8 3 7 8 9 10 10 9 8 9 10 11 11 12 12 17 16 16 16 18 18 18 16 14 13 13 13 12 10 9 8 6 6 7 8 9 10 11
33 35 34 33 29 23 5 3 8 10 10 11 11 11 10 10 11 13 13 13 15 18 15 15 17 18 17 18 17 16 15 14 13 13 11 11 11 12 12 13 13 14 14
32 29 30 29 26 22 16 8 4 8 8 11 12 12 12 12 12 13 14 14 16 18 16 14 18 19 19 19 18 18 17 17 16 15 16 16 16 17 16 17 18 19 18
32 22 24 24 24 23 17 13 6 5 9 10 12 13 15 16 15 15 14 15 16 17 17 17 17 20 20 20 20 20 20 20 19 20 19 20 18 19 19 19 18 18 18
32 17 21 22 21 19 17 11 13 8 10 10 10 14 17 17 18 17 18 17 17 15 16 16 15 19 22 22 21 22 22 21 22 22 22 22 22 23 23 19 20 18 17
27 19 19 23 22 21 17 14 4 5 10 12 14 15 17 17 19 20 20 20 19 17 17 17 16 17 20 22 23 23 24 24 23 23 24 24 22 21 21 23 22 23 19
23 22 22 22 22 20 20 17 13 7 4 8 12 20 17 18 21 22 21 22 21 22 20 20 19 20 19 20 21 20 21 20 22 22 22 23 22 20 21 20 21 22 24
25 24 25 22 21 20 19 18 16 13 8 8 10 13 18 19 20 21 23 22 21 23 21 19 19 19 19 21 20 19 20 21 22 22 21 23 21 22 21 18 18 24 24
28 26 26 27 20 18 18 17 16 13 11 10 12 13 15 15 21 22 24 22 23 22 25 20 19 18 21 22 20 21 21 21 22 22 21 23 19 26 26 17 14 18 21
26 28 28 27 22 17 17 18 16 15 13 10 10 11 12 15 17 23 27 25 23 23 23 23 21 19 20 17 18 20 21 22 24 24 24 27 24 27 20 18 15 20 24
24 28 29 26 17 15 15 17 18 19 17 14 11 11 11 12 14 16 21 24 25 26 26 22 23 21 22 21 20 21 22 21 20 18 22 24 26 22 21 20 22 22 21
25 29 26 19 14 15 15 17 19 19 18 15 13 12 13 12 12 14 15 16 22 22 23 22 22 21 22 21 20 21 22 22 21 21 18 15 23 22 24 23 23 22 23
24 27 17 11 12 12 13 16 18 19 15 15 13 11 9 15 14 10 13 15 14 20 20 24 21 25 23 21 23 21 21 23 24 25 29 25 29 27 23 22 21 20 20
20 16 12 14 13 10 11 14 15 17 16 14 14 8 8 9 12 10 10 14 17 22 26 25 28 25 26 24 21 21 22 24 21 23 17 25 28 21 20 20 18 16 17

GFSSE_500_spd_075.txt.gz
Wind_Speed
4 2 4 5 6 7 7 7 7 7 8 9 10 10 10 11 16 14 9 9 10 12 12 12 11 10 11 11 13 14 13 13 13 13 16 17 17 15 14 12 13 13 12
7 2 3 4 6 7 7 6 6 8 7 7 8 12 13 12 14 14 11 10 10 10 11 12 12 11 10 12 12 13 13 13 13 13 13 15 16 15 14 12 11 11 10
4 1 3 4 4 7 8 8 8 8 7 7 7 9 14 14 13 13 12 11 11 10 10 11 13 12 11 11 12 13 12 12 12 12 12 12 13 14 14 13 12 10 8
6 4 2 4 4 8 9 9 9 8 7 7 7 7 11 14 15 13 12 11 11 11 10 11 13 12 11 11 12 12 12 12 12 10 10 12 11 12 13 12 12 10 10
2 1 2 4 5 8 10 10 10 9 7 8 8 6 6 17 15 14 13 12 12 11 9 12 12 12 11 10 11 12 12 12 11 9 8 10 9 11 11 12 12 10 10
20 3 5 4 7 7 10 11 10 9 8 8 8 6 6 13 16 14 12 12 11 10 10 11 12 11 12 10 9 11 11 11 10 8 9 9 8 9 9 9 9 9 8
9 12 6 7 7 8 7 10 10 10 8 8 7 7 6 8 15 16 14 12 10 11 10 12 12 11 11 11 9 11 12 12 11 8 9 10 9 9 9 8 8 8 7
13 26 19 6 11 8 10 8 9 9 8 8 7 5 6 3 17 17 14 12 12 11 11 12 13 12 11 11 10 10 12 11 9 10 6 9 10 10 9 8 8 8 7
7 35 33 2 12 11 10 9 8 9 8 6 7 7 6 8 10 15 13 13 12 12 11 12 13 12 12 11 11 10 11 11 9 7 8 6 10 9 8 7 7 6 6
33 39 42 5 9 10 9 9 7 7 8 8 7 7 7 7 7 9 12 15 13 12 13 13 14 13 12 10 11 11 11 10 8 8 10 6 5 7 6 5 4 4 4
35 37 38 23 8 8 7 9 9 7 6 6 7 6 8 9 8 9 12 13 14 12 13 14 14 14 12 11 9 9 11 11 11 10 7 7 5 4 4 3 2 2 2
31 33 33 32 6 11 11 7 8 8 6 4 4 6 6 7 9 8 12 10 14 14 13 14 15 15 13 12 10 10 9 10 10 9 9 7 5 4 3 3 2 3 4
25 27 29 31 23 8 4 9 7 6 6 6 6 5 5 7 9 9 10 13 13 16 14 14 15 15 14 13 11 12 11 10 10 10 8 7 7 6 6 7 7 8 9
27 24 27 24 22 17 9 1 6 5 7 8 8 8 7 7 9 9 11 13 16 16 15 14 15 15 16 15 14 14 13 13 12 12 11 11 11 10 10 11 12 12 14
28 26 26 26 22 18 14 6 2 6 8 11 12 11 10 9 10 11 12 12 16 18 18 17 17 16 16 16 16 16 16 16 16 15 14 15 15 15 15 16 16 17 19
29 28 27 25 24 21 12 10 4 4 6 8 11 12 12 12 11 11 12 13 15 16 20 19 18 18 18 20 20 21 20 19 18 18 19 20 19 19 19 18 19 19 19
30 27 27 24 21 21 17 9 7 5 1 9 9 12 12 14 14 15 13 14 15 16 19 20 19 19 22 23 23 24 21 22 22 21 22 22 22 22 22 24 24 21 19
26 27 28 28 22 17 17 16 8 5 3 2 8 14 17 16 17 17 16 20 20 19 17 19 21 20 19 24 24 25 23 23 21 21 22 22 23 25 24 24 24 23 22
24 27 28 30 28 19 16 16 16 12 7 4 5 11 17 16 18 20 22 19 25 21 20 20 21 19 18 19 22 23 23 23 24 25 25 23 22 23 23 23 21 21 22
22 24 26 29 27 20 17 16 16 15 13 8 9 10 9 18 19 20 22 21 21 18 20 22 23 22 19 19 19 20 21 22 23 24 22 23 23 21 23 22 27 18 24
21 26 27 30 25 18 14 15 16 17 16 13 9 12 12 13 17 24 26 25 24 23 26 25 26 23 21 19 19 21 21 25 22 23 23 21 24 22 24 28 26 21 24
19 24 26 28 20 15 13 12 14 15 16 16 14 11 12 14 14 16 22 26 29 26 27 27 26 24 21 20 19 21 24 22 22 24 20 22 26 26 27 24 23 23 21
18 22 24 23 13 13 12 11 13 14 13 12 12 11 12 13 12 14 13 22 30 30 25 28 27 26 24 20 20 22 22 22 24 23 21 21 22 28 25 25 23 19 21
19 20 20 15 13 12 12 13 14 16 18 16 14 12 12 14 11 9 10 13 30 30 29 25 24 27 25 24 23 25 25 24 23 23 20 22 21 25 27 23 23 22 23
17 17 15 15 14 14 12 14 15 16 17 16 14 14 10 10 13 10 10 11 10 21 26 25 25 24 25 23 24 26 25 23 22 23 27 28 28 29 25 21 26 24 20
16 15 13 13 15 15 15 15 15 13 13 14 14 14 11 8 10 8 10 10 12 13 12 21 21 25 23 24 25 26 26 22 22 22 22 22 16 19 27 23 24 22 21

GFSSE_500_spd_078.txt.gz
Wind_Speed
4 4 5 5 7 7 8 7 7 6 5 5 6 7 8 11 11 7 5 7 9 11 12 12 12 11 10 9 10 12 13 13 14 13 13 15 15 16 15 14 14 13 13
4 6 5 4 6 8 8 9 8 6 5 5 6 8 8 8 9 9 5 6 9 11 12 12 12 11 10 10 11 12 12 12 13 12 14 13 14 15 15 12 12 12 12
2 4 5 5 5 7 9 9 9 8 6 6 6 7 9 9 10 16 12 9 9 9 10 12 13 12 11 11 12 11 11 11 11 11 13 13 12 13 14 13 12 11 11
5 3 4 5 5 7 8 9 10 10 8 7 6 5 8 11 11 12 12 10 9 8 8 10 12 12 12 12 13 13 11 11 9 8 10 11 10 10 11 11 13 12 10
18 4 2 4 5 7 9 9 10 10 10 9 7 6 6 11 13 13 11 9 9 8 8 10 11 13 13 12 13 12 11 10 9 8 9 10 9 10 9 10 10 10 10
17 13 6 5 7 7 10 10 11 10 10 9 8 6 6 10 12 12 11 10 8 7 8 10 12 12 13 13 13 12 11 10 8 8 8 9 8 9 8 8 8 9 8
24 20 8 9 9 10 10 11 11 11 10 9 7 5 6 10 15 12 11 11 9 9 9 11 12 12 12 13 14 13 11 11 11 10 8 9 8 9 9 7 6 7 6
29 29 9 11 14 11 11 12 11 11 10 10 8 5 5 8 15 16 13 12 11 10 10 12 12 11 12 11 13 12 12 11 9 9 9 5 7 9 10 9 8 7 7
33 34 9 15 16 11 12 11 10 11 11 10 8 7 5 3 14 18 15 13 11 11 11 12 12 11 12 11 12 12 12 12 10 8 11 8 6 7 8 7 6 6 6
30 31 23 7 12 13 10 10 10 10 11 11 10 9 7 8 10 16 16 14 12 12 12 13 13 12 10 11 11 11 10 10 10 10 9 10 8 5 4 4 4 4 3
27 29 26 9 10 9 8 9 8 10 9 10 10 8 8 9 11 13 15 16 15 13 13 13 13 12 11 8 9 10 11 9 9 11 11 9 8 6 4 2 1 2 2
26 29 31 17 8 7 7 8 8 7 9 8 8 7 7 9 10 9 12 13 17 14 13 13 13 13 12 11 9 9 9 8 8 8 8 8 7 5 4 2 2 4 4
28 28 30 27 18 4 8 8 9 7 7 9 9 8 8 8 9 9 12 13 16 16 14 14 14 14 14 12 11 9 10 11 11 9 8 9 8 6 6 5 6 9 10
26 27 27 26 20 14 5 6 7 8 9 9 9 9 7 8 8 10 11 13 15 18 16 14 14 14 15 14 13 11 11 12 12 12 11 10 9 9 9 10 11 12 13
26 26 25 23 20 16 10 7 4 8 9 11 11 10 9 8 9 10 11 13 15 17 18 17 17 17 17 16 15 14 15 15 15 13 13 14 14 13 14 15 16 16 17
26 26 26 23 20 19 16 9 9 6 7 11 13 13 13 12 12 13 13 14 15 16 19 19 19 19 19 19 19 18 18 19 18 17 17 18 16 18 20 19 20 20 19
22 23 25 25 20 16 15 14 7 5 6 11 12 14 15 16 17 16 15 14 16 17 18 22 20 20 22 22 23 22 22 21 19 19 19 20 20 21 23 24 24 24 25
19 21 24 24 21 14 14 14 12 9 7 5 12 15 16 19 19 19 17 18 16 18 20 22 22 22 19 22 23 24 24 23 22 20 22 22 21 23 24 27 26 25 24
19 20 22 25 25 14 11 11 13 11 9 8 9 12 19 18 18 17 19 21 20 20 20 21 24 24 22 22 21 25 25 24 23 23 24 23 24 24 26 27 24 24 23
17 20 20 23 23 12 9 9 11 11 9 8 10 12 10 17 22 20 21 23 24 25 25 25 24 23 24 21 19 21 24 26 25 26 25 24 23 24 26 26 25 23 22
17 18 20 21 19 12 10 11 13 14 13 10 10 12 14 16 16 17 23 24 28 29 28 27 25 25 23 21 20 21 22 22 23 21 22 24 24 23 25 26 27 27 26
18 19 18 18 15 13 11 11 13 14 15 13 9 10 13 15 16 16 20 13 29 27 27 29 28 24 23 21 22 24 25 25 25 25 24 23 22 23 24 27 29 31 23
18 19 15 14 14 15 12 13 15 14 16 15 13 11 11 12 14 15 15 21 22 31 30 30 29 30 28 26 25 27 27 26 25 25 25 24 25 24 23 26 31 28 18
20 19 13 13 12 13 14 15 17 18 16 16 14 13 10 11 14 13 13 12 11 20 30 29 30 31 27 30 27 27 27 27 27 27 28 26 23 23 24 24 27 21 21
25 21 14 10 10 12 14 16 18 19 19 17 15 13 10 8 10 13 13 12 14 13 31 33 28 26 25 25 29 31 28 29 29 28 25 27 25 22 26 28 23 22 24
23 24 17 10 10 12 13 15 17 19 19 19 18 14 15 9 8 11 11 12 9 9 5 24 29 25 26 31 28 29 27 27 29 30 26 23 25 23 19 18 26 28 27

GFSSE_500_spd_081.txt.gz
Wind_Speed
3 5 4 3 4 5 9 11 9 8 8 6 7 9 13 14 9 8 7 8 9 10 11 12 9 8 8 9 10 11 12 12 13 15 14 14 15 15 15 15 16 16 15
3 4 6 5 5 6 6 8 9 7 7 7 7 10 12 13 11 8 6 7 8 9 11 11 10 8 8 9 11 11 11 12 12 15 13 13 12 14 14 12 14 13 14
0 3 6 6 6 8 8 7 8 7 5 6 7 7 8 9 12 15 8 7 7 9 10 10 10 9 9 10 10 11 10 11 11 11 12 13 11 11 13 11 11 11 12
2 2 5 7 5 8 9 10 9 8 7 5 5 6 8 7 8 11 7 7 8 8 9 9 10 9 9 10 10 11 11 11 10 10 9 11 10 9 11 10 10 10 9
8 2 4 7 8 7 9 11 11 9 8 5 4 5 6 8 8 12 11 9 8 8 7 10 10 10 10 11 11 11 11 9 9 9 9 10 10 9 9 8 8 8 9
15 6 8 8 9 8 10 11 13 11 9 6 4 4 5 9 10 8 9 8 8 7 8 9 9 10 11 12 12 12 10 9 8 9 8 9 8 9 8 7 7 7 7
29 24 3 14 10 9 10 12 14 13 10 8 6 4 5 10 12 10 8 7 7 8 9 10 9 10 11 12 12 12 10 7 8 7 8 8 7 7 7 8 6 6 6
35 27 3 17 16 12 8 12 14 12 12 11 9 5 4 8 14 12 9 8 7 8 8 10 11 11 11 10 11 10 10 9 8 8 10 9 6 5 6 7 7 6 6
37 24 9 10 14 15 11 9 13 11 12 12 10 8 7 8 12 14 12 10 9 8 8 10 11 11 11 10 11 11 9 9 8 8 9 10 8 5 5 6 6 6 6
34 27 10 8 10 12 13 10 9 11 12 12 12 10 7 5 10 15 14 11 11 10 10 11 11 11 11 10 9 10 9 8 6 6 7 8 8 6 5 5 5 4 5
33 33 12 9 9 9 11 10 10 9 10 11 10 10 9 6 8 14 15 14 13 12 12 12 13 11 10 10 10 10 9 8 7 7 8 8 6 5 4 4 3 2 3
29 31 29 9 7 6 7 8 8 7 8 8 9 9 8 8 7 10 14 15 16 14 14 13 14 13 12 10 10 9 10 10 7 7 5 6 6 4 2 1 1 2 5
25 26 25 22 17 3 4 5 7 9 9 9 10 11 10 9 11 10 12 14 16 15 15 14 15 16 14 13 11 8 9 11 10 9 8 7 5 4 4 4 5 7 9
22 21 19 20 20 15 9 5 8 10 11 13 12 10 9 10 10 11 10 12 13 16 15 16 15 16 16 15 13 12 11 10 9 10 9 8 8 7 9 9 9 11 14
19 19 21 19 17 15 12 8 4 11 12 13 14 14 12 11 11 11 12 13 15 15 16 16 17 18 18 17 15 14 14 12 12 11 11 11 11 10 11 13 14 15 17
16 18 19 20 15 13 11 11 6 3 11 12 15 16 15 14 14 13 13 13 14 15 16 18 18 19 19 19 17 17 15 15 14 13 15 14 14 14 15 16 18 19 19
16 16 19 20 20 10 10 10 9 4 3 10 11 14 16 15 15 14 14 15 16 17 16 21 21 20 20 20 20 20 19 18 17 18 18 18 18 18 19 19 21 22 22
19 18 17 20 22 11 7 9 9 7 4 4 9 14 17 18 19 18 17 17 17 17 17 19 21 22 22 22 21 20 21 20 20 20 21 20 21 20 21 21 22 22 23
20 20 19 20 21 12 8 9 10 10 8 7 8 10 17 19 20 20 20 18 19 19 19 20 22 26 24 22 22 21 23 23 22 21 21 22 22 22 24 24 23 24 23
20 21 18 19 17 12 10 10 13 14 11 9 9 9 14 13 20 20 19 21 23 23 24 22 23 23 24 25 24 24 23 23 24 23 22 23 24 25 26 26 25 24 21
20 22 19 16 14 12 11 11 13 14 15 13 11 11 11 14 15 15 20 25 23 26 28 28 26 25 25 24 24 24 24 22 22 24 22 23 23 22 25 26 24 24 25
22 22 19 14 13 11 11 12 14 16 17 16 15 13 12 13 15 16 18 18 18 27 31 30 26 28 26 26 25 24 24 23 24 24 22 22 24 24 24 24 24 25 24
25 24 18 13 10 11 12 12 14 17 18 17 16 14 14 12 13 15 16 17 21 22 25 31 31 29 27 27 25 25 25 25 27 26 25 26 26 24 27 26 26 22 24
28 24 20 12 8 8 11 13 15 17 19 16 16 14 13 10 12 14 15 15 14 18 18 35 34 32 31 30 28 27 27 29 28 29 26 24 25 26 26 24 25 25 25
27 24 24 13 8 9 12 13 16 17 17 18 17 14 11 10 7 10 13 14 13 14 17 16 31 31 32 32 29 28 31 31 29 29 28 27 28 29 25 24 25 29 30
26 26 24 14 9 9 12 13 14 16 16 17 15 15 12 11 5 6 9 11 10 9 7 9 26 30 29 28 29 29 29 31 32 31 31 30 28 30 25 27 24 24 21

GFSSE_500_spd_084.txt.gz
Wind_Speed
2 1 3 4 8 8 10 12 11 11 12 9 7 7 5 15 7 5 8 9 9 9 8 9 8 8 8 10 12 13 12 13 15 15 15 15 16 17 17 17 17 19 18
3 3 5 5 7 9 11 11 11 9 9 9 10 8 9 10 7 5 7 8 8 9 8 9 7 7 8 9 12 12 12 12 14 15 14 13 14 15 15 15 16 16 16
3 5 5 6 5 7 11 12 11 11 10 11 10 10 11 12 10 8 5 6 8 9 9 8 8 8 9 10 10 11 11 12 12 13 15 12 11 12 13 12 13 14 14
4 4 5 7 5 5 8 14 14 12 10 10 10 10 9 12 13 12 7 6 7 8 8 9 9 8 9 9 9 10 10 11 11 11 13 13 11 11 11 11 11 12 11
4 5 6 6 6 4 7 11 15 13 11 10 10 9 9 9 10 12 9 6 7 8 8 9 9 9 11 10 10 10 9 9 9 10 9 10 10 11 11 10 10 11 11
8 10 11 11 8 5 7 9 13 14 12 9 10 9 7 9 9 13 9 8 8 8 8 10 9 9 10 11 10 9 8 7 8 10 9 9 8 9 9 10 9 9 10
21 5 15 16 13 9 7 9 13 13 12 11 9 8 7 9 11 15 12 10 9 8 9 10 9 9 10 10 10 9 8 7 7 9 9 9 8 7 6 7 8 8 7
20 13 8 15 15 12 9 10 12 13 12 11 11 8 8 11 13 11 11 10 10 9 10 10 10 8 9 11 11 11 9 8 7 8 9 10 8 8 7 7 7 7 7
21 18 10 9 11 11 9 10 12 12 11 11 11 9 9 8 15 12 9 9 10 10 10 11 10 8 8 10 12 11 9 8 6 6 6 8 9 8 8 6 8 7 8
26 16 11 8 8 10 9 7 10 11 12 11 10 9 7 8 13 16 13 10 9 10 11 11 10 9 9 8 11 10 8 7 5 6 5 6 8 8 7 6 7 7 6
29 21 14 8 8 8 7 8 6 9 10 11 10 9 7 6 9 15 14 12 11 10 10 11 11 11 10 9 8 10 9 7 5 5 5 6 6 6 7 5 5 4 4
26 24 23 12 9 4 5 5 7 7 9 10 11 10 8 6 7 12 13 12 11 11 11 11 12 12 11 9 8 9 9 8 6 7 6 5 5 5 5 4 1 2 4
23 22 21 17 14 5 1 4 6 7 8 10 12 11 10 9 8 8 11 12 12 12 12 13 14 14 12 10 10 9 9 9 8 10 9 7 6 5 3 2 3 5 8
21 21 20 17 16 12 6 3 5 8 9 10 12 12 11 10 12 11 10 12 12 15 14 14 16 16 15 14 11 10 10 10 9 9 8 8 7 7 5 5 6 9 10
18 20 19 18 14 11 9 3 1 6 13 12 12 12 12 13 13 14 13 14 14 13 16 15 16 17 16 16 15 13 11 11 12 11 11 10 8 8 9 8 9 12 14
16 16 18 19 13 8 8 9 3 2 7 12 15 15 14 13 14 14 15 14 14 13 14 18 17 18 17 18 17 16 15 14 14 13 13 12 11 11 12 12 14 15 16
18 14 15 18 16 6 8 9 9 5 2 5 7 17 16 15 15 14 14 15 14 15 16 17 19 20 19 19 19 19 19 18 17 16 16 15 14 15 14 16 16 18 19
18 15 13 16 16 11 9 10 10 10 7 5 5 10 14 16 17 17 17 16 15 16 16 17 20 21 21 20 18 19 20 19 19 19 18 18 17 16 18 18 19 20 21
17 15 14 14 14 12 11 11 13 12 10 7 4 9 10 15 18 21 22 20 19 18 17 18 18 20 22 22 20 20 21 21 21 21 21 22 21 19 20 20 20 22 22
19 18 14 12 12 11 10 11 12 13 13 12 8 6 8 13 13 20 22 22 22 22 21 19 19 21 22 24 22 23 21 19 20 24 25 24 22 21 21 23 22 21 23
24 22 15 12 11 11 9 10 12 13 15 14 12 8 7 10 15 19 20 24 22 24 24 25 23 22 23 22 23 24 24 23 23 22 24 24 23 23 22 22 21 23 23
21 27 15 11 10 10 9 9 11 12 14 12 13 12 10 10 11 17 18 15 20 25 27 27 27 27 27 24 23 25 24 22 22 22 19 20 21 22 22 23 23 21 23
20 26 17 11 8 8 10 9 11 13 13 14 12 12 11 11 11 14 17 18 20 19 23 20 33 32 29 27 28 26 24 23 24 23 22 22 24 25 27 25 23 23 26
19 23 21 15 7 9 11 11 10 12 13 13 14 13 11 11 11 13 16 19 18 19 16 24 15 28 31 30 28 27 26 24 23 23 23 25 27 27 23 24 24 25 24
21 24 22 16 8 10 12 13 11 11 13 13 13 14 13 11 13 13 15 17 18 17 17 10 14 22 33 33 32 29 28 27 26 27 27 25 24 25 26 26 29 26 26
20 22 25 15 12 9 13 14 13 13 14 14 14 12 14 15 10 7 10 11 15 16 13 12 12 15 32 33 34 32 31 30 29 28 27 30 29 27 27 28 30 28 27

GFSSE_500_spd_087.txt.gz
Wind_Speed
1 4 5 4 8 9 9 9 11 13 14 14 13 7 6 18 16 9 9 10 10 11 11 11 10 11 11 12 13 12 14 14 15 17 16 17 17 16 16 17 17 17 17
2 1 3 4 7 10 12 11 9 10 12 12 13 10 19 13 9 8 9 10 9 9 11 10 9 11 10 12 13 12 13 13 14 15 14 14 15 14 14 15 16 16 17
1 1 2 3 4 9 13 14 12 11 11 11 11 12 13 9 9 9 9 9 9 9 10 10 9 10 11 11 12 12 13 11 10 13 14 13 11 11 12 13 15 15 15
1 4 5 5 5 7 11 13 14 12 13 13 12 13 11 10 11 9 8 9 8 9 9 10 10 10 12 12 12 12 12 11 11 11 13 13 10 9 10 11 12 13 13
5 8 6 6 7 6 11 14 14 14 14 14 13 13 12 12 11 13 7 8 7 9 9 10 10 12 12 12 11 11 11 11 10 10 11 12 11 9 9 9 10 11 11
7 11 10 9 9 8 10 14 15 14 15 15 15 15 14 13 12 14 9 8 8 8 9 10 10 11 12 13 12 11 10 11 11 11 12 11 10 9 8 7 8 9 10
18 3 12 13 12 10 11 13 15 15 15 15 15 13 14 14 12 14 10 8 8 8 8 11 10 10 12 12 12 10 9 10 10 10 10 10 10 9 8 6 6 7 7
22 15 5 11 12 11 10 11 15 16 15 13 13 12 12 15 16 17 9 9 10 9 9 10 9 10 11 11 12 11 7 8 9 9 10 10 11 9 9 7 7 7 7
20 16 10 7 10 9 11 10 13 14 14 13 12 11 12 12 18 18 13 11 10 9 9 10 10 9 10 10 11 11 8 8 8 9 9 9 11 10 11 10 8 9 8
20 15 10 7 7 7 9 11 11 11 12 13 12 11 11 12 19 18 17 13 11 10 10 11 11 10 9 9 11 11 9 8 7 7 7 8 10 10 10 11 9 8 8
24 14 10 8 6 4 7 8 10 10 10 11 11 10 10 9 15 19 17 15 13 12 11 12 12 10 10 10 12 12 11 10 8 7 7 8 10 10 9 9 8 6 4
23 20 13 9 5 4 4 6 6 8 9 10 10 10 10 8 11 21 18 18 15 13 12 12 12 11 11 12 12 13 12 11 9 9 10 9 8 9 8 6 4 3 2
21 20 17 12 8 3 4 4 5 6 8 10 11 10 9 11 12 16 19 18 16 15 14 13 13 14 13 12 13 12 12 11 10 10 11 10 9 7 6 5 4 2 2
18 20 17 13 11 8 2 3 5 7 8 10 11 11 11 12 13 15 17 17 17 17 15 15 14 15 14 14 12 11 11 11 11 11 10 9 9 8 6 5 5 5 6
13 16 19 13 7 8 7 1 3 7 12 12 12 13 13 12 12 14 14 15 16 17 18 16 16 16 16 15 14 12 11 11 11 12 11 10 10 9 8 9 9 10 10
12 13 20 15 6 6 8 8 6 6 7 18 16 15 14 14 14 14 14 14 15 15 18 19 18 18 18 19 18 16 15 15 14 13 12 11 11 11 11 12 13 14 14
12 11 16 16 9 7 8 9 8 7 4 2 4 19 18 17 15 15 16 16 16 16 18 21 22 20 19 19 19 19 17 16 15 15 15 14 14 14 15 16 16 16 17
14 12 12 14 9 7 8 9 9 8 5 4 4 5 14 18 17 17 18 18 18 17 17 19 20 22 22 21 20 20 19 18 17 18 18 16 17 17 17 18 19 19 19
21 17 10 11 8 6 5 9 9 9 9 7 4 6 9 12 20 21 20 20 19 19 19 18 19 20 23 23 22 21 20 20 20 19 19 19 20 20 20 21 20 21 21
17 23 9 10 10 6 6 5 6 7 7 7 7 4 7 13 18 19 21 22 23 23 22 21 20 19 21 23 23 22 20 20 19 20 21 21 22 22 23 22 22 22 22
13 17 9 7 10 8 6 6 6 6 8 6 6 7 6 9 14 18 17 18 22 26 26 25 22 21 21 22 23 25 24 22 21 22 21 20 22 25 25 24 24 22 21
10 14 15 6 7 9 7 6 7 7 8 8 8 8 8 9 11 16 21 18 20 28 28 27 26 27 26 25 24 24 23 23 24 24 22 20 20 20 22 22 23 22 23
9 11 15 10 6 8 9 9 7 8 8 8 9 8 9 10 11 14 18 20 20 19 29 29 29 30 30 29 27 25 23 23 25 24 23 20 20 21 22 24 23 26 25
11 11 16 17 8 9 10 10 10 7 6 8 8 8 8 7 9 13 14 17 19 20 20 24 20 29 33 35 31 28 29 29 28 25 24 23 22 23 25 26 24 23 25
15 14 15 18 11 9 10 10 11 8 9 7 8 8 6 7 6 11 13 15 18 18 20 17 15 18 21 22 33 31 30 31 28 26 25 24 24 25 23 23 25 25 26
20 15 17 18 18 10 12 12 11 10 9 8 5 6 7 5 5 7 7 10 14 14 15 19 18 20 21 21 25 32 29 25 26 28 28 31 30 30 29 27 26 27 26

GFSSE_500_spd_093.txt.gz
Wind_Speed
1 2 3 4 5 5 3 5 8 9 5 20 26 22 20 20 18 17 18 17 15 14 14 14 14 13 13 14 14 14 16 15 15 15 14 13 14 14 13 11 12 11 12
4 3 2 5 5 5 6 6 10 11 12 15 15 21 20 20 18 17 18 17 16 14 13 13 14 14 13 14 14 14 14 14 13 13 13 12 12 12 11 10 10 11 12
6 7 6 6 7 7 7 7 9 12 13 10 8 16 23 18 17 18 17 17 15 14 13 13 13 13 13 14 13 14 13 12 12 12 12 11 11 11 10 9 9 10 10
8 9 9 8 8 7 9 9 9 10 12 11 9 18 30 16 16 17 17 17 15 14 13 12 13 13 13 13 13 14 13 12 12 12 11 11 11 11 9 7 7 7 8
9 11 12 10 9 9 9 9 10 10 11 11 13 17 15 14 15 16 14 15 15 14 13 13 13 13 13 12 12 13 12 11 11 10 11 11 12 11 9 7 7 7 6
7 12 12 12 10 10 10 9 10 11 12 12 13 14 14 13 13 15 14 14 14 13 13 13 14 13 13 11 11 11 11 11 11 11 11 10 11 11 10 8 7 6 6
7 9 9 10 10 10 12 12 11 11 12 15 14 14 14 14 14 12 13 12 13 13 13 13 14 14 13 12 12 10 10 9 11 10 10 10 10 10 10 9 7 6 6
15 5 6 7 7 7 12 14 13 11 10 11 13 13 14 16 16 12 12 12 11 12 13 14 14 14 14 12 11 10 9 9 9 10 10 9 9 9 9 8 7 6 5
16 9 7 4 5 4 8 13 13 12 11 10 11 13 14 14 18 14 11 12 12 13 14 13 14 15 15 13 12 11 9 10 10 10 9 9 8 8 8 8 8 7 6
16 10 8 6 2 3 7 10 13 12 12 12 12 13 15 16 17 17 13 13 13 12 14 14 14 14 15 15 13 12 9 10 10 10 10 9 8 9 9 9 8 8 6
17 14 4 6 3 3 6 8 10 12 12 12 11 13 15 18 18 19 16 14 12 12 14 14 14 15 16 16 15 13 12 10 10 10 10 9 8 8 8 9 8 7 4
16 14 9 1 5 6 7 8 10 11 13 14 15 14 14 19 22 22 18 15 13 12 13 15 15 15 15 16 16 14 13 12 10 10 10 10 9 9 9 9 8 6 4
13 12 9 4 5 5 7 8 9 10 11 12 15 15 15 14 22 23 20 17 15 14 14 15 16 15 16 15 16 16 16 14 12 11 11 11 11 11 10 9 7 6 6
14 12 8 5 3 5 5 7 8 10 11 13 15 14 14 11 15 24 21 19 16 16 16 16 16 17 16 16 15 16 17 16 14 13 14 13 12 12 11 11 9 8 9
15 13 10 5 3 3 2 4 5 9 10 12 14 14 14 11 11 19 23 21 20 19 19 18 18 18 18 17 16 16 17 18 16 15 16 15 14 14 14 13 12 11 11
14 13 10 9 4 2 3 3 4 5 8 12 15 15 15 14 13 12 17 19 21 20 21 20 20 20 20 20 20 19 19 20 19 17 18 17 15 16 16 16 14 13 13
16 12 10 6 6 3 1 1 2 3 6 5 16 16 16 16 15 15 16 18 21 22 22 21 21 21 21 22 21 20 20 19 19 19 19 18 18 18 17 17 16 15 15
11 13 10 7 5 5 3 3 2 1 2 3 8 15 16 21 18 17 17 19 20 21 23 23 24 24 23 23 24 23 22 22 20 20 20 20 20 20 19 18 18 18 18
6 10 11 9 7 5 6 5 3 3 2 2 6 8 10 12 22 20 19 19 20 22 22 23 24 25 27 25 24 24 25 24 24 22 21 21 22 21 20 20 21 20 20
4 5 9 11 9 7 6 7 6 5 5 4 3 5 7 9 13 21 22 21 22 22 23 24 26 27 27 28 26 25 25 26 26 26 25 24 24 24 23 21 23 23 22
10 5 5 9 11 10 9 7 7 7 6 5 6 6 7 8 9 13 16 20 24 25 27 27 28 27 28 28 28 29 28 27 27 27 27 27 26 26 24 24 23 25 25
16 11 9 7 10 11 11 11 8 9 8 9 7 7 7 8 9 11 13 15 18 20 23 32 31 28 28 29 29 28 28 32 30 29 29 28 28 26 25 25 25 25 24
21 17 14 10 10 11 12 13 14 11 10 11 10 8 8 9 9 11 13 14 17 20 24 25 31 32 33 28 27 27 27 30 32 32 32 30 29 28 28 27 24 22 20
19 18 18 16 12 11 12 15 16 16 13 11 12 11 10 9 9 9 10 13 17 19 21 24 20 27 31 29 28 30 30 30 30 31 33 34 33 31 27 27 26 22 22
23 25 21 17 17 16 14 15 17 17 18 13 13 13 12 12 12 11 12 12 16 19 21 22 19 21 22 30 30 27 30 32 32 34 29 30 31 29 29 27 27 24 24
28 28 26 19 19 23 20 16 17 18 19 18 15 13 12 12 12 13 13 11 9 15 17 17 21 16 18 20 21 24 24 31 31 37 36 33 31 31 31 30 27 26 26

GFSSE_500_spd_096.txt.gz
Wind_Speed
3 4 4 4 4 5 7 7 7 5 6 27 23 22 22 20 20 20 20 18 17 16 15 15 15 15 15 16 15 15 15 16 16 16 16 15 14 13 13 13 14 13 13
4 6 6 8 7 4 5 7 6 10 8 24 27 21 21 20 20 20 19 18 17 16 15 14 15 15 16 16 15 16 14 14 14 14 15 14 13 13 12 13 13 13 13
5 6 6 8 8 6 4 5 7 9 13 8 25 23 22 21 20 20 19 17 18 16 15 14 14 15 16 16 15 14 13 12 12 12 14 12 13 13 13 12 13 11 11
5 7 6 6 9 9 7 5 6 8 9 11 10 25 20 20 20 19 19 17 17 16 16 15 15 15 15 15 14 13 12 10 10 11 12 11 12 11 11 11 10 10 10
5 7 8 7 7 10 10 8 6 7 9 7 9 29 26 19 19 18 17 17 16 14 14 15 15 16 15 15 14 13 11 9 8 8 11 9 11 11 11 11 9 9 9
5 7 9 8 6 9 11 10 8 8 8 8 9 23 24 20 18 17 17 16 16 15 14 15 15 15 15 14 14 13 11 11 9 8 9 9 9 9 10 10 9 8 8
5 5 7 7 4 4 9 11 9 9 10 9 11 11 15 16 16 15 15 16 16 16 15 15 16 15 15 13 14 13 12 10 9 10 9 9 8 8 9 9 10 9 8
15 2 2 3 4 3 6 10 10 8 9 10 10 13 14 16 14 16 15 14 15 15 15 15 16 15 15 13 12 12 11 10 11 9 10 8 7 7 8 7 8 7 6
16 8 4 3 2 2 4 7 10 10 8 8 10 10 13 15 14 13 17 12 13 14 15 15 16 15 15 14 12 11 11 10 9 9 9 9 7 7 6 6 6 6 6
18 10 6 5 3 1 3 7 10 11 10 9 9 12 13 14 18 15 13 14 12 13 15 15 15 15 15 14 12 11 10 10 10 10 10 9 7 6 6 5 6 6 6
17 14 5 2 2 2 3 6 10 11 11 11 11 11 14 15 17 17 14 17 12 12 14 15 16 16 15 14 13 12 10 9 10 11 10 9 7 6 6 6 6 5 4
15 14 9 3 2 1 2 5 7 10 12 13 12 11 13 16 17 19 18 17 17 15 15 14 16 16 16 15 15 14 11 10 8 9 9 8 7 7 7 7 7 4 3
15 14 9 6 2 3 6 5 7 9 10 12 13 14 13 15 20 19 19 18 16 15 14 15 15 15 15 15 15 15 14 12 11 10 9 9 8 8 7 9 8 6 5
15 14 12 5 4 3 5 5 8 9 11 11 12 14 14 13 14 23 23 19 17 15 14 14 16 16 15 15 16 17 16 14 12 12 11 10 11 10 10 10 10 8 8
13 13 13 5 4 2 1 4 6 8 10 11 12 14 14 15 9 23 26 22 19 15 15 14 15 16 15 16 15 17 16 15 15 13 13 13 13 12 12 12 11 10 11
14 13 11 8 6 5 3 2 4 6 10 12 12 13 13 10 9 6 27 24 21 18 17 16 16 17 18 17 18 17 17 17 17 17 14 15 16 15 15 14 14 13 13
12 13 10 8 6 5 6 5 4 4 6 9 11 16 14 12 12 10 12 16 21 20 20 19 18 17 18 19 18 17 17 16 18 18 18 18 18 17 17 16 16 16 14
9 10 12 10 8 6 5 7 7 6 6 7 5 13 15 13 15 14 14 15 17 18 19 19 20 19 19 19 20 20 19 18 18 19 19 19 20 19 19 19 18 17 17
11 10 10 11 9 9 6 6 7 9 8 8 7 5 9 11 18 19 18 17 18 19 19 21 22 22 23 22 22 23 23 22 21 20 21 21 21 21 20 20 21 20 18
15 9 10 10 11 9 8 6 6 7 7 8 7 6 8 10 12 17 22 20 19 20 22 22 23 25 25 26 27 25 25 26 26 25 24 24 24 24 22 22 22 23 22
15 16 11 12 11 10 10 8 6 6 6 7 8 8 9 9 10 11 13 17 23 20 22 23 25 27 27 27 27 30 29 27 27 28 29 29 28 27 25 23 24 25 23
16 20 14 12 14 11 11 10 9 9 9 9 8 8 11 10 10 10 12 14 16 19 24 26 27 29 28 28 30 31 30 33 30 30 30 28 28 28 27 26 23 24 23
17 19 21 14 14 14 11 11 11 10 10 10 9 10 10 12 11 12 13 14 15 17 22 25 23 29 35 30 31 32 31 32 34 33 33 30 29 28 28 26 24 24 23
18 18 18 18 18 14 14 13 14 14 13 10 10 12 11 11 13 12 11 13 14 17 19 22 24 27 24 30 34 32 30 29 29 31 30 32 30 24 30 27 28 27 24
25 21 19 18 19 19 17 15 16 17 16 16 14 13 12 12 12 14 14 13 15 18 19 22 23 24 25 26 29 37 34 31 29 28 28 30 26 35 31 30 26 25 25
27 23 22 17 17 20 19 17 19 19 17 19 19 17 15 14 14 15 15 16 15 15 18 22 21 19 25 24 25 35 34 34 27 32 32 31 32 32 28 26 24 27 24

GFSSE_500_spd_102.txt.gz
Wind_Speed
4 4 4 7 8 7 7 7 7 6 11 18 30 31 23 21 21 20 18 18 16 16 15 16 17 17 18 19 19 19 19 19 19 21 21 21 21 20 21 21 22 20 19
6 6 5 7 10 10 9 8 6 6 15 22 28 26 27 22 19 21 18 16 16 15 16 17 19 18 19 19 19 17 18 18 20 20 19 19 21 21 22 21 22 20 19
5 7 7 9 10 11 10 8 6 6 10 20 22 24 26 25 21 19 18 16 16 15 16 18 19 19 19 19 19 17 16 16 17 18 18 17 18 20 20 19 19 17 16
3 7 8 8 9 12 11 9 6 7 10 21 23 21 21 22 21 19 18 17 15 15 16 17 18 18 20 20 18 17 15 15 16 15 16 17 15 17 17 16 17 14 14
4 3 6 6 6 10 12 10 7 6 5 14 29 24 20 19 20 20 18 17 15 14 14 15 17 17 18 18 17 16 14 13 14 14 13 14 13 13 14 13 13 12 12
10 8 7 6 3 5 8 9 6 6 4 1 29 29 22 18 19 18 17 16 15 14 14 15 15 16 17 17 16 15 14 12 11 11 12 12 11 10 11 10 10 10 9
13 10 8 5 2 1 6 9 7 5 3 2 19 29 19 19 17 17 17 17 15 14 14 14 15 16 16 15 15 14 14 13 11 11 10 11 8 9 9 8 8 8 8
13 11 7 5 2 1 4 9 9 6 4 3 6 30 19 18 15 16 17 16 15 14 14 15 15 15 14 14 13 13 12 11 12 12 11 8 9 9 8 7 6 6 6
17 10 7 5 3 1 4 9 10 8 8 5 5 20 23 18 16 16 15 15 15 15 15 14 14 14 14 13 13 12 11 11 10 10 11 8 9 9 8 7 6 6 7
19 13 7 6 4 3 4 9 10 11 10 9 8 9 7 24 22 15 13 14 16 16 16 15 14 14 14 13 12 12 12 12 11 9 11 9 9 8 8 7 7 8 7
19 14 9 4 5 3 5 8 11 11 10 12 11 10 10 13 18 19 15 15 16 16 16 15 15 13 13 12 10 9 10 10 10 10 9 9 6 8 8 7 8 8 5
18 17 10 6 5 5 5 6 9 12 11 10 10 10 12 13 13 12 15 15 14 14 15 16 15 14 14 13 12 10 7 8 10 10 9 8 7 8 10 8 7 6 4
16 16 10 9 4 5 4 3 6 9 12 12 11 11 12 13 13 17 16 16 18 14 15 16 16 15 15 15 14 13 12 9 10 11 11 9 9 9 10 9 6 4 3
17 14 13 8 7 4 4 3 4 5 7 10 12 12 12 11 13 16 20 18 18 17 14 15 14 16 16 16 16 14 14 13 11 11 13 11 12 12 12 11 8 5 3
21 13 12 10 6 6 6 4 3 4 4 6 9 11 12 9 12 15 21 21 19 20 16 15 15 15 15 16 16 15 16 16 16 14 13 12 15 13 13 12 11 9 7
21 16 10 9 6 4 4 5 5 4 5 7 7 9 10 9 8 15 17 23 22 19 17 16 16 15 15 15 15 13 16 18 18 15 15 13 14 14 14 13 12 10 9
17 21 12 8 7 4 3 4 5 5 3 4 8 8 11 12 10 7 11 23 24 21 19 18 16 15 16 17 17 14 14 17 19 18 16 14 14 14 14 12 12 11 11
18 16 18 11 6 5 2 3 4 4 4 4 3 5 11 14 9 8 9 13 25 25 22 21 18 17 16 17 15 17 15 16 17 18 18 17 15 14 15 14 13 13 15
19 14 16 15 11 5 3 2 2 3 4 3 2 2 2 11 13 12 11 11 14 28 27 26 23 21 20 19 18 17 18 17 18 19 19 19 18 17 18 18 17 16 17
20 15 14 15 15 10 3 1 1 3 2 1 2 3 1 2 7 11 10 15 15 18 21 26 25 23 22 22 21 21 21 21 22 21 20 20 20 19 20 21 19 19 18
23 18 14 15 13 14 7 1 3 3 3 4 1 1 1 0 3 6 9 11 20 19 19 20 20 23 24 23 24 25 24 24 24 26 25 22 22 23 21 21 20 21 20
16 21 16 18 14 15 11 5 1 3 4 4 3 2 1 0 2 3 6 8 11 21 20 20 21 23 24 26 26 25 25 27 29 30 26 25 27 26 24 25 24 24 24
15 20 22 21 17 15 16 9 5 1 2 4 4 3 2 0 2 3 6 7 10 12 17 20 23 24 26 26 27 26 27 29 32 31 30 29 30 28 29 28 28 28 27
17 18 23 24 24 18 19 17 9 6 2 0 3 5 4 2 3 5 7 9 10 11 14 17 17 20 24 27 30 29 30 31 33 33 32 32 33 33 32 31 29 28 28
29 16 19 28 29 21 16 14 12 11 9 5 3 2 1 6 8 6 5 7 8 11 14 16 19 19 19 23 26 27 29 29 27 31 32 34 36 33 33 33 31 31 30
32 22 21 31 30 26 17 17 15 13 12 11 9 7 5 4 6 10 10 7 9 13 14 17 17 17 17 20 24 26 25 28 29 28 33 37 35 33 32 33 32 34 36

GFSSE_500_spd_105.txt.gz
Wind_Speed
5 3 2 6 8 7 6 7 12 9 8 15 24 25 22 18 17 18 16 16 17 16 14 15 15 17 18 18 19 20 22 23 23 22 22 21 23 21 21 22 22 20 20
2 4 1 3 7 8 6 9 8 3 9 17 20 21 24 21 18 16 16 15 15 14 15 15 16 17 16 17 17 19 21 22 22 22 22 22 22 22 22 23 21 21 20
3 3 2 2 4 6 9 10 9 7 9 18 27 29 21 24 20 17 15 16 15 14 15 15 16 17 17 16 16 17 18 19 20 21 20 18 20 21 21 20 19 19 18
5 3 2 2 3 8 10 11 8 6 7 11 29 26 21 22 19 20 16 16 16 14 15 16 16 16 17 16 16 16 16 17 17 18 19 18 15 18 18 17 16 15 15
7 5 3 4 4 8 10 11 9 6 6 14 13 14 17 17 19 18 16 15 15 14 15 16 15 15 16 15 15 15 15 14 16 15 16 17 14 15 16 14 13 13 12
9 6 3 5 5 6 9 9 7 4 5 4 23 17 18 16 17 16 15 15 14 13 13 14 15 15 15 14 13 13 14 13 13 13 13 14 13 13 13 12 11 10 10
10 5 3 6 6 5 7 8 7 3 2 2 18 25 16 15 15 16 15 13 12 12 12 12 14 15 14 13 11 11 13 12 12 11 11 12 11 11 11 11 10 9 9
11 6 4 4 5 4 5 6 7 4 2 1 14 31 22 14 16 15 14 12 12 11 11 11 11 12 11 11 10 9 9 10 9 9 9 9 9 9 11 11 9 8 9
14 8 3 3 3 3 4 6 8 5 3 2 8 30 23 16 15 13 13 13 12 11 11 11 10 10 10 10 10 10 10 9 8 9 10 8 5 6 8 9 8 8 10
18 10 3 4 3 2 3 6 7 8 6 5 8 14 22 15 10 10 11 12 12 11 11 11 10 10 10 9 9 9 9 9 10 8 9 9 5 5 7 8 8 9 8
19 13 8 3 4 3 4 8 8 7 6 7 9 11 10 13 12 11 11 10 11 13 11 11 11 11 11 10 9 7 6 6 7 7 7 9 7 5 6 8 8 8 7
19 16 12 6 4 3 4 7 10 10 7 8 9 11 11 13 15 11 11 8 11 12 12 11 13 13 11 11 9 8 7 6 7 8 8 7 8 6 6 8 7 5 6
20 18 13 11 2 2 3 5 8 10 10 9 9 10 10 12 12 11 16 13 11 11 12 13 14 13 13 13 12 10 9 8 8 8 9 9 9 8 8 8 7 5 3
18 18 14 11 8 0 4 6 6 9 11 11 10 10 11 13 12 13 16 15 16 16 11 12 13 13 15 14 13 12 11 10 9 9 10 11 10 9 11 11 9 6 4
20 17 15 10 6 5 2 7 8 10 11 11 11 12 13 12 12 14 16 19 18 17 16 13 14 15 16 14 13 13 14 12 12 10 11 12 12 11 12 13 11 9 7
16 18 12 11 6 4 4 4 7 9 11 12 12 12 13 14 12 14 17 19 21 19 19 15 15 16 15 13 14 14 15 14 14 14 12 11 11 12 14 14 13 11 10
22 16 15 9 10 5 4 3 6 7 8 11 12 13 14 16 15 12 16 20 25 23 20 18 16 14 15 14 14 13 14 16 16 18 16 13 12 15 17 17 15 14 12
22 18 17 12 9 8 5 4 4 6 9 9 10 12 13 16 15 12 12 11 22 24 23 20 17 15 14 14 13 14 15 14 15 17 18 17 17 17 18 18 18 17 15
25 22 17 11 12 9 8 5 5 5 6 8 8 8 10 15 17 14 11 9 10 20 26 23 19 18 17 16 15 16 16 16 16 16 18 20 20 20 20 19 19 18 16
21 15 19 11 11 9 8 7 5 5 5 6 7 7 7 9 14 15 13 13 14 13 25 26 24 22 21 21 20 19 18 18 18 19 20 20 21 21 22 20 20 20 18
19 13 16 15 11 12 8 7 7 6 5 5 5 6 8 8 9 12 13 13 15 17 16 21 23 25 26 24 23 24 22 20 19 21 23 24 24 23 21 21 21 20 20
22 14 16 17 13 12 11 9 8 9 9 8 7 5 6 8 9 9 10 12 14 17 20 19 18 21 23 22 24 25 22 23 25 26 26 26 26 27 27 23 22 22 22
19 15 16 16 19 16 15 11 10 9 8 10 8 7 6 6 6 8 9 10 11 11 17 22 22 22 23 23 25 25 24 25 28 28 28 28 30 29 29 28 28 27 26
20 22 22 22 20 20 21 17 11 12 11 6 8 10 8 7 7 7 9 10 10 10 11 16 19 22 23 24 26 27 27 28 30 29 31 31 33 33 33 29 29 27 28
28 25 28 28 26 24 23 23 20 16 13 12 9 7 9 11 11 10 9 9 10 10 13 13 14 16 19 21 19 23 25 27 31 33 32 32 33 35 34 32 33 33 32
37 30 31 33 35 32 28 30 25 22 17 15 15 13 11 10 14 15 13 11 10 12 12 14 16 17 19 17 19 22 26 27 27 27 29 33 30 34 35 33 32 33 33

GFSSE_500_spd_108.txt.gz
Wind_Speed
6 6 3 2 4 5 6 9 13 10 12 15 12 21 18 17 13 13 14 15 18 16 16 17 16 15 14 16 18 18 18 19 19 19 20 20 21 20 21 21 22 23 23
6 7 4 4 5 7 8 9 14 12 11 9 16 16 19 16 16 16 16 15 16 15 16 18 17 16 15 15 18 19 18 18 18 18 19 19 20 20 21 22 23 23 21
8 10 5 5 4 7 9 10 12 9 8 14 16 23 23 17 14 14 14 15 14 14 16 17 18 17 16 17 16 17 18 18 18 19 19 18 19 20 21 22 21 20 18
10 8 5 3 3 4 7 12 13 12 10 16 17 20 22 24 16 16 12 13 12 12 15 17 18 18 16 16 16 16 16 17 17 19 19 17 15 17 19 19 17 16 14
8 8 6 5 6 6 6 10 12 12 9 17 22 23 16 16 19 17 16 13 12 13 14 17 17 18 16 16 15 14 14 14 15 16 18 17 14 14 16 17 15 14 13
12 8 7 7 7 7 9 10 11 11 10 11 13 21 18 21 12 23 13 13 12 13 14 15 16 17 16 15 14 13 14 13 13 14 14 14 14 13 14 17 14 13 13
15 10 7 6 6 6 8 9 8 9 9 11 15 14 16 16 16 16 13 12 12 13 14 13 14 15 15 14 13 12 12 12 13 12 11 12 12 12 13 15 14 13 13
13 12 6 5 4 4 5 7 6 7 7 4 15 19 19 18 16 14 14 13 12 13 13 12 12 13 12 12 11 10 9 9 10 11 10 9 10 9 10 13 13 13 13
13 10 8 5 4 2 3 5 5 5 5 2 5 30 18 17 15 14 14 12 11 10 11 11 11 11 11 10 10 8 7 7 7 8 9 10 9 7 6 9 12 12 11
18 10 7 6 4 2 1 5 5 4 5 4 11 28 24 18 12 12 12 11 9 9 10 9 9 10 11 10 8 7 6 6 7 6 5 8 9 6 6 7 9 10 10
19 12 8 5 4 2 2 4 6 4 5 4 12 28 26 18 16 12 11 10 9 7 8 9 9 11 11 9 8 8 6 6 6 6 5 6 8 6 4 6 7 8 8
18 15 11 5 3 1 3 4 6 6 5 7 11 19 16 15 12 13 10 8 7 7 6 8 9 10 9 9 9 8 8 8 7 7 6 5 6 7 7 7 7 6 5
17 16 13 9 3 2 1 3 7 7 8 8 10 11 10 11 16 14 11 11 10 10 8 8 9 9 9 9 8 8 8 8 9 9 9 8 7 8 9 9 8 6 4
17 14 15 11 8 2 1 3 6 9 10 10 11 11 12 11 12 13 13 16 15 10 8 9 9 10 11 10 9 10 8 6 6 8 9 9 8 9 10 10 9 7 5
20 12 12 13 8 5 1 4 7 9 12 12 12 12 13 14 14 14 15 15 13 13 14 10 10 12 12 12 11 13 11 9 8 7 9 10 10 10 10 11 11 10 8
16 17 8 11 10 7 3 3 7 9 10 13 14 15 14 14 14 13 15 16 17 16 14 14 11 12 12 11 13 14 12 11 12 11 11 10 10 12 13 12 12 12 11
17 19 14 6 9 8 5 3 5 8 12 13 14 14 16 17 16 14 16 18 17 19 18 17 14 12 13 12 13 14 12 13 16 15 13 12 12 12 14 14 14 14 13
17 21 19 8 5 9 6 4 3 6 9 12 14 15 16 17 19 17 15 15 20 22 22 18 17 14 13 13 13 14 12 13 13 15 16 16 15 14 13 14 17 17 16
11 17 15 14 5 5 8 4 4 5 6 8 11 15 17 18 18 19 16 14 11 17 21 20 19 18 16 15 15 15 15 16 16 16 17 18 17 16 16 15 17 20 18
9 12 7 13 11 3 5 6 4 4 4 7 9 10 12 16 19 20 17 15 13 13 19 23 23 21 19 17 16 16 17 18 18 19 18 17 17 18 18 18 19 19 21
12 13 7 11 13 9 5 4 5 5 5 5 8 9 9 10 14 18 18 15 16 17 18 23 26 25 23 22 19 21 21 19 19 21 20 20 20 20 19 19 21 22 22
20 14 12 13 14 12 11 6 2 3 6 7 6 7 8 9 11 14 17 17 19 17 19 16 21 25 25 25 25 25 22 20 23 25 24 23 23 23 23 23 22 22 23
25 21 18 18 18 19 17 14 8 6 6 8 10 10 10 10 12 13 15 16 16 17 15 21 21 21 21 21 21 20 19 21 25 24 24 24 25 26 27 28 27 26 27
33 31 26 24 24 24 23 19 17 14 9 10 13 14 12 11 12 13 15 15 15 14 14 17 23 24 23 21 20 21 22 22 25 26 27 28 26 27 28 31 31 29 30
37 36 36 32 30 28 28 26 24 22 18 14 11 10 11 12 12 12 13 13 14 14 16 15 17 20 20 20 21 22 22 21 24 27 30 32 31 30 30 29 32 32 34
36 39 36 34 35 35 32 31 30 28 27 23 21 18 16 12 10 11 12 12 14 15 15 16 18 17 18 18 19 20 21 21 23 26 26 30 31 31 31 28 30 32 34

GFSSE_500_spd_111.txt.gz
Wind_Speed
9 10 5 5 10 13 13 11 11 12 13 15 20 19 16 13 13 17 16 16 15 15 16 17 17 18 15 15 17 19 19 19 18 16 17 18 18 18 19 20 22 24 23
8 13 8 8 6 5 6 9 11 9 13 18 19 22 19 18 15 15 15 18 15 15 16 17 16 18 15 14 16 16 17 17 18 16 17 16 17 17 19 21 21 21 20
10 13 10 7 6 4 5 7 11 14 15 10 20 22 23 16 14 13 14 16 16 16 16 16 16 16 17 15 15 15 15 16 17 16 16 16 16 17 19 19 18 17 16
11 11 9 5 5 7 8 11 11 12 11 15 19 18 25 20 16 17 13 15 15 15 16 16 16 15 15 16 15 14 13 14 15 15 17 16 15 15 17 17 15 14 14
10 9 7 5 4 6 9 10 11 10 11 14 21 25 22 19 20 15 15 13 15 16 16 16 16 16 15 15 15 14 12 12 13 13 14 16 14 13 13 14 14 13 12
11 8 6 5 5 5 7 10 13 11 9 10 18 23 24 24 19 16 16 14 14 17 18 18 16 15 16 15 14 14 13 12 11 11 12 13 12 11 12 12 13 12 12
13 9 8 6 5 6 7 9 11 11 10 9 17 20 27 22 19 17 20 15 14 17 19 18 18 16 15 14 14 14 12 12 11 10 11 11 11 10 9 11 11 12 13
13 11 8 6 5 6 8 8 10 9 9 12 12 17 22 19 20 17 12 14 14 14 17 17 18 17 15 13 11 12 11 10 10 9 9 9 9 9 8 9 9 11 11
15 11 10 7 4 4 6 7 8 8 6 6 16 19 18 14 16 17 17 13 14 14 15 16 16 16 15 13 11 11 11 9 9 9 9 10 10 9 7 7 9 9 9
16 14 8 7 4 3 4 6 7 6 3 2 13 22 22 18 15 13 13 14 12 13 13 14 15 15 14 12 11 11 11 10 10 9 8 9 11 10 7 7 8 6 7
15 14 12 6 5 2 2 4 6 5 2 1 27 28 26 22 19 15 14 13 13 12 13 12 13 14 14 13 11 11 11 11 10 10 8 8 9 10 8 8 8 6 5
15 13 12 9 5 4 1 3 7 5 3 6 22 30 25 24 20 17 15 14 13 14 12 11 12 12 13 13 13 12 11 11 11 10 9 9 8 8 9 9 8 7 5
12 13 11 10 5 3 2 2 7 8 6 8 19 27 19 21 20 19 14 14 14 13 12 11 11 12 12 12 12 12 11 10 11 11 10 9 6 7 8 9 8 8 5
11 9 12 9 8 3 1 1 5 8 8 9 12 15 19 19 17 19 18 15 13 13 10 10 10 11 12 13 12 10 9 8 9 9 9 9 7 7 8 10 10 8 6
12 8 8 10 7 6 3 2 5 8 10 9 11 12 11 14 17 17 16 15 15 15 13 12 11 11 12 12 12 12 11 10 9 9 9 10 10 9 8 10 10 9 8
11 9 5 7 8 5 5 3 4 7 10 12 13 13 13 15 15 16 17 17 18 15 15 15 13 12 11 11 13 13 12 12 13 11 10 9 10 10 11 10 12 12 11
6 11 7 1 6 7 4 4 3 6 9 12 14 15 16 16 17 17 17 17 16 18 17 17 16 14 15 15 15 14 14 14 14 14 12 11 11 11 12 12 14 13 13
3 7 10 3 1 5 5 2 2 3 8 12 13 15 16 18 19 18 18 17 17 18 19 19 18 16 14 15 15 14 13 13 14 13 15 16 15 14 13 12 14 14 14
4 3 8 8 3 2 3 2 2 3 4 6 9 14 16 18 19 21 20 18 17 17 21 22 19 19 17 17 17 15 14 15 15 15 14 14 15 17 17 16 15 14 16
9 4 2 8 7 7 4 2 5 7 7 7 8 10 12 17 19 21 21 20 16 16 18 24 24 22 20 17 17 16 16 16 16 16 15 16 15 16 17 17 17 18 18
15 11 7 10 12 10 10 5 3 6 8 10 10 10 11 12 16 20 22 20 18 17 16 23 25 25 24 21 19 19 17 17 18 19 18 19 19 19 18 19 19 20 20
23 21 16 14 14 14 14 12 6 4 7 8 8 10 11 12 13 14 19 22 21 20 20 19 20 28 29 26 23 23 21 22 23 23 22 22 23 22 22 23 22 22 21
28 26 21 21 21 19 18 17 14 8 8 10 13 14 13 13 12 13 15 19 22 22 21 20 22 20 29 28 27 25 27 28 29 25 25 25 26 25 26 25 25 25 26
37 37 33 29 26 27 24 21 20 16 14 12 12 14 15 15 14 14 15 16 18 20 19 21 21 23 21 23 23 23 25 22 22 24 26 27 28 28 28 27 26 27 28
41 44 44 40 37 32 32 28 27 24 21 19 15 13 14 18 18 16 16 15 16 18 18 18 19 19 24 25 23 26 24 23 24 25 27 28 29 30 29 29 29 31 32
36 40 44 46 44 41 38 35 31 30 29 27 22 21 19 17 20 21 20 18 17 17 18 18 18 18 19 21 23 24 23 22 23 26 25 29 29 30 32 32 32 35 33

GFSSE_500_spd_114.txt.gz
Wind_Speed
9 11 8 4 4 6 8 10 12 10 8 11 20 21 16 18 19 19 18 17 18 19 18 18 18 18 16 16 17 18 15 16 16 14 14 13 14 15 17 18 18 18 17
7 12 9 7 6 8 11 11 10 11 12 17 21 26 17 17 17 17 19 18 17 17 18 18 17 18 17 17 16 16 14 14 15 14 13 13 13 15 17 17 17 16 15
9 12 10 8 6 6 9 11 14 12 17 19 24 23 20 19 15 15 18 17 18 18 18 17 16 17 17 18 16 14 13 13 13 13 12 14 13 15 16 16 15 13 12
9 8 9 7 6 4 5 8 12 15 17 15 20 24 23 20 19 16 16 16 17 18 18 17 17 16 16 15 14 13 12 12 12 13 14 14 14 14 13 12 11 11 10
10 9 8 6 6 5 4 6 11 14 15 18 20 25 23 18 19 18 16 15 16 17 18 17 17 16 15 14 14 13 13 12 12 13 14 14 12 10 9 9 8 8 9
10 8 7 5 4 5 6 8 8 11 13 17 22 24 27 20 17 17 16 14 15 17 18 17 17 16 15 14 13 12 12 12 11 11 13 12 11 8 6 6 6 6 8
11 9 7 4 3 3 5 7 7 8 10 12 25 28 29 25 19 18 16 13 15 17 19 19 17 17 16 14 13 12 12 12 11 9 10 11 10 8 6 5 5 6 7
11 9 7 5 6 5 4 5 7 7 9 10 16 21 27 28 21 20 17 14 17 19 19 18 18 18 17 15 14 13 13 12 11 9 9 9 9 8 7 5 6 7 6
12 9 8 5 5 8 7 6 6 7 6 8 13 23 23 28 25 22 19 19 18 19 19 19 18 18 17 15 14 13 12 12 11 10 9 9 9 8 7 6 7 7 6
11 10 6 6 4 5 8 8 6 6 7 8 15 20 25 22 28 24 20 19 19 19 19 19 19 18 16 15 13 13 12 12 12 9 9 9 9 9 8 7 8 7 6
9 8 8 5 5 3 6 9 7 6 6 8 18 24 21 18 21 28 23 20 18 18 18 19 19 19 17 15 15 13 13 12 12 11 9 9 9 9 9 10 8 7 6
10 8 8 6 5 4 2 7 8 6 3 8 24 28 24 22 19 14 19 22 18 19 18 18 18 18 17 16 16 15 13 13 12 12 11 10 9 10 10 11 10 7 6
11 9 6 7 5 3 3 4 6 5 1 2 23 27 27 23 22 20 15 16 17 22 20 18 17 17 17 16 16 15 14 13 13 12 12 10 9 9 10 11 10 8 6
11 8 7 4 5 4 2 3 6 5 4 2 16 23 26 21 20 18 18 17 16 18 19 15 17 17 16 16 15 14 13 12 12 11 11 10 10 9 10 11 11 9 8
8 7 6 6 3 3 4 3 6 9 7 8 6 22 15 23 22 20 18 17 15 14 20 16 17 18 17 16 15 14 13 12 12 11 11 11 11 9 9 10 11 10 9
3 6 4 4 3 1 1 4 5 8 11 10 11 12 12 17 17 20 23 15 16 15 13 15 16 17 17 18 17 16 16 15 13 12 12 11 11 10 10 10 10 12 12
3 3 4 1 2 0 1 2 6 9 11 14 14 14 15 15 16 16 16 18 17 18 16 17 17 18 18 19 19 19 18 17 16 14 13 12 11 10 11 12 13 13 14
9 3 3 2 4 2 2 3 3 6 11 13 16 17 18 18 19 19 19 19 19 18 19 18 19 19 18 19 19 19 17 17 16 15 16 15 14 13 14 13 13 14 15
16 12 6 5 5 6 3 3 5 6 7 10 13 16 18 19 20 21 20 19 19 19 20 21 20 20 18 18 19 18 18 18 17 17 16 16 16 18 18 16 16 15 16
18 16 14 9 8 7 7 5 5 7 8 9 11 14 17 20 21 22 23 22 20 20 22 25 25 23 22 20 19 19 19 20 19 18 17 16 16 17 18 19 19 20 19
23 18 17 15 14 10 10 10 6 6 9 11 11 13 15 17 20 23 23 24 24 23 23 21 28 28 25 23 22 22 21 20 19 19 19 20 19 18 18 19 21 21 20
26 24 23 20 20 18 15 15 13 9 9 12 11 12 12 13 15 18 21 24 25 23 21 18 22 29 28 27 26 24 23 21 21 21 21 21 21 21 21 23 22 22 22
31 30 30 27 24 24 23 21 18 16 10 11 15 17 17 17 16 16 17 18 23 23 21 21 21 23 27 30 30 28 26 26 25 25 26 27 26 25 26 26 26 26 25
38 38 37 36 33 30 27 26 23 22 20 19 17 16 16 17 16 16 16 16 18 22 23 22 22 22 26 25 32 33 31 30 34 33 33 31 29 27 28 28 29 29 29
36 40 44 43 42 40 36 33 31 30 27 25 21 18 18 20 19 18 18 17 18 19 21 21 21 25 24 26 27 31 31 31 28 27 22 24 27 29 30 31 31 32 32
36 39 44 48 48 46 44 42 37 35 35 31 28 26 24 22 22 21 20 19 19 19 21 22 22 22 23 23 27 28 29 28 29 27 26 27 27 29 32 34 34 35 36

GFSSE_500_spd_117.txt.gz
Wind_Speed
5 6 3 2 2 4 6 6 7 6 5 5 29 21 21 20 20 19 19 21 21 19 18 18 16 16 15 15 15 14 13 13 12 11 13 12 12 12 14 15 14 14 13
6 7 6 4 3 3 4 5 7 6 5 13 22 21 19 20 20 19 20 20 20 19 18 17 17 16 16 15 13 13 12 11 11 10 11 10 12 12 13 13 13 12 11
6 9 9 6 3 0 5 7 6 5 10 13 24 28 19 19 18 19 19 20 20 19 19 18 17 16 16 15 13 12 11 10 10 9 10 10 11 12 11 10 10 10 10
6 8 8 8 6 3 4 7 10 11 15 16 18 28 27 19 18 18 16 18 19 18 19 19 17 17 17 15 13 11 10 9 9 9 10 11 13 11 9 7 7 8 8
6 5 7 8 7 5 4 5 9 13 17 19 24 21 22 18 17 19 17 18 19 18 18 18 17 18 17 16 13 12 10 10 10 10 11 14 13 10 7 5 6 7 6
6 5 6 7 7 6 5 5 8 11 14 16 21 31 26 21 20 19 18 18 19 18 17 18 18 17 16 15 13 12 12 12 12 11 10 12 12 10 5 5 6 6 7
6 5 5 5 5 5 5 4 6 10 13 19 23 23 29 23 20 19 18 15 17 19 18 17 17 16 16 14 13 12 12 11 13 10 9 9 9 8 6 5 5 6 7
7 6 5 4 3 3 4 4 4 6 10 14 22 24 29 25 22 21 20 18 18 18 19 19 17 16 16 15 15 13 13 12 11 11 9 8 8 6 5 5 6 6 6
9 6 5 4 2 2 2 3 3 3 7 13 20 24 28 29 21 22 19 17 19 20 20 20 19 18 16 15 15 14 13 13 12 10 9 7 7 6 5 5 6 5 5
11 7 4 3 2 2 4 5 5 4 5 8 15 20 28 32 23 21 19 18 18 20 21 21 20 19 18 16 15 14 14 13 12 10 8 7 7 6 6 7 7 6 4
11 9 4 3 2 2 4 5 7 7 7 8 12 23 21 31 24 22 21 19 19 20 21 21 20 20 19 18 17 16 14 13 12 10 10 8 8 7 6 8 8 6 4
8 8 7 1 2 2 3 6 8 9 8 12 17 22 25 30 28 26 24 22 20 19 20 20 20 20 19 18 17 16 15 14 14 13 11 10 9 8 8 9 8 6 4
6 7 5 5 1 1 2 5 7 9 10 14 15 26 24 27 30 29 26 25 23 22 20 20 20 20 19 17 17 16 16 15 14 14 12 10 10 9 9 10 9 7 5
5 5 5 3 2 1 3 5 7 9 8 4 10 28 27 26 26 14 26 31 24 23 21 18 18 18 19 18 17 17 16 14 14 12 11 10 10 9 10 10 10 8 7
2 3 3 4 2 2 3 4 7 9 8 1 8 21 29 24 23 17 16 15 14 18 27 19 18 18 18 17 17 16 15 15 14 13 14 12 12 10 10 11 11 10 9
11 3 3 3 4 3 3 4 6 8 10 7 6 12 23 24 21 20 17 17 15 13 27 22 19 18 18 17 16 15 15 14 14 14 14 14 13 12 11 11 12 12 12
16 15 5 5 4 5 4 3 6 8 9 11 9 9 9 13 23 23 21 20 18 15 13 21 21 17 19 19 18 19 17 16 15 14 14 13 14 14 13 13 13 13 14
18 16 17 9 7 6 6 5 4 7 10 11 13 13 12 11 14 13 23 23 17 18 17 17 19 20 19 20 20 21 20 19 18 17 16 15 14 14 15 15 14 14 15
21 16 14 15 11 9 8 6 7 8 8 11 12 14 15 16 16 16 17 20 20 20 22 21 21 23 25 22 21 21 20 20 20 19 19 19 18 18 18 17 16 15 15
24 21 18 16 15 14 11 10 8 9 10 11 13 14 16 17 18 19 19 19 20 21 21 23 25 24 25 24 22 21 21 21 21 21 20 20 20 20 21 19 20 19 19
25 24 23 21 21 17 17 16 14 13 12 12 13 14 15 16 18 19 20 20 23 23 24 24 25 27 27 25 23 23 24 23 22 22 21 21 20 20 20 20 21 22 22
27 26 26 26 25 23 20 21 21 18 15 15 14 14 16 16 17 18 21 22 23 26 29 28 28 28 29 27 27 25 24 25 25 24 24 22 21 21 21 22 23 22 22
30 29 29 30 30 29 28 27 23 23 20 17 18 19 18 19 19 19 18 20 23 26 28 23 29 24 29 31 29 29 28 27 26 25 24 24 23 24 24 24 24 24 24
32 34 35 36 36 34 34 33 29 25 25 25 24 22 20 18 18 19 18 17 18 20 22 21 19 15 20 27 31 31 31 30 30 29 29 25 17 29 30 29 27 27 28
30 34 37 40 43 42 40 39 37 32 30 28 31 26 23 21 20 19 18 18 17 18 19 21 23 21 20 22 26 30 34 35 34 32 32 31 31 29 31 26 27 29 28
30 33 36 41 44 47 46 47 43 38 37 36 29 31 31 26 23 22 21 19 19 19 20 20 20 21 22 22 23 26 28 33 35 35 33 31 26 24 26 26 28 28 32

GFSSE_500_spd_123.txt.gz
Wind_Speed
4 3 5 5 7 8 10 6 10 11 8 10 20 17 18 16 13 14 17 17 16 16 13 15 16 18 20 19 19 18 17 16 15 15 16 17 18 17 16 16 15 14 14
6 3 3 6 6 6 7 5 6 7 5 12 24 17 17 17 17 13 16 18 17 16 13 15 17 17 18 18 18 18 16 15 14 15 15 16 16 15 15 15 14 14 14
7 4 1 5 5 5 5 6 7 8 7 15 22 19 17 17 16 16 15 17 18 16 15 14 15 17 17 17 17 16 16 15 13 13 13 16 15 15 13 14 13 13 13
8 5 4 3 3 4 4 5 6 8 8 13 22 25 20 18 16 15 15 15 16 15 13 14 15 16 16 15 14 14 14 14 11 12 14 13 14 13 12 13 12 13 13
10 9 6 3 2 3 3 4 5 7 9 10 22 23 20 22 20 15 15 14 13 13 13 13 14 15 14 13 13 14 13 13 10 9 16 12 13 12 11 12 12 13 14
9 9 8 7 6 4 3 2 4 7 9 12 28 29 24 18 18 17 14 15 15 14 14 13 14 13 13 12 12 12 13 14 13 11 13 10 11 11 10 11 12 13 14
10 8 8 7 7 7 6 5 3 5 7 9 18 23 29 28 22 26 17 15 14 13 12 13 14 14 13 12 13 13 14 14 13 14 10 9 10 10 9 11 11 12 12
8 8 8 8 8 7 7 6 5 2 5 8 11 17 29 27 23 24 17 15 13 13 13 12 13 14 14 13 13 14 14 13 14 14 10 9 10 9 8 10 10 10 10
8 9 9 8 9 7 5 6 6 3 3 8 10 13 14 25 27 26 20 15 16 15 13 13 14 14 15 14 13 13 14 12 11 14 11 9 10 9 8 7 8 9 8
13 11 10 9 7 7 6 5 4 5 4 2 11 16 14 19 22 26 25 21 18 15 14 14 13 14 14 13 12 12 12 11 10 8 9 10 8 9 8 6 5 7 7
15 14 12 10 10 8 8 7 5 4 5 4 2 9 16 20 23 26 25 22 20 18 17 17 15 15 14 13 13 11 11 10 9 11 9 8 8 8 8 5 4 4 6
18 15 14 13 11 10 9 7 6 5 4 4 5 7 12 19 26 28 27 23 24 24 23 20 18 17 14 13 12 12 11 10 9 8 6 7 6 7 7 6 4 3 3
20 19 15 14 13 10 11 9 6 5 5 7 9 11 12 22 24 24 27 26 21 21 22 21 19 18 17 15 14 10 10 10 10 8 8 7 7 6 6 7 6 4 2
18 20 20 17 13 11 10 10 10 7 6 8 12 17 19 16 24 27 30 26 26 22 22 20 19 18 18 16 14 13 12 11 11 10 8 8 7 6 6 6 7 6 5
15 19 18 18 16 14 11 10 9 10 8 9 11 15 12 11 23 21 27 29 26 20 19 20 17 20 19 18 17 15 14 13 14 12 13 9 8 9 7 7 8 9 8
11 14 17 17 17 14 14 13 11 10 9 9 8 12 9 6 14 13 26 24 29 21 21 20 18 20 20 19 18 16 14 14 14 12 10 11 11 11 9 8 9 10 9
14 11 14 15 16 16 14 13 13 12 10 9 10 7 8 4 9 14 13 23 21 23 23 23 26 21 20 20 19 18 16 16 15 14 13 14 13 9 13 9 10 10 11
16 15 12 14 15 14 15 15 12 13 10 9 8 9 7 6 5 14 15 21 21 28 29 31 31 22 19 20 18 19 18 18 15 14 13 13 13 15 15 12 14 14 13
15 17 14 12 14 15 15 17 15 12 12 11 10 9 6 6 8 8 11 13 12 16 26 17 23 27 26 21 17 20 18 18 17 16 15 16 16 15 14 14 14 15 16
16 16 15 14 13 16 14 16 17 15 15 12 11 13 9 8 9 9 8 6 11 16 16 13 13 21 23 28 22 21 19 20 20 21 20 19 18 19 18 18 18 17 18
15 16 16 18 16 18 19 17 18 17 15 15 12 12 15 8 10 12 14 13 14 15 21 16 16 18 18 27 26 26 25 23 23 24 24 22 19 19 19 19 20 19 20
16 17 19 20 20 21 23 23 23 22 20 18 16 12 14 17 13 14 14 17 19 19 18 19 19 21 21 26 31 29 27 27 26 28 24 21 21 19 17 17 19 19 20
17 18 18 21 22 23 26 27 27 27 25 22 20 19 14 16 16 15 16 15 18 20 20 23 24 24 24 24 28 29 29 28 29 29 24 23 21 20 21 20 19 20 21
19 19 21 22 23 24 26 26 27 29 30 29 27 27 20 15 17 18 18 17 16 19 19 24 26 25 25 28 32 31 31 31 31 30 27 24 24 23 22 21 22 22 24
22 22 22 24 24 26 24 24 28 30 28 31 34 33 33 24 19 19 20 20 19 20 21 21 22 24 25 22 21 30 34 32 32 29 28 26 26 26 24 23 26 26 26
25 23 24 25 26 27 26 26 26 28 30 33 36 37 37 39 30 24 23 23 23 21 24 24 24 23 23 23 21 19 21 24 30 32 29 29 30 30 29 27 28 27 23

GFSSE_500_spd_129.txt.gz
Wind_Speed
7 9 6 3 5 6 6 3 3 4 9 16 17 13 10 12 12 12 14 13 12 10 12 15 17 17 15 15 13 14 14 16 17 17 18 19 19 18 18 18 17 17 16
7 6 5 4 6 5 5 4 6 6 7 7 10 11 8 10 11 12 14 12 12 10 9 12 15 16 15 11 11 12 13 15 16 15 15 17 17 17 17 17 16 17 15
6 7 6 3 5 6 4 4 5 7 6 6 10 11 10 9 10 12 12 11 10 9 9 10 12 12 13 11 11 10 12 13 12 13 12 12 16 16 17 16 15 16 15
6 6 6 4 5 6 6 6 6 6 6 9 11 11 11 10 10 10 13 12 10 8 9 9 11 12 12 11 10 9 11 12 10 10 11 10 13 16 17 16 14 15 15
10 11 8 5 5 6 6 6 7 9 7 12 13 12 12 13 12 9 13 12 11 10 8 8 9 11 12 11 10 9 9 11 11 9 10 9 10 13 16 15 13 15 16
14 14 9 9 9 9 9 7 6 7 8 12 16 11 11 10 10 9 10 11 10 9 9 9 9 10 10 11 10 9 8 8 11 10 10 8 8 10 14 15 14 13 14
14 15 16 15 12 10 12 11 10 8 7 6 6 12 11 9 8 9 9 9 10 9 10 10 11 10 10 10 10 9 8 8 11 10 9 8 7 8 10 12 13 13 13
14 15 15 16 16 15 12 12 10 7 4 3 8 10 10 10 9 10 9 8 7 9 9 8 10 11 10 10 10 9 9 8 9 10 8 8 5 6 7 8 11 12 13
14 14 14 16 16 14 13 12 10 7 4 3 5 9 7 13 16 10 11 14 15 11 9 10 11 11 10 9 9 11 10 10 9 8 9 7 4 5 6 6 8 10 12
17 14 13 14 15 13 12 11 11 9 5 3 3 5 7 11 9 16 22 22 25 14 12 9 9 9 9 8 9 9 9 8 8 6 8 7 4 3 5 5 6 8 10
17 18 16 13 13 13 11 10 9 8 8 7 3 3 6 9 15 13 15 14 15 19 10 9 8 9 10 9 8 9 8 7 6 6 6 6 5 3 3 4 4 6 6
17 16 18 17 13 12 12 10 8 6 6 5 4 2 3 9 15 16 20 23 22 17 14 12 9 11 10 10 9 8 7 6 6 7 7 8 7 6 5 4 3 3 3
17 17 15 16 16 14 12 10 8 6 4 3 2 2 4 6 11 17 22 16 14 14 14 14 16 11 11 11 11 9 10 10 8 7 7 6 6 6 5 7 5 4 2
14 15 17 16 14 13 13 12 10 6 4 2 2 5 7 9 9 17 20 20 16 15 15 19 20 15 13 14 12 11 11 10 10 9 7 7 6 6 7 7 8 6 6
10 11 14 14 14 12 11 13 11 9 7 5 4 5 8 12 11 17 21 22 22 19 17 16 15 16 15 15 13 12 11 9 8 9 8 8 6 8 9 9 10 9 9
11 10 9 11 12 13 14 12 11 11 10 7 6 8 8 13 7 8 15 18 21 22 19 15 13 17 19 16 14 13 13 11 11 12 10 11 12 12 11 11 11 12 11
10 11 8 7 7 8 10 11 11 9 9 9 8 7 9 10 4 4 10 14 19 22 27 19 19 19 19 21 19 13 16 15 13 13 12 12 14 14 14 13 12 11 12
16 15 8 6 8 7 5 4 6 7 7 8 9 8 8 8 9 4 9 13 13 15 25 23 22 18 20 22 22 19 18 17 16 14 14 14 15 16 16 12 14 13 12
8 10 12 9 8 11 10 6 4 5 6 6 7 7 8 8 7 6 7 11 12 11 20 30 26 24 22 24 26 22 19 16 17 15 15 16 14 15 15 14 14 13 13
6 8 8 10 9 11 13 12 8 6 6 8 8 8 8 8 8 8 7 7 10 11 17 20 25 31 28 26 28 26 19 17 17 17 15 17 17 15 14 14 14 15 15
9 11 13 13 12 11 12 10 13 12 9 10 10 11 12 10 9 9 8 7 6 15 19 19 19 29 32 33 31 29 23 21 20 18 18 20 20 17 18 17 17 16 16
10 13 14 15 16 17 16 16 11 11 14 13 15 15 16 15 11 11 10 9 9 14 16 13 18 20 31 24 25 27 25 27 32 26 20 20 21 21 21 20 19 18 18
17 16 15 18 20 21 20 21 15 13 13 14 16 19 21 20 18 15 15 14 12 14 17 19 18 22 24 22 22 25 27 28 34 33 30 26 26 25 24 23 21 21 21
20 18 20 20 21 23 23 30 17 23 25 21 24 19 22 25 25 23 20 19 19 16 16 19 21 24 27 27 27 30 31 30 29 34 33 32 31 29 27 24 22 22 23
22 21 25 26 25 23 26 26 26 26 27 27 26 27 28 26 25 30 28 25 24 23 22 21 24 25 27 30 31 32 31 32 30 31 35 35 34 33 31 27 25 25 27
20 23 24 25 32 31 27 27 28 29 30 32 33 33 32 31 31 34 33 33 30 29 28 28 28 27 29 30 30 31 32 32 33 35 37 39 38 36 33 29 29 27 28

GFSSE_500_spd_132.txt.gz
Wind_Speed
8 7 5 3 5 8 6 4 6 9 16 15 12 12 10 11 12 14 15 16 15 14 15 15 15 15 16 16 14 15 16 17 17 15 16 16 16 17 17 17 17 16 15
8 7 3 1 3 5 5 8 8 8 11 17 15 14 9 12 11 12 13 14 14 14 13 13 14 13 12 11 12 14 15 16 15 14 13 14 15 16 16 15 15 15 15
7 7 4 2 3 4 5 9 8 8 8 7 14 11 11 11 12 11 12 11 11 11 11 11 13 12 10 10 12 13 13 13 14 14 12 11 13 14 15 14 15 15 16
8 6 4 4 4 5 4 6 6 9 3 4 10 10 10 10 12 13 15 10 9 10 10 10 11 10 10 10 11 11 11 11 13 13 13 11 11 13 16 15 15 15 16
12 8 6 5 5 5 6 7 6 5 3 8 9 8 8 10 11 7 7 9 8 9 9 11 9 9 8 9 9 9 9 9 12 13 11 11 10 10 15 15 15 14 14
13 11 9 8 7 7 9 9 12 7 3 6 11 8 8 7 8 7 7 6 7 8 7 7 9 8 8 7 7 7 7 7 10 11 12 10 10 9 12 15 14 14 14
16 14 12 10 10 11 10 12 10 11 9 4 8 13 9 9 9 10 8 7 5 4 7 6 6 7 8 7 7 5 6 7 9 9 11 11 9 8 9 10 11 14 15
14 15 15 15 15 14 13 13 13 12 10 5 2 1 9 10 8 7 8 8 6 5 6 7 6 6 6 6 5 5 5 7 7 7 10 11 9 7 7 8 9 11 14
11 13 15 16 16 15 14 13 12 11 8 6 6 4 2 3 7 8 9 9 9 8 8 6 8 7 7 6 6 5 6 6 6 5 6 10 8 6 5 6 7 9 11
13 12 13 15 15 14 14 13 12 11 10 8 6 5 3 7 7 11 11 14 12 16 14 11 7 7 7 5 6 6 6 6 5 3 3 7 8 5 4 3 5 6 8
14 15 14 13 13 13 12 10 10 11 11 9 7 6 6 5 6 7 11 12 12 15 20 15 7 7 7 5 6 6 6 5 5 5 5 6 8 8 5 3 3 3 4
15 15 16 15 12 11 11 10 9 7 7 7 6 4 4 8 12 13 15 16 16 12 23 15 11 9 7 7 6 7 7 6 5 5 4 3 5 6 5 4 3 2 1
15 15 14 14 14 13 11 10 8 7 6 4 2 2 1 4 9 13 15 16 11 13 16 20 14 11 9 8 8 8 9 9 8 8 6 5 6 6 5 6 5 4 3
15 12 13 12 12 12 11 10 8 6 4 2 1 2 4 6 6 10 17 18 17 12 10 8 19 18 11 10 10 10 11 10 8 9 8 7 7 8 6 7 7 7 6
16 16 10 9 10 10 11 10 9 7 5 3 2 5 8 10 10 13 18 19 18 15 10 9 12 11 15 12 11 12 12 10 9 11 10 9 10 9 9 9 9 10 10
13 13 12 11 9 8 8 8 8 8 7 5 3 4 6 10 11 8 11 18 19 20 17 13 12 11 16 15 14 14 14 12 13 13 11 12 12 10 10 10 11 11 11
9 11 10 10 10 11 7 5 5 5 6 6 5 5 6 8 10 8 4 4 14 19 21 20 18 18 16 19 18 16 16 14 15 14 12 14 14 12 13 11 12 12 11
5 6 6 7 8 10 9 8 3 2 2 2 4 5 7 7 6 7 8 7 14 14 17 22 24 21 20 20 24 20 17 16 16 16 14 13 13 13 13 13 12 15 14
9 7 5 3 6 11 12 13 6 3 5 5 3 3 5 6 7 6 8 10 12 14 14 17 27 27 24 25 22 22 25 19 18 16 15 16 15 14 15 15 16 15 14
8 9 9 8 5 6 9 15 11 11 8 6 8 7 6 6 6 5 6 9 8 13 12 17 24 26 26 27 26 25 27 18 19 19 19 18 17 15 15 14 15 15 15
6 9 12 13 11 8 8 13 15 16 16 12 12 12 13 12 9 9 8 7 8 8 14 15 16 22 29 34 32 30 28 30 22 21 20 19 20 19 17 18 18 18 17
6 11 13 15 17 16 17 15 22 17 16 19 19 20 20 19 14 11 11 11 9 11 12 14 15 22 23 26 31 30 30 34 29 24 22 20 21 18 18 21 21 20 19
10 13 15 17 19 19 17 18 20 20 12 16 15 23 19 20 19 20 19 17 16 16 15 18 19 20 21 22 25 29 25 24 29 29 29 26 24 21 23 23 22 22 22
12 13 15 16 19 20 20 21 20 17 17 20 23 24 25 25 20 20 23 24 24 21 21 21 22 21 24 24 25 26 26 28 31 29 28 31 33 29 28 27 26 24 24
16 16 18 20 21 24 26 23 22 23 22 24 24 24 26 26 26 29 29 28 27 28 27 26 27 26 25 28 28 30 30 30 31 30 30 30 35 36 35 33 29 28 26
17 20 22 23 24 23 24 26 27 29 29 28 30 29 28 29 31 32 32 35 37 35 33 33 31 31 30 29 29 31 30 31 31 32 31 33 32 35 34 35 33 31 30

GFSSE_500_spd_135.txt.gz
Wind_Speed
11 5 4 8 10 2 5 5 3 11 18 15 15 15 13 13 14 15 18 17 19 18 17 16 16 17 17 16 14 15 16 16 15 14 13 14 14 15 14 13 13 13 11
14 11 3 5 6 6 7 7 3 15 16 16 17 14 13 11 14 14 14 15 16 16 15 14 14 14 13 13 12 13 14 14 14 13 11 11 12 12 13 12 13 12 11
10 10 6 3 4 6 9 8 7 17 16 16 14 13 15 12 14 13 12 12 14 14 13 12 12 11 10 11 12 12 12 12 14 13 12 10 10 11 12 13 13 13 13
9 8 6 5 7 5 8 10 9 9 6 13 14 13 14 12 13 12 10 9 11 13 13 12 10 9 8 9 10 11 9 9 10 13 12 10 9 10 12 13 13 13 14
8 7 6 6 6 7 9 9 8 8 5 10 14 12 13 11 12 13 15 9 9 11 11 10 10 8 8 8 8 9 8 8 9 9 12 11 10 9 11 13 12 13 14
11 8 7 6 5 6 8 12 10 8 7 8 11 11 10 12 10 8 11 7 6 8 9 10 10 8 8 8 7 7 6 9 7 7 10 12 11 9 9 10 11 12 14
10 10 9 7 6 8 11 12 13 8 5 6 11 15 14 12 10 10 9 8 6 6 8 10 10 9 9 7 7 6 6 8 7 7 7 10 12 9 8 9 9 12 14
9 9 9 10 10 11 14 13 14 12 8 11 10 8 9 13 13 12 10 7 8 7 7 8 9 9 8 8 7 6 5 7 8 6 6 9 10 10 8 8 8 10 11
9 10 10 10 10 11 13 14 14 12 10 9 9 8 8 7 9 11 12 10 8 8 9 9 9 9 7 7 7 7 6 7 8 6 6 7 9 10 8 7 6 6 8
11 11 11 12 13 11 10 11 11 11 11 11 10 8 5 4 3 11 16 14 14 13 13 12 10 9 9 8 8 8 8 8 7 7 7 7 8 9 7 6 5 4 5
13 12 12 11 12 12 11 10 10 9 8 8 9 8 7 8 6 8 14 14 15 15 17 15 15 12 12 10 9 9 10 9 9 8 7 5 6 7 8 5 4 3 3
13 13 13 12 12 11 10 9 9 9 8 6 5 6 7 8 9 9 11 13 11 12 12 25 17 15 12 12 11 10 11 10 10 9 8 7 6 7 8 7 5 3 1
13 13 12 12 11 10 9 8 7 6 5 5 2 2 2 4 6 10 14 14 15 11 13 17 18 13 12 13 13 11 12 11 10 9 9 9 8 8 9 8 6 5 3
15 11 10 10 10 9 8 7 6 5 5 4 2 2 3 5 9 10 11 17 17 13 13 25 18 17 14 14 14 14 14 12 10 10 10 10 10 10 10 9 9 9 7
17 16 13 9 7 6 7 7 6 5 5 4 3 3 3 5 9 8 14 16 18 16 13 13 27 18 16 14 15 16 13 12 12 12 12 11 12 12 11 11 10 11 10
12 12 12 11 12 10 3 3 4 4 3 0 1 3 3 4 6 6 9 11 17 17 15 16 18 19 16 18 18 16 14 14 13 14 13 12 13 12 12 12 12 11 11
6 7 8 9 9 9 11 10 5 2 1 2 3 4 6 6 6 6 6 5 10 16 17 19 19 19 15 23 19 17 17 17 16 15 14 14 15 15 15 12 12 14 13
5 4 5 6 7 9 12 12 11 7 5 5 5 5 6 7 8 8 7 5 6 10 15 21 20 20 18 24 22 23 19 19 19 17 15 15 15 17 16 13 14 14 16
5 4 3 4 5 7 8 11 12 12 12 9 8 8 9 9 8 8 7 8 10 6 14 16 19 25 24 23 23 27 23 20 20 19 18 19 18 17 16 15 15 15 17
6 7 7 6 6 7 8 10 12 15 16 14 12 12 12 12 10 10 10 9 9 8 8 14 15 21 29 28 23 23 30 25 26 20 21 22 21 21 20 19 17 17 16
4 4 6 8 8 7 6 5 4 10 12 14 17 14 17 19 19 17 15 13 12 10 10 12 13 15 23 26 26 26 26 28 26 27 22 26 24 23 22 21 19 19 18
7 5 6 9 11 12 11 9 7 15 13 10 13 11 13 13 14 17 18 16 14 15 15 13 14 15 17 23 26 31 33 32 27 31 32 26 26 25 23 23 22 21 20
10 10 9 10 10 12 14 15 13 13 12 14 16 16 19 19 17 20 18 18 19 18 17 20 18 19 22 23 23 24 27 35 37 36 37 28 27 25 24 25 24 22 22
11 11 11 12 12 15 18 20 19 18 17 18 20 21 22 24 24 23 22 23 23 23 22 25 22 23 25 22 25 23 24 28 35 29 28 32 34 35 32 28 24 23 24
12 12 12 15 17 18 18 19 20 23 24 26 26 27 28 27 27 28 26 29 28 29 28 28 28 28 27 27 26 27 26 27 28 27 29 33 34 30 34 36 32 28 29
17 16 16 18 20 22 23 23 22 24 27 28 29 29 32 33 34 32 33 33 34 32 33 35 35 34 33 33 30 30 30 29 31 33 33 34 35 34 33 34 38 37 35